[[{"header":{"parameterUnit":"m.s-1","parameterCategory":1,"la1":30.6,"la2":29.2853,"lo1":-89.7004,"lo2":-87.6739,"dy":0.0162,"dx":0.0183,"nx":112,"ny":82,"refTime":"2023-11-09T06:00:00:Z","depth":0,"parameterNumber":2,"parameterNumberName":"U-component_of_WINDS"},"data":[0.0,0.0,0.0,0.0,0.0,0.0,0.0,0.0,0.0,0.0,0.0,0.0,0.0,0.0,0.0,0.0,0.0,0.0,0.0,0.0,0.0,0.0,0.0,0.0,0.0,0.0,0.0,0.0,0.0,0.0,0.0,0.0,0.0,0.0,0.0,0.0,0.0,0.0,0.0,0.0,0.0,0.0,0.0,0.0,0.0,0.0,0.0,0.0,0.0,0.0,0.0,0.0,0.0,0.0,0.0,0.0,0.0,0.0,0.0,0.0,0.0,0.0,0.0,0.0,0.0,0.0,0.0,0.0,0.0,0.0,0.0,0.0,0.0,0.0,0.0,0.0,0.0,0.0,0.0,0.0,0.0,0.0,0.0,0.0,0.0,0.0,0.0,0.0,0.0,0.0,0.0,4.4419,4.4886,4.4069,4.1517,4.1493,4.1044,3.98,0.0,0.0,0.0,0.0,0.0,0.0,0.0,0.0,0.0,0.0,0.0,0.0,0.0,0.0,0.0,0.0,0.0,0.0,0.0,0.0,0.0,0.0,0.0,0.0,0.0,0.0,0.0,0.0,0.0,0.0,0.0,0.0,0.0,0.0,0.0,0.0,0.0,0.0,0.0,0.0,0.0,0.0,0.0,0.0,0.0,0.0,0.0,0.0,0.0,0.0,0.0,0.0,0.0,0.0,0.0,0.0,0.0,0.0,0.0,0.0,0.0,0.0,0.0,0.0,0.0,0.0,0.0,0.0,0.0,0.0,0.0,0.0,0.0,0.0,0.0,0.0,0.0,0.0,0.0,0.0,0.0,0.0,0.0,0.0,0.0,0.0,0.0,0.0,0.0,0.0,0.0,0.0,0.0,0.0,0.0,0.0,0.0,0.0,0.0,0.0,0.0,0.0,0.0,0.0,4.1541,4.0642,4.2496,4.2762,4.0211,4.0995,4.1044,3.98,0.0,0.0,0.0,0.0,0.0,0.0,0.0,0.0,0.0,0.0,0.0,0.0,0.0,0.0,0.0,0.0,0.0,0.0,0.0,0.0,0.0,0.0,0.0,0.0,0.0,0.0,0.0,0.0,0.0,0.0,0.0,0.0,0.0,0.0,0.0,0.0,0.0,0.0,0.0,0.0,0.0,0.0,0.0,0.0,0.0,0.0,0.0,0.0,0.0,0.0,0.0,0.0,0.0,0.0,0.0,0.0,0.0,0.0,0.0,0.0,0.0,0.0,0.0,0.0,0.0,0.0,0.0,0.0,0.0,0.0,0.0,0.0,0.0,0.0,0.0,0.0,0.0,0.0,0.0,0.0,0.0,0.0,0.0,0.0,0.0,0.0,0.0,0.0,0.0,0.0,0.0,0.0,0.0,0.0,0.0,0.0,0.0,0.0,0.0,0.0,0.0,0.0,0.0,4.1169,4.1094,3.9826,4.1369,4.1715,3.9852,4.0211,4.0313,3.9749,3.9697,0.0,0.0,0.0,0.0,0.0,0.0,0.0,0.0,0.0,0.0,0.0,0.0,0.0,0.0,0.0,0.0,0.0,0.0,0.0,0.0,0.0,0.0,0.0,0.0,0.0,0.0,0.0,0.0,0.0,0.0,0.0,0.0,0.0,0.0,0.0,0.0,0.0,0.0,0.0,0.0,0.0,0.0,0.0,0.0,0.0,0.0,0.0,0.0,0.0,0.0,0.0,0.0,0.0,0.0,0.0,0.0,0.0,0.0,0.0,0.0,0.0,0.0,0.0,0.0,0.0,0.0,0.0,0.0,0.0,0.0,0.0,0.0,0.0,0.0,0.0,0.0,0.0,0.0,0.0,0.0,0.0,0.0,0.0,0.0,0.0,0.0,0.0,0.0,0.0,0.0,0.0,0.0,0.0,0.0,0.0,0.0,0.0,0.0,0.0,0.0,0.0,0.0,4.0541,4.0794,3.98,4.0567,4.0769,3.98,3.9697,3.9697,3.9697,3.9697,0.0,0.0,0.0,0.0,0.0,0.0,0.0,0.0,0.0,0.0,0.0,0.0,0.0,0.0,0.0,0.0,0.0,0.0,0.0,0.0,0.0,0.0,0.0,0.0,0.0,0.0,0.0,0.0,0.0,0.0,0.0,0.0,0.0,0.0,0.0,0.0,0.0,0.0,0.0,0.0,0.0,0.0,0.0,0.0,0.0,0.0,0.0,0.0,0.0,0.0,0.0,0.0,0.0,0.0,0.0,0.0,0.0,0.0,0.0,0.0,0.0,0.0,0.0,0.0,0.0,0.0,0.0,0.0,0.0,0.0,0.0,0.0,0.0,0.0,0.0,0.0,0.0,0.0,0.0,0.0,0.0,0.0,0.0,0.0,0.0,0.0,0.0,0.0,0.0,0.0,0.0,0.0,0.0,0.0,0.0,0.0,0.0,0.0,0.0,0.0,0.0,0.0,3.98,3.98,3.9723,3.98,3.98,3.9723,3.9697,3.9697,3.9697,3.9697,0.0,0.0,0.0,0.0,0.0,0.0,0.0,0.0,0.0,0.0,0.0,0.0,0.0,0.0,0.0,0.0,0.0,0.0,0.0,0.0,0.0,0.0,0.0,0.0,0.0,0.0,0.0,0.0,0.0,0.0,0.0,0.0,0.0,0.0,0.0,0.0,0.0,0.0,0.0,0.0,0.0,0.0,0.0,0.0,0.0,0.0,0.0,0.0,0.0,0.0,0.0,0.0,0.0,0.0,0.0,0.0,0.0,0.0,0.0,0.0,0.0,0.0,0.0,0.0,0.0,0.0,0.0,0.0,0.0,0.0,0.0,0.0,0.0,0.0,0.0,0.0,0.0,0.0,0.0,0.0,0.0,0.0,0.0,0.0,0.0,0.0,0.0,0.0,0.0,0.0,0.0,0.0,0.0,0.0,0.0,0.0,0.0,0.0,0.0,0.0,0.0,0.0,3.9697,3.9697,0.0,3.9697,3.9697,3.9697,3.9697,3.9697,3.9697,0.0,0.0,0.0,0.0,0.0,0.0,0.0,0.0,0.0,0.0,0.0,0.0,0.0,0.0,0.0,0.0,0.0,0.0,0.0,0.0,0.0,0.0,0.0,0.0,0.0,0.0,0.0,0.0,0.0,0.0,0.0,0.0,0.0,0.0,0.0,0.0,0.0,0.0,0.0,0.0,0.0,0.0,0.0,0.0,0.0,0.0,0.0,0.0,0.0,0.0,0.0,0.0,0.0,0.0,0.0,0.0,0.0,0.0,0.0,0.0,0.0,0.0,0.0,0.0,0.0,0.0,0.0,0.0,0.0,0.0,0.0,0.0,0.0,0.0,0.0,0.0,0.0,0.0,0.0,0.0,0.0,0.0,0.0,0.0,0.0,0.0,0.0,0.0,0.0,0.0,0.0,0.0,0.0,0.0,0.0,0.0,0.0,0.0,0.0,0.0,0.0,0.0,3.9697,3.9697,3.9697,0.0,3.9697,3.9697,3.9697,3.9697,3.9697,3.9697,0.0,0.0,0.0,0.0,0.0,0.0,0.0,0.0,0.0,0.0,0.0,0.0,0.0,0.0,0.0,0.0,0.0,0.0,0.0,0.0,0.0,0.0,0.0,0.0,0.0,0.0,0.0,0.0,0.0,0.0,0.0,0.0,0.0,0.0,0.0,0.0,0.0,0.0,0.0,0.0,0.0,0.0,0.0,0.0,0.0,0.0,0.0,0.0,0.0,0.0,0.0,0.0,0.0,0.0,0.0,0.0,0.0,0.0,0.0,0.0,0.0,0.0,0.0,0.0,0.0,0.0,0.0,0.0,0.0,0.0,0.0,0.0,0.0,0.0,0.0,0.0,0.0,0.0,0.0,0.0,0.0,0.0,0.0,0.0,0.0,0.0,0.0,0.0,0.0,0.0,0.0,0.0,0.0,0.0,0.0,0.0,0.0,0.0,0.0,0.0,0.0,0.0,3.9697,3.9697,3.9697,3.9697,3.9697,3.9697,3.9697,3.9697,3.9697,0.0,0.0,0.0,0.0,0.0,0.0,0.0,0.0,0.0,0.0,0.0,0.0,0.0,0.0,0.0,0.0,0.0,0.0,0.0,0.0,0.0,0.0,0.0,0.0,0.0,0.0,0.0,0.0,0.0,0.0,0.0,0.0,0.0,0.0,0.0,0.0,0.0,0.0,0.0,0.0,0.0,0.0,0.0,0.0,0.0,0.0,0.0,0.0,0.0,0.0,0.0,0.0,0.0,0.0,0.0,0.0,0.0,0.0,0.0,0.0,0.0,0.0,0.0,0.0,0.0,0.0,0.0,0.0,0.0,0.0,0.0,0.0,0.0,0.0,0.0,0.0,0.0,0.0,0.0,0.0,0.0,0.0,0.0,0.0,0.0,0.0,0.0,0.0,0.0,0.0,0.0,0.0,0.0,0.0,0.0,0.0,0.0,0.0,0.0,0.0,0.0,0.0,0.0,3.9697,3.9697,3.9697,3.9697,3.9697,3.9697,3.9697,3.9697,3.9697,3.9697,0.0,0.0,0.0,0.0,0.0,0.0,0.0,0.0,0.0,0.0,0.0,0.0,0.0,0.0,0.0,0.0,0.0,0.0,0.0,0.0,0.0,0.0,0.0,0.0,0.0,0.0,0.0,0.0,0.0,0.0,0.0,0.0,0.0,0.0,0.0,0.0,0.0,0.0,0.0,0.0,0.0,0.0,0.0,0.0,0.0,0.0,0.0,0.0,0.0,0.0,0.0,0.0,0.0,0.0,0.0,0.0,0.0,0.0,0.0,0.0,0.0,0.0,0.0,0.0,0.0,0.0,0.0,0.0,0.0,0.0,0.0,0.0,0.0,0.0,0.0,0.0,0.0,0.0,0.0,0.0,0.0,0.0,0.0,0.0,0.0,0.0,0.0,0.0,0.0,0.0,0.0,0.0,0.0,0.0,0.0,0.0,0.0,0.0,0.0,0.0,0.0,0.0,3.9697,3.9697,3.9697,3.9697,3.9697,3.9697,3.9697,3.9697,3.9697,3.9697,0.0,0.0,0.0,0.0,0.0,0.0,0.0,0.0,0.0,0.0,0.0,0.0,0.0,0.0,0.0,0.0,0.0,0.0,0.0,0.0,0.0,0.0,0.0,0.0,0.0,0.0,0.0,0.0,0.0,0.0,0.0,0.0,0.0,0.0,0.0,0.0,0.0,0.0,0.0,0.0,0.0,0.0,0.0,0.0,0.0,0.0,0.0,0.0,0.0,0.0,0.0,0.0,0.0,0.0,0.0,0.0,0.0,0.0,0.0,0.0,0.0,0.0,0.0,0.0,0.0,0.0,0.0,0.0,0.0,0.0,0.0,0.0,0.0,0.0,0.0,0.0,0.0,0.0,0.0,0.0,0.0,0.0,0.0,0.0,0.0,0.0,0.0,0.0,0.0,0.0,0.0,0.0,0.0,0.0,0.0,0.0,0.0,0.0,0.0,0.0,0.0,0.0,3.9697,3.9697,3.9697,3.9697,3.9697,3.9697,3.9697,3.9697,3.9697,3.9697,0.0,0.0,0.0,0.0,0.0,0.0,0.0,0.0,0.0,0.0,0.0,0.0,0.0,0.0,0.0,0.0,0.0,0.0,0.0,0.0,0.0,0.0,0.0,0.0,0.0,0.0,0.0,0.0,0.0,0.0,0.0,0.0,0.0,0.0,0.0,0.0,0.0,0.0,0.0,0.0,0.0,0.0,0.0,0.0,0.0,0.0,0.0,0.0,0.0,0.0,0.0,0.0,0.0,0.0,0.0,0.0,0.0,0.0,0.0,0.0,3.9697,0.0,0.0,0.0,0.0,0.0,0.0,0.0,0.0,0.0,0.0,0.0,0.0,0.0,0.0,0.0,0.0,0.0,0.0,0.0,0.0,0.0,0.0,0.0,0.0,0.0,0.0,0.0,0.0,0.0,0.0,0.0,0.0,0.0,0.0,0.0,0.0,0.0,0.0,0.0,0.0,0.0,3.9697,3.9697,3.9697,3.9697,3.9697,3.9697,3.9697,3.9697,3.9697,3.9697,0.0,0.0,0.0,0.0,0.0,0.0,0.0,0.0,0.0,0.0,0.0,0.0,0.0,0.0,0.0,0.0,0.0,0.0,0.0,0.0,0.0,0.0,0.0,0.0,0.0,0.0,0.0,0.0,0.0,0.0,0.0,0.0,0.0,0.0,0.0,0.0,0.0,0.0,0.0,0.0,0.0,0.0,0.0,0.0,0.0,0.0,0.0,0.0,0.0,0.0,0.0,0.0,0.0,0.0,0.0,0.0,0.0,0.0,0.0,0.0,0.0,3.9697,0.0,0.0,0.0,0.0,0.0,0.0,0.0,0.0,0.0,0.0,0.0,0.0,0.0,0.0,0.0,0.0,0.0,0.0,0.0,0.0,0.0,0.0,0.0,0.0,0.0,0.0,0.0,0.0,0.0,0.0,0.0,0.0,0.0,0.0,0.0,0.0,0.0,0.0,0.0,0.0,3.9697,3.9697,3.9697,3.9697,3.9697,3.9697,3.9697,3.9697,3.9697,3.9697,3.9697,0.0,0.0,0.0,0.0,0.0,0.0,0.0,0.0,0.0,0.0,0.0,0.0,0.0,0.0,0.0,0.0,0.0,0.0,0.0,0.0,0.0,0.0,0.0,0.0,0.0,0.0,0.0,0.0,0.0,0.0,0.0,0.0,0.0,0.0,0.0,0.0,0.0,0.0,0.0,0.0,0.0,0.0,0.0,0.0,0.0,0.0,0.0,0.0,0.0,0.0,0.0,0.0,0.0,3.9697,3.9697,3.9697,3.9697,3.9697,3.9697,3.9697,3.9697,3.9697,0.0,0.0,0.0,0.0,0.0,0.0,0.0,0.0,0.0,0.0,0.0,0.0,0.0,0.0,0.0,0.0,0.0,0.0,0.0,0.0,0.0,0.0,0.0,0.0,0.0,3.9898,3.9973,0.0,0.0,0.0,0.0,0.0,0.0,0.0,0.0,0.0,0.0,0.0,0.0,3.9973,3.9973,3.9973,3.9973,3.9973,3.9973,3.9973,3.9973,3.9973,3.9973,3.9898,3.9848,0.0,0.0,0.0,0.0,0.0,0.0,0.0,0.0,0.0,0.0,0.0,0.0,0.0,0.0,0.0,0.0,0.0,0.0,0.0,0.0,0.0,0.0,0.0,0.0,0.0,0.0,0.0,0.0,0.0,0.0,0.0,0.0,3.9697,3.9697,0.0,0.0,0.0,0.0,0.0,0.0,0.0,0.0,0.0,0.0,0.0,0.0,0.0,0.0,3.9697,3.9697,3.9697,3.9697,3.9697,3.9697,3.9697,3.9697,3.9697,3.9697,3.9697,0.0,3.9697,3.9697,0.0,0.0,0.0,0.0,0.0,0.0,0.0,0.0,0.0,0.0,0.0,0.0,0.0,0.0,0.0,0.0,0.0,0.0,0.0,0.0,0.0,0.0,4.0374,4.0374,4.075,4.1102,0.0,4.0375,3.9848,4.0299,0.0,0.0,0.0,0.0,0.0,0.0,0.0,0.0,4.1102,4.1102,4.1102,4.1102,4.1102,4.1102,4.1102,4.1102,4.1102,4.1102,4.065,4.0374,4.0374,3.9948,0.0,0.0,0.0,0.0,0.0,0.0,0.0,0.0,0.0,0.0,0.0,0.0,0.0,0.0,0.0,0.0,0.0,0.0,0.0,0.0,0.0,0.0,0.0,0.0,0.0,0.0,0.0,0.0,0.0,3.9697,3.9697,3.9697,3.9697,3.9697,0.0,0.0,0.0,0.0,0.0,0.0,0.0,0.0,0.0,3.9697,3.9697,3.9848,4.0149,4.0149,4.03,4.06,4.06,4.06,4.06,4.06,4.06,4.06,4.06,4.06,4.0549,3.9948,3.9697,3.9697,0.0,0.0,0.0,0.0,0.0,3.9697,3.9697,3.9697,0.0,0.0,0.0,0.0,0.0,0.0,0.0,0.0,0.0,0.0,0.0,0.0,0.0,4.0951,4.1152,4.1302,4.1302,4.0926,4.0675,0.0,4.0951,4.1026,4.1277,0.0,0.0,0.0,0.0,0.0,4.1302,4.1302,4.1302,4.1302,4.1302,4.1302,4.1302,4.1302,4.1302,4.1302,4.1076,4.0951,4.0951,4.0725,4.06,0.0,0.0,0.0,0.0,0.0,0.0,0.0,0.0,0.0,0.0,0.0,0.0,0.0,0.0,0.0,0.0,0.0,0.0,0.0,0.0,0.0,0.0,0.0,0.0,0.0,0.0,0.0,0.0,3.9697,3.9697,3.9697,3.9697,3.9697,0.0,0.0,0.0,0.0,0.0,0.0,3.9898,4.0049,4.0124,4.0124,4.0124,4.03,4.07,4.07,4.0901,4.1302,4.1302,4.1302,4.1302,4.1302,4.1302,4.1302,4.1302,4.1302,4.1252,4.045,4.0124,4.0124,4.0124,4.0124,4.0124,4.0124,4.0124,4.0124,4.0124,4.0124,4.0124,4.0124,0.0,4.07,4.07,0.0,0.0,0.0,0.0,4.1352,4.1478,0.0,4.1779,4.1904,4.2055,4.2155,4.2155,4.2155,4.203,0.0,4.1528,4.1553,4.1704,0.0,0.0,0.0,0.0,4.1729,4.1729,4.1729,4.1729,4.1729,4.1729,4.1729,4.1729,4.1729,4.1729,4.1729,4.1603,4.1528,4.1528,4.1378,4.1302,4.1302,0.0,0.0,0.0,0.0,0.0,0.0,0.0,0.0,0.0,0.0,0.0,0.0,0.0,0.0,0.0,0.0,0.0,0.0,0.0,0.0,0.0,0.0,0.0,0.0,0.0,0.0,0.0,0.0,0.0,3.9697,3.9697,0.0,0.0,0.0,0.0,3.9697,4.0174,4.0449,4.0449,4.0951,4.1227,4.1227,4.1227,4.1225,4.1277,4.1277,4.125,4.1302,4.1302,4.1302,4.1302,4.1302,4.1302,4.1302,4.1302,4.1302,4.1302,4.1225,4.1227,4.1227,4.1227,4.1227,4.1227,4.1227,4.1227,4.1227,4.1227,4.1227,4.1227,4.1227,4.1252,4.1277,4.1277,4.1277,0.0,0.0,4.1302,4.1428,4.2009,4.2537,4.3039,4.3539,4.4037,4.4414,4.4414,4.4414,4.3991,0.0,4.2135,4.2311,4.2838,0.0,4.2914,4.2914,4.2914,4.2914,4.2914,4.2914,4.2914,4.2914,4.2914,4.2914,4.2914,4.2914,4.2914,4.2914,4.2436,4.2135,4.2135,4.1605,4.1302,4.1302,4.1302,0.0,0.0,0.0,0.0,0.0,0.0,0.0,0.0,0.0,0.0,0.0,0.0,0.0,0.0,0.0,0.0,0.0,0.0,0.0,0.0,0.0,0.0,0.0,0.0,0.0,0.0,0.0,0.0,3.9697,3.9998,0.0,0.0,4.0524,4.0725,4.0725,4.0901,4.1177,4.1582,4.1783,4.2032,4.2384,4.2384,4.2559,4.2911,4.2908,4.3059,4.3435,4.3435,4.3435,4.3435,4.3435,4.3435,4.3435,4.3435,4.3435,4.3435,4.3435,4.2582,4.1302,4.1302,4.1302,4.1302,4.1302,4.1302,4.1302,4.1302,4.1302,4.1428,4.2158,4.2384,4.2534,4.3209,4.3435,4.3435,4.3435,4.3435,4.346,4.3689,4.389,4.4091,4.4263,4.4464,4.4589,4.4589,4.4589,4.4414,4.3865,4.374,4.3815,4.4016,4.4041,4.4041,4.4041,4.4041,4.4041,4.4041,4.4041,4.4041,4.4041,4.4041,4.4041,4.4041,4.4041,4.4041,4.4041,4.3514,4.324,4.324,4.2685,4.2384,4.2384,4.2384,4.2208,0.0,0.0,0.0,0.0,0.0,0.0,0.0,0.0,0.0,0.0,0.0,0.0,0.0,0.0,0.0,0.0,0.0,0.0,0.0,0.0,0.0,0.0,0.0,0.0,0.0,0.0,4.0249,4.0249,4.0549,4.0851,4.1053,4.1404,4.1679,4.1854,4.203,4.2333,4.2713,4.2914,4.3266,4.3843,4.3843,4.4091,4.4644,4.4644,4.4844,4.5167,4.5167,4.5167,4.5167,4.5167,4.5167,4.5167,4.5167,4.5167,4.5167,4.5167,4.4313,4.2958,4.2557,4.2431,4.2431,4.2431,4.2431,4.2431,4.2431,4.2431,4.2532,4.3288,4.3539,4.3664,4.4364,4.4589,4.464,4.4869,4.489,4.4995,4.5342,4.5443,4.5493,4.5668,4.5693,4.5693,4.5693,4.5693,4.5693,4.5693,4.5091,4.4589,4.4589,4.4589,4.4589,4.4589,4.4589,4.4589,4.4589,4.4589,4.4589,4.4589,4.4589,4.4589,4.4589,4.4589,4.4589,4.4589,4.4292,4.4091,4.4091,4.374,4.3438,4.3263,4.3263,4.319,4.3014,0.0,0.0,0.0,0.0,0.0,0.0,0.0,0.0,0.0,0.0,0.0,0.0,0.0,0.0,0.0,0.0,0.0,0.0,0.0,0.0,0.0,0.0,0.0,4.06,4.0976,4.1327,4.1327,4.1326,4.1578,4.2185,4.2288,4.2487,4.3039,4.3564,4.3865,4.389,4.4418,4.4941,4.5547,4.5573,4.5824,4.6351,4.6351,4.6351,4.6351,4.6351,4.6351,4.6351,4.6351,4.6351,4.6351,4.6351,4.6351,4.6351,4.6351,4.6351,4.625,4.5091,4.464,4.464,4.464,4.464,4.464,4.464,4.464,4.4665,4.4665,4.4665,4.4665,4.469,4.469,4.4815,4.5397,4.5573,4.5799,4.6848,4.7124,4.7249,4.7782,4.7908,4.7908,4.7908,4.7908,4.7908,4.7908,4.6175,4.469,4.469,4.469,4.469,4.469,4.469,0.0,4.469,4.469,4.469,4.469,4.469,4.469,4.469,4.469,4.4665,4.4665,4.464,4.4614,4.4614,4.4614,4.4367,4.384,4.3815,4.4091,4.4589,0.0,0.0,0.0,0.0,0.0,0.0,0.0,0.0,0.0,0.0,0.0,0.0,0.0,0.0,0.0,0.0,0.0,0.0,0.0,0.0,0.0,0.0,4.1731,4.1152,4.1227,4.1453,4.1909,4.2311,4.2735,4.3288,4.3714,4.4192,4.4773,4.4945,4.5372,4.6145,4.6321,4.6672,4.723,4.723,4.7305,4.7481,4.7481,4.7481,4.7481,4.7481,4.7481,4.7481,4.7481,4.7481,4.7481,4.7481,4.7481,4.7481,4.7481,4.7481,4.7355,4.6276,4.5819,4.5819,4.5819,4.5819,4.5819,4.5819,4.5819,4.5924,4.6296,4.6421,4.6496,4.6873,4.7004,4.7029,4.7205,4.723,4.7305,4.7575,4.7682,4.7732,4.7883,4.7908,4.7908,4.7908,4.7908,4.7908,4.7908,4.7431,4.7004,4.7004,4.7004,4.7004,4.7004,4.7004,0.0,4.7004,4.7004,4.7004,4.7004,4.7004,4.7004,4.7004,4.6622,4.6421,0.0,4.5698,4.5246,4.5246,4.4815,4.4514,4.4364,4.4364,4.4439,0.0,0.0,0.0,0.0,0.0,0.0,0.0,0.0,0.0,0.0,0.0,0.0,0.0,0.0,0.0,0.0,0.0,0.0,0.0,0.0,0.0,0.0,4.2635,4.2886,4.3062,4.2632,4.266,4.3492,4.3869,4.4342,4.5121,4.5468,4.5869,4.6451,4.6502,4.6778,4.74,4.7425,4.7676,4.8259,4.8259,4.8385,4.8611,4.8611,4.8611,4.8611,4.8611,4.8611,4.8611,4.8611,4.8611,0.0,4.8611,4.8611,4.8611,4.8611,4.8611,0.0,0.0,0.0,0.0,0.0,4.6979,4.6979,4.6979,4.6979,4.7029,4.7324,4.7425,4.7475,4.7807,4.7908,4.7958,4.8209,4.8259,4.8309,4.856,4.8611,4.8611,4.8611,4.8611,4.8611,4.8611,4.8611,4.8611,4.8611,0.0,0.0,4.8611,4.8234,4.7908,4.7908,4.7908,4.7908,4.7908,4.7908,4.7908,4.7908,4.7908,4.7908,4.7908,4.76,0.0,0.0,0.0,4.6502,4.6502,4.5944,0.0,0.0,0.0,4.5744,4.5969,0.0,0.0,0.0,4.4865,4.4414,0.0,0.0,0.0,0.0,0.0,0.0,0.0,0.0,0.0,0.0,0.0,0.0,0.0,0.0,0.0,0.0,4.394,4.4367,4.5422,4.4769,4.4543,4.5547,4.5673,4.6075,4.7099,4.7199,4.74,4.7958,4.8008,4.8033,4.8083,0.0,0.0,0.0,0.0,4.9145,4.959,4.959,4.959,4.959,4.959,4.959,4.959,4.959,4.959,4.959,4.959,4.959,4.959,4.959,4.959,4.949,4.8485,4.8109,4.8109,4.8109,4.8109,0.0,4.8109,0.0,0.0,4.8109,4.8109,4.8109,4.8109,4.8109,4.8209,4.8743,4.8894,4.9019,4.9464,4.959,4.959,4.959,4.959,4.959,4.959,4.959,4.959,4.959,4.959,4.959,4.959,4.8761,4.8109,4.8109,4.8109,4.8109,4.8109,4.8109,4.8109,4.8109,0.0,0.0,4.8109,4.8033,4.8008,4.8008,4.7933,4.7908,4.7908,4.7425,4.74,4.7908,4.7425,4.74,4.7908,4.7908,4.7908,4.7857,4.5869,4.4966,0.0,0.0,0.0,0.0,0.0,0.0,0.0,0.0,0.0,0.0,0.0,0.0,0.0,0.0,0.0,4.4338,4.4844,4.5397,4.605,4.6321,4.6547,4.6747,4.6772,4.7023,4.7682,4.7757,4.7983,4.8592,4.8642,4.8786,4.9238,4.9264,0.0,4.9439,4.9439,4.949,4.959,4.959,4.959,4.959,0.0,0.0,4.959,4.959,4.959,4.959,4.959,4.959,4.959,4.959,4.959,4.9565,4.9364,4.9264,4.9264,4.9264,4.9264,4.9264,4.9264,4.9264,4.9264,4.9264,4.9264,4.9264,4.9264,4.9264,0.0,4.9414,4.9439,4.9464,4.9565,4.959,4.959,4.959,4.959,4.959,4.959,4.959,4.959,4.959,4.959,4.959,4.959,4.9414,4.9264,4.9264,4.9264,4.9264,4.9264,4.9264,4.9264,4.9264,4.9264,4.9264,4.9264,4.8862,4.8642,4.8642,4.8159,4.7908,4.7908,4.7807,4.7807,4.7908,4.7807,4.7807,4.7908,4.7908,4.7908,4.7908,4.7481,4.728,0.0,0.0,0.0,0.0,0.0,0.0,0.0,0.0,0.0,0.0,0.0,4.3463,0.0,0.0,4.4819,4.5342,4.5949,4.6602,4.7431,4.7782,4.7958,4.7958,4.7958,4.8159,4.8711,4.8761,4.8862,4.9163,4.922,4.9314,4.959,4.959,4.9715,4.9992,5.0017,5.0142,5.0444,5.0444,5.0444,5.0444,5.0444,5.0444,5.0419,5.0142,5.0017,4.9992,4.9715,4.959,4.959,4.959,4.959,4.959,4.959,4.959,4.959,4.959,4.959,4.959,4.959,4.959,4.959,4.959,4.959,4.959,4.959,4.959,4.959,4.959,4.959,4.959,4.959,4.959,4.959,4.959,4.959,4.959,4.959,4.959,4.959,4.959,4.959,4.959,4.959,4.959,4.959,4.959,4.959,4.959,4.959,4.959,4.959,4.959,4.959,4.959,4.959,4.9339,4.922,4.922,4.8912,4.8761,4.8761,4.8761,4.8761,4.8761,4.8761,4.8761,4.8761,4.8761,4.8266,4.7352,4.7352,4.7562,0.0,0.0,0.0,0.0,0.0,0.0,0.0,0.0,4.3165,4.3165,4.3664,4.4166,4.4267,4.5121,4.5974,4.6527,4.7048,4.7757,4.8693,4.8894,4.8969,4.8969,4.8969,4.9145,4.9565,4.959,4.964,4.9741,4.9766,4.9816,4.9916,4.9916,5.0117,5.0569,5.0569,5.082,5.1306,5.1306,5.1306,5.1306,5.1306,5.1306,5.1272,5.0795,5.0569,5.0569,5.0117,4.9916,4.9916,4.9916,4.9916,4.9916,4.9916,4.9916,4.9891,4.9665,4.959,4.959,4.959,4.959,4.959,4.959,4.959,4.959,4.959,4.9665,4.9766,4.9766,4.9841,4.9916,4.9916,4.9916,4.9916,4.9916,4.9916,4.9916,4.9916,4.9916,4.9916,4.9916,4.9916,4.9916,4.9916,4.9916,4.9841,4.9615,4.959,4.959,4.959,4.959,4.959,4.959,4.959,4.959,4.959,4.959,4.959,4.959,4.9242,4.921,4.959,4.8918,4.8698,4.9023,4.8698,4.8534,4.8534,4.8534,4.7764,4.6264,4.6264,4.6601,4.1275,4.1681,4.2235,4.2763,4.2914,4.2939,0.0,0.0,4.3714,4.3714,4.4568,4.5447,4.5924,4.6496,4.7099,4.7631,4.8209,4.8667,4.8793,4.922,4.9515,4.9515,4.9515,4.9515,4.959,4.959,4.9791,5.0293,5.0318,5.0544,5.1105,5.1096,5.1155,5.1197,5.1197,5.1222,5.1306,5.1306,5.1306,5.1306,5.1306,5.1306,5.1306,5.1222,5.1197,5.1205,5.1155,5.1096,5.1096,5.1096,5.1096,5.1096,5.1096,5.1096,5.1004,4.9967,4.959,4.959,4.959,4.959,4.959,4.959,4.959,4.959,4.959,4.9941,5.0318,5.0318,5.0695,5.1096,5.1096,5.1096,5.1096,5.1096,5.1096,5.1096,5.1096,5.1096,5.1096,5.1096,5.1096,5.1096,5.1096,5.1096,5.0778,4.9741,4.959,4.959,4.959,4.959,4.959,4.959,4.959,4.959,4.959,4.959,4.959,4.959,4.8027,4.7839,4.9525,4.6479,4.5457,4.7088,4.5524,4.4732,4.4732,4.4732,4.463,4.4402,4.4402,4.446,4.2208,4.2459,0.0,0.0,4.3463,4.3539,4.3865,4.4116,4.4367,4.4719,4.5422,4.6125,4.6672,4.7506,4.8159,0.0,4.8919,4.9296,4.9296,4.9715,5.0067,5.0067,5.0368,5.0444,5.0117,5.0368,5.067,5.0896,5.0921,5.1021,5.1306,5.1306,5.1423,5.1749,5.1749,5.1925,5.2226,5.2226,5.2226,5.2226,5.2226,5.2226,5.2226,5.19,5.1599,5.1306,5.1306,5.1306,5.1306,5.1306,5.1306,5.1306,5.1306,5.1306,5.1255,5.0778,5.0569,5.0569,5.0569,5.0569,5.0569,5.0569,5.0569,5.0569,5.0569,4.9941,4.9193,4.9193,4.9363,4.9534,4.9534,5.0394,5.1306,5.1306,5.0419,4.9863,5.1072,5.036,4.9897,5.1072,5.0327,4.9534,4.9534,4.8622,4.8077,4.8758,4.9859,5.0444,5.0117,5.0067,4.9941,4.9615,4.959,4.959,4.959,4.8863,4.8382,4.8382,4.688,4.6335,4.7113,4.57,4.519,4.5955,4.5225,4.4862,4.4862,4.4862,4.4299,4.3235,4.3235,4.2684,4.2443,0.0,0.0,4.3801,4.4041,4.4166,4.4744,4.4941,4.5217,4.5824,4.6502,4.7104,4.7506,4.836,4.9044,4.9044,4.9371,4.964,4.9791,5.0167,5.0436,5.0645,5.1172,5.1348,5.0921,5.1122,5.1348,5.1498,5.1498,5.1574,5.1724,5.1724,5.1925,5.2327,5.2327,5.2528,5.2895,5.2895,5.2895,5.2895,5.2895,5.2895,5.287,5.2528,5.2126,5.1724,5.1724,5.1724,5.1724,5.1724,5.1724,5.1691,5.1159,5.0931,5.0863,5.0328,5.0268,5.0486,5.0486,5.0124,4.966,4.966,4.966,4.966,4.966,4.8752,4.7714,4.7714,4.7808,4.7959,4.7959,4.9017,5.0098,5.0098,4.9017,4.8344,4.9824,4.8982,4.8344,4.9824,4.8948,4.7959,4.7959,4.676,4.6333,4.7749,4.919,5.0253,5.0613,5.067,5.0494,5.0092,5.0067,4.9846,4.9273,4.8329,4.7504,4.6932,4.5477,4.486,4.5395,4.443,4.4106,4.4609,4.4163,4.3875,4.3875,4.3875,4.3185,4.1871,4.1871,4.1231,4.1412,4.1793,4.2526,4.4161,4.4564,4.4715,4.5321,4.5874,4.6396,4.6948,4.7933,4.8743,4.8743,4.9188,4.9565,4.9565,4.959,4.9791,5.0285,5.0386,5.0619,5.1197,5.1749,5.2076,0.0,5.1574,5.1498,5.2051,5.2076,5.2302,5.282,5.2845,5.2845,5.287,5.287,5.287,5.2895,5.2895,5.2895,5.2895,5.2895,5.2895,5.2895,5.287,5.287,5.2845,5.2845,5.2845,5.2845,5.2845,5.2845,5.2648,5.0774,5.0044,4.9807,4.7845,4.767,4.8368,4.8368,4.7156,4.5572,4.5572,4.5572,4.5572,4.5572,4.5908,4.6253,4.6253,4.6662,4.702,4.702,4.7057,4.713,4.713,4.7057,4.7057,4.713,4.7057,4.7057,4.713,4.7057,4.702,4.702,4.6984,4.6947,4.702,4.7094,4.8126,5.0937,5.1247,5.128,5.1255,5.1255,5.047,4.8516,4.831,4.7481,4.5585,4.3708,4.3491,4.5324,4.1965,4.0873,4.2638,4.0947,4.0071,4.0071,4.0071,4.0033,3.9958,3.9958,4.0155,4.29,4.2815,4.2682,4.5107,4.5719,4.5675,4.5382,4.6371,4.7165,4.6518,4.7668,4.8919,4.9296,4.9464,4.9715,5.0067,5.0142,5.0343,5.0921,5.1297,5.1599,5.18,5.2628,0.0,0.0,0.0,0.0,5.313,5.3155,5.3406,5.3984,5.4009,5.4009,5.4009,5.4009,5.4009,5.4009,5.4009,5.4009,5.4009,5.4009,5.4009,5.4009,5.4009,5.4009,5.4009,5.4009,5.4009,5.4009,5.4009,5.3183,5.1826,5.1189,5.0086,4.8797,4.8104,4.7253,4.6467,4.7196,4.7006,4.6463,4.6463,4.6463,4.6463,4.6463,4.5684,4.4816,4.4816,4.4923,4.5089,4.5089,4.6035,4.6992,4.6992,4.5998,4.5425,4.6698,4.5998,4.5462,4.6735,4.5961,4.5089,4.5089,4.4004,4.3587,4.4865,4.5882,4.6821,4.7783,4.7598,4.7388,4.7388,4.7388,4.7086,4.6433,4.5542,4.4707,4.4035,4.2536,4.1925,4.2607,4.1431,4.103,4.1641,4.1068,4.0742,4.0742,4.1016,4.1152,4.1172,4.1445,4.1641,4.1581,4.1646,4.165,4.4068,4.4808,4.4831,4.457,4.5432,4.6061,4.5468,4.6281,4.7221,4.756,4.8329,4.9027,4.9372,4.956,5.0106,5.1373,5.1424,5.1408,5.1546,5.3014,5.3431,0.0,0.0,0.0,5.3949,5.4009,5.4185,5.4572,5.4597,5.4597,5.4597,5.4597,5.4597,5.4597,5.4597,5.4597,5.4597,5.4597,5.4597,5.4597,5.4597,5.4597,5.4561,5.3799,5.3452,5.3416,5.2671,5.1567,5.023,4.9522,4.8432,4.7176,4.6468,4.5404,4.4541,4.5933,4.596,4.5378,4.5378,4.5378,4.5378,4.5378,4.4464,4.3508,4.3508,4.3508,4.3508,4.3508,4.4447,4.5378,4.5378,4.4388,4.3834,4.5112,4.435,4.3872,4.5112,4.4371,4.3508,4.3508,4.2482,4.2072,4.3315,4.4251,4.5227,4.6349,4.6181,4.598,4.598,4.598,4.5722,4.5209,4.4294,4.3555,4.3019,4.2128,4.1621,4.1621,4.1621,4.1621,4.1621,4.1621,4.1621,4.1621,4.1894,4.2031,4.2031,4.2265,4.2382,3.8065,3.8651,3.9605,4.144,4.2136,4.2572,4.3084,4.3286,4.3454,4.3867,4.4047,4.4116,0.0,0.0,4.7563,4.7587,4.7946,4.9043,5.1532,5.0731,5.002,0.0,0.0,0.0,0.0,0.0,0.0,5.453,0.0,5.4505,5.453,5.4601,5.4672,5.4672,5.4672,5.4672,5.4672,5.4672,5.4672,5.4672,5.4566,5.453,5.453,5.4423,5.4352,5.422,5.2211,5.1321,5.1174,4.9216,4.8309,4.8044,4.6205,4.543,4.5078,4.3181,4.246,4.2721,4.4646,4.4034,4.2382,4.2382,4.2382,4.2382,4.2382,4.2382,4.2382,4.2382,4.2382,4.2382,4.2382,4.2382,4.2382,4.2382,4.2382,4.2382,4.2382,4.2382,4.2382,4.2382,4.2382,4.2382,4.2382,4.2382,4.2382,4.2382,4.2382,4.3453,4.638,4.6787,4.6787,4.6787,4.6787,4.6186,4.473,4.4559,4.3974,4.2482,4.2382,4.2382,4.2382,4.2382,4.2382,4.2382,4.2382,4.2382,4.2382,4.2401,4.2421,4.2421,4.244,4.246,4.0356,4.0012,3.9808,4.2281,4.2985,4.2836,4.2011,4.2882,4.3547,4.2269,4.3149,4.4116,0.0,0.0,0.0,4.6064,4.6472,0.0,4.8615,4.8516,0.0,4.8861,0.0,5.0697,5.1245,5.2122,0.0,0.0,5.3998,5.3056,5.3442,5.4941,5.5792,5.5792,5.5792,5.5792,5.5792,5.5792,5.5792,5.5792,5.4193,5.3466,5.3429,5.1906,5.1162,5.1124,5.0589,5.0337,5.0298,4.9798,4.8596,4.7124,4.669,4.5551,4.4094,4.3584,4.3379,4.3461,4.3972,4.3395,4.2382,4.2382,4.2382,4.2382,4.2382,4.2382,4.2382,4.2382,4.2382,4.2382,4.2382,4.2382,4.2382,4.2382,4.2382,4.2382,4.2382,4.2382,4.2382,4.2382,4.2382,4.2382,4.2382,4.2382,4.2382,4.2382,4.2382,4.2683,4.3493,4.357,4.357,4.357,4.357,4.3434,4.3002,4.2982,4.2843,4.2422,4.2382,4.2382,4.2382,4.2382,4.2382,4.2382,4.2382,4.2382,4.2382,4.2754,4.291,4.291,4.3223,4.3379,3.9441,3.9108,3.8991,4.0528,4.108,4.1032,4.0274,4.0921,4.1382,4.0336,4.0957,0.0,4.17,4.2906,0.0,0.0,0.0,0.0,4.7455,4.7182,4.7225,0.0,4.9154,0.0,4.9869,5.032,5.073,0.0,5.2882,5.4143,5.4436,5.5545,5.6219,5.6219,5.6219,5.6219,5.6219,5.5473,5.5125,5.5087,5.3188,5.2318,5.2279,5.1108,5.0557,5.0518,0.0,4.9166,4.9086,4.8183,4.7109,4.6003,4.6064,4.534,4.4277,4.4277,4.4277,4.4277,4.4277,4.3965,4.3455,4.3065,4.2988,4.2988,4.2988,4.2988,4.2988,4.2988,4.2988,4.2988,4.2988,4.2988,4.2988,4.2988,4.2988,4.2988,4.2988,4.2988,4.2988,4.2988,4.2988,4.2988,4.2988,4.2988,4.2988,4.2988,4.2988,4.2988,4.2988,4.2656,4.2382,4.2382,4.2382,4.246,4.2695,4.2715,4.2793,4.2969,4.2988,4.2988,4.2988,4.2988,4.2988,4.2988,4.2988,4.2988,4.2988,4.3223,4.3457,4.3672,4.3906,4.4101,3.7297,3.7363,3.7894,3.7988,3.8301,3.8611,3.8611,3.8611,3.8611,3.8611,0.0,3.8611,3.8611,4.0691,4.2402,4.2402,0.0,4.4538,4.6689,4.6006,4.6046,4.815,4.8889,4.8644,4.7031,4.7289,4.6948,4.5437,5.1684,5.5559,5.5559,5.5559,5.5522,5.5522,5.5522,5.5522,5.5522,5.4109,5.3379,5.3379,5.1679,5.0902,5.0862,5.0579,5.0458,5.0377,0.0,0.0,4.7548,4.5743,4.4977,4.4977,4.4977,4.4977,4.4977,4.4977,4.4977,4.4977,4.4977,4.4977,4.4902,4.4121,4.3887,4.3887,4.3887,4.3887,4.3867,4.3808,4.3789,4.3789,4.373,4.3711,4.3711,4.3711,4.3711,4.3711,4.3711,4.3711,4.3711,4.3711,4.3711,4.3711,4.3711,4.3711,4.3711,4.3711,4.3711,4.3711,4.3711,4.3047,4.2557,4.2557,4.2557,4.2754,4.3166,4.3164,4.332,4.3691,4.3711,4.373,4.3789,4.3789,4.3828,4.3867,4.3887,4.3887,4.3887,4.3887,4.4082,4.4492,4.4492,4.4687,3.7995,3.7777,3.7972,3.8379,3.8552,3.8611,3.8611,3.8611,0.0,0.0,3.8611,3.8611,3.8611,3.9574,4.0389,4.0389,4.1418,4.2466,4.32,4.346,4.3816,0.0,0.0,0.0,0.0,0.0,0.0,0.0,0.0,5.2149,5.2228,5.2188,5.2149,5.2149,5.2149,5.2149,5.2149,5.1843,5.173,5.169,4.9643,4.8684,4.8602,4.688,4.6081,4.6081,0.0,0.0,4.5509,4.5147,4.4977,4.4977,4.4977,4.4977,4.4977,4.4977,4.4977,4.4977,4.4977,4.4977,4.4957,4.4801,4.4743,4.4743,4.4743,4.4743,4.4726,4.4375,4.4277,4.4199,4.3808,4.3711,4.3711,4.3711,4.3711,4.3711,4.3711,4.3711,4.3711,4.3711,4.3711,4.3711,4.3711,4.3711,4.3711,4.3711,4.3711,4.3711,4.3711,4.3574,4.3476,4.3476,4.3476,4.3516,4.3594,4.3594,4.3633,4.3691,4.3711,4.3867,4.4258,4.4277,4.4433,4.4785,4.4743,4.4743,4.4743,4.4743,4.4844,4.4922,4.4922,4.4918,3.8425,3.8086,3.832,3.8552,3.8611,3.8611,3.8611,0.0,0.0,0.0,3.8611,3.8611,3.8611,3.9297,3.9902,3.9902,4.0976,4.1953,4.2323,4.2793,4.3671,4.5149,4.4747,0.0,0.0,0.0,0.0,0.0,0.0,4.9483,5.1246,5.1345,5.1304,5.1304,5.1304,5.1304,5.1304,5.0415,4.9972,4.9994,4.8063,4.7147,4.7105,4.6138,4.5683,4.5683,4.5683,0.0,4.5683,4.5683,4.5683,4.5683,4.5683,4.5683,4.5683,4.5683,4.5683,4.5683,4.5683,4.5683,4.5683,4.5683,4.5391,4.4977,4.4977,4.4977,4.4938,4.4785,4.4726,4.4668,4.4453,4.4394,4.4394,4.4394,4.4394,4.4394,4.4394,4.4394,4.4394,4.4394,4.4394,4.4394,4.4394,4.4394,4.4394,4.4394,4.4394,4.4394,4.4394,4.4394,4.4316,4.4082,4.4258,4.4394,4.4394,4.4394,4.4394,4.4394,4.4394,4.4492,4.4707,4.4726,4.4824,4.5019,4.4977,4.4977,4.4977,4.4977,4.5137,4.5371,4.5371,4.5488,3.8746,3.832,3.8611,3.8611,3.8611,3.8611,3.8611,3.8611,0.0,3.8611,3.8611,3.8611,3.8611,3.9297,3.9902,3.9902,4.1035,4.2051,4.2343,4.2871,4.3993,0.0,4.5259,0.0,0.0,0.0,0.0,0.0,0.0,0.0,5.0074,5.0684,5.0725,5.0235,5.0235,5.0235,5.0235,4.8944,4.8269,4.8269,4.6918,4.6308,4.6308,4.6308,4.6308,4.6308,4.6308,0.0,0.0,4.6308,4.6308,4.6308,4.6308,4.6308,4.6308,4.6308,4.6308,4.6308,4.6308,4.6308,4.6308,4.6308,4.5859,4.5293,4.5293,4.5293,4.5273,4.5195,4.5176,4.5137,4.5058,4.4977,4.4977,4.4977,4.4977,4.4977,4.4977,4.4977,4.4977,4.4977,4.4977,4.4977,4.4977,4.4977,4.4977,4.4977,4.4977,4.4977,4.4977,4.5117,4.5039,4.4707,4.4883,4.4977,4.4977,4.4977,4.4977,4.4977,4.4977,4.5058,4.5156,4.5176,4.5215,4.5293,4.5293,4.5293,4.5293,4.5293,4.5469,4.582,4.582,4.5996,3.8838,3.8591,3.8611,3.8611,3.8611,3.8611,3.8611,0.0,3.8611,3.8611,3.8611,3.8611,3.8611,3.9297,3.9902,3.9902,4.1289,4.2343,4.2382,4.3125,4.3891,4.4528,0.0,0.0,0.0,0.0,0.0,0.0,0.0,0.0,4.6738,4.8661,4.8831,4.6805,4.6761,4.6761,4.6761,4.6603,4.6536,4.6536,4.6357,4.6308,4.6308,4.6308,4.6308,4.6308,0.0,0.0,0.0,4.6308,4.6308,4.6308,4.6308,4.6308,4.6308,4.6308,4.6308,4.6308,4.6308,4.6308,4.6308,4.6308,4.625,4.6191,4.6191,4.6191,4.6113,4.5723,4.5668,4.5527,4.5117,4.4977,4.4977,4.4977,4.4977,4.4977,4.4977,4.4977,4.4977,4.4977,4.4977,4.4977,4.4977,4.4977,4.4977,4.4977,4.4977,4.4977,4.4977,4.5371,4.5605,4.5566,4.5234,4.4977,4.4977,4.4977,4.4977,4.4977,4.4977,4.5195,4.5605,4.5668,4.5801,4.6172,4.6191,4.6191,4.6191,4.6191,4.6211,4.625,4.625,4.6269,3.9417,3.9405,3.9962,3.8846,3.8611,3.8611,3.8611,0.0,3.8611,3.8611,3.8611,3.8611,3.8611,3.9297,3.9902,3.9902,4.1328,4.2382,4.2382,4.3164,4.3867,4.4336,4.4766,0.0,0.0,0.0,0.0,0.0,0.0,0.0,4.6308,4.7141,4.7228,4.6352,4.6308,4.6308,4.6308,4.6308,4.6308,4.6308,4.6308,4.6308,4.6308,4.6308,4.6308,4.6308,0.0,0.0,0.0,4.6308,4.6308,4.6308,4.6308,4.6308,4.6308,4.6308,4.6308,4.6308,4.6308,4.6308,4.6308,4.6308,4.6308,4.6308,4.6308,4.6308,4.6269,4.6094,4.6055,4.6016,4.584,4.5801,4.5801,4.5801,4.5801,4.5801,4.5801,4.5801,4.5801,4.5801,4.5801,4.5801,4.5801,4.5801,4.5801,4.5801,4.5801,4.5801,4.5801,4.5937,4.6055,4.6055,4.5898,4.5801,4.5801,4.5801,4.5801,4.5801,4.5801,4.5879,4.6055,4.6055,4.6133,4.6289,4.6308,4.6308,4.6308,4.6308,4.6308,4.6308,4.6308,4.6308,4.048,4.0336,4.085,3.9063,3.8611,3.8611,0.0,0.0,3.9261,3.872,3.9027,3.9405,3.9405,3.9685,4.0071,4.0594,4.164,4.2382,4.2382,4.3164,4.3926,4.4512,0.0,0.0,0.0,0.0,0.0,0.0,0.0,0.0,0.0,4.6308,4.6308,4.6308,4.6308,4.6308,4.6308,4.6308,4.6308,4.6308,4.6308,4.6308,4.6308,4.6308,4.6308,4.6308,0.0,0.0,0.0,4.6308,4.6308,4.6308,4.6308,4.6308,4.6308,4.6308,4.6308,4.6308,4.6308,4.6308,4.6308,4.6308,4.6308,4.6308,4.6308,4.6308,4.6308,4.6308,4.6308,4.6308,4.6308,4.6308,4.6308,4.6308,4.6308,4.6308,4.6308,4.6308,4.6308,4.6308,4.6308,4.6308,4.6308,4.6308,4.6308,4.6308,4.6308,4.6308,4.6308,4.6308,4.6308,4.6308,4.6308,4.6308,4.6308,4.6308,4.6308,4.6308,4.6308,4.6308,4.6308,4.6308,4.6308,4.6308,4.6308,4.6308,4.6308,4.6308,4.6308,4.6308,4.6308,4.6367,4.1984,4.129,4.085,3.9063,3.8611,3.8611,3.8611,3.9998,4.0743,3.8955,4.0033,4.1255,4.1255,4.0528,4.0502,4.2292,4.2491,4.2382,4.2382,4.3164,4.4023,0.0,0.0,0.0,0.0,0.0,0.0,0.0,0.0,0.0,0.0,4.6308,4.6308,4.6308,4.6308,4.6308,4.6308,4.6308,4.6308,4.6308,4.6308,4.6308,4.6308,4.6308,4.6308,0.0,0.0,0.0,0.0,4.6308,4.6308,4.6308,4.6308,4.6308,4.6308,4.6308,4.6308,4.6308,4.6308,4.6308,4.6308,4.6308,4.6308,4.6308,4.6308,4.6308,4.6308,4.6308,4.6308,4.6308,4.6308,4.6308,4.6308,4.6308,4.6308,4.6308,4.6308,4.6308,4.6308,4.6308,4.6308,4.6308,4.6308,4.6308,4.6308,4.6308,4.6308,4.6308,4.6308,4.6308,4.6308,4.6308,4.6308,4.6308,4.6308,4.6308,4.6308,4.6308,4.6308,4.6308,4.6308,4.6308,4.6308,4.6308,4.6308,4.6308,4.6308,4.6308,4.6308,4.6308,4.6308,4.6523,4.4017,4.4105,4.4311,4.122,4.0443,4.0121,3.8882,3.9027,3.9297,3.872,3.9063,3.9522,3.9821,3.9882,4.0169,4.103,4.1876,4.2382,4.2382,4.3164,0.0,4.4879,4.5547,0.0,0.0,0.0,0.0,0.0,0.0,0.0,0.0,4.6308,4.6308,4.6308,4.6308,4.6308,4.6308,4.6308,4.6308,4.6308,4.6308,4.6308,4.6308,4.6308,0.0,0.0,0.0,0.0,0.0,4.6308,4.6308,4.6308,4.6308,4.6308,4.6308,4.6308,4.6484,4.6738,4.6738,4.6933,4.7168,4.7168,4.7168,4.7129,4.6816,4.6523,4.6308,4.6308,4.6308,4.6308,4.6308,4.6308,4.6308,4.6308,4.6308,4.6308,4.6308,4.6308,4.6308,4.6308,4.6308,4.6308,4.6308,4.6308,4.6308,4.6308,4.6308,4.6308,4.6308,4.6308,4.6308,4.6308,4.6308,4.6308,4.6308,4.6308,4.6308,4.6308,4.6308,4.6308,4.6308,4.6308,4.6308,4.6308,4.6308,4.6445,4.6738,4.6738,4.6875,4.7168,4.7168,4.7246,4.5859,4.5929,4.5906,4.222,4.129,0.0,3.989,3.9602,3.9602,3.9602,3.9602,3.9742,4.0184,4.0035,4.0246,4.1399,4.2033,4.2382,4.2382,0.0,0.0,4.4879,0.0,0.0,0.0,0.0,0.0,0.0,0.0,0.0,0.0,4.6543,4.6621,4.6777,4.6621,4.6621,4.6777,4.6777,4.6777,4.6777,4.6777,4.6777,4.6777,4.6777,0.0,0.0,0.0,0.0,0.0,4.6777,4.6777,4.6777,4.6777,4.6777,4.6777,4.6777,4.6953,4.7168,4.7168,4.7363,4.7578,4.7578,4.7578,4.7519,4.7246,4.6777,4.6308,4.6308,4.6308,4.6308,4.6308,4.6308,4.6308,4.6308,4.6308,4.6308,4.6308,4.6308,4.6308,4.6308,4.6308,4.6308,4.6308,4.6308,4.6308,4.6308,4.6308,4.6308,4.6308,4.6308,4.6308,4.6308,4.6308,4.6308,4.6308,4.6308,4.6308,4.6308,4.6308,4.6308,4.6308,4.6465,4.6543,4.6543,4.6699,4.6914,4.7168,4.7168,4.7305,4.7578,4.7578,4.7656,0.0,4.7022,4.613,4.243,4.1608,4.1608,4.1184,4.1205,0.0,4.1134,4.112,4.1286,4.1745,4.0817,4.0662,4.2849,4.2735,4.2401,0.0,4.3242,0.0,0.0,0.0,0.0,0.0,0.0,0.0,0.0,0.0,0.0,0.0,4.6928,4.7168,4.7617,4.7226,4.7207,4.7623,4.7578,4.7578,4.7578,4.7578,4.7578,4.7578,4.7578,0.0,0.0,0.0,0.0,0.0,4.7578,4.7578,4.7578,4.7578,4.7578,4.7578,4.7578,4.7598,4.7617,4.7617,4.7637,4.7676,4.7676,4.7656,4.7617,4.7617,4.7051,4.6387,4.6387,4.6387,4.6387,4.6387,4.6387,4.6387,4.6387,4.6387,4.6387,4.6348,4.6348,4.6328,4.6308,4.6328,4.6348,4.6348,4.6367,4.6387,4.6387,4.6387,4.6387,4.6387,4.6387,4.6387,4.6387,4.6387,4.6387,4.6387,4.6367,4.6348,4.6348,4.6367,4.6387,4.6387,4.6758,4.6928,4.6928,4.7402,4.7617,4.7617,4.7701,4.7676,4.7676,4.7676,4.7871,4.908,0.0,4.806,4.4368,4.4505,4.4414,0.0,4.03,4.0921,3.9514,3.9483,3.9824,4.0301,4.0381,4.0759,4.1971,4.2289,4.2539,4.2871,0.0,0.0,4.5449,0.0,0.0,0.0,0.0,0.0,0.0,0.0,0.0,0.0,4.7422,4.7617,4.8047,4.7949,4.7812,4.7578,4.7578,4.7578,4.7578,4.7578,4.7578,4.7578,4.7578,0.0,0.0,0.0,0.0,4.7578,4.7578,4.7578,4.7578,4.7578,4.7578,4.7578,4.7578,4.7793,4.8066,4.8066,4.8281,4.86,4.86,4.834,4.8066,4.8066,4.7695,4.7285,4.7285,4.7285,4.7285,4.7285,4.7285,4.7285,4.7285,4.7285,4.7187,4.6855,4.6777,4.668,4.6367,4.6562,4.6777,4.6777,4.7051,4.7285,4.7285,4.7285,4.7285,4.7285,4.7285,4.7285,4.7285,4.7285,4.7285,4.7285,4.6973,4.6777,4.6777,4.709,4.7285,4.7285,4.7383,4.7422,4.7422,4.7851,4.8066,4.8066,4.8444,4.86,4.86,4.86,4.8659,4.959,4.959,4.8893,4.603,4.6063,4.6006,4.3035,4.1799,4.1503,4.222,4.0683,3.9596,4.0904,4.0801,4.0801,4.166,4.2148,0.0,0.0,0.0,4.541,4.5688,0.0,0.0,0.0,0.0,0.0,0.0,0.0,0.0,0.0,4.7871,4.8066,4.8496,4.8496,4.8444,4.8209,4.8209,4.8209,4.8209,4.8209,4.8209,4.8209,4.8209,0.0,0.0,0.0,0.0,4.8209,4.8209,4.8209,4.8209,4.8209,4.8209,4.8209,4.8209,4.8301,4.8496,4.8496,4.8718,4.8913,4.8913,4.8737,4.8496,4.8496,4.834,4.8131,4.7695,4.7578,4.7578,4.7578,4.7578,4.7578,4.7578,4.7578,4.7519,4.7285,4.7226,4.7168,4.6933,4.707,4.7226,4.7226,4.7422,4.7578,4.7578,4.7578,4.7578,4.7578,4.7578,4.7578,4.7578,4.7578,4.7578,4.7578,4.7539,4.7441,4.7246,4.7441,4.7578,4.7578,4.7773,4.7969,4.8209,4.8398,4.8496,4.8516,4.8796,4.8913,4.8913,4.8913,4.8913,4.959,4.959,4.9145,4.7254,4.7022,4.7022,4.6164,4.3968,4.2836,4.5153,4.2479,4.0247,4.1982,4.1412,4.0976,0.0,0.0,0.0,4.4336,4.5176,4.5703,4.5762,0.0,0.0,0.0,0.0,0.0,0.0,0.0,0.0,0.0,4.8301,4.8476,4.8894,4.8913,4.8913,4.8913,4.8913,4.8913,4.8913,4.8913,4.8913,4.8913,4.8913,4.8913,0.0,0.0,0.0,4.8913,4.8913,4.8913,4.8913,4.8913,4.8913,4.8913,4.8913,4.8913,4.8913,4.8913,4.8913,4.8913,4.8913,4.8913,4.8913,4.8913,4.8913,4.8757,4.8033,4.7773,4.7773,4.7773,4.7773,4.7773,4.7773,4.7773,4.7754,4.7695,4.7676,4.7656,4.7598,4.7637,4.7676,4.7676,4.7734,4.7773,4.7773,4.7773,4.7773,4.7773,4.7773,4.7773,4.7773,4.7773,4.7773,4.7773,4.8105,4.8144,4.7793,4.7773,4.7773,4.7773,4.8125,4.8476,4.8894,4.8913,4.8913,4.8913,4.8913,4.8913,4.8913,4.8913,4.8913,4.959,4.959,4.9145,4.7254,4.7994,4.7929,4.3209,4.414,4.4903,4.1131,4.1273,4.1818,4.0996,4.1248,4.1758,0.0,0.0,4.4297,0.0,0.0,0.0,0.0,0.0,0.0,0.0,0.0,0.0,0.0,0.0,0.0,0.0,4.8796,4.8835,4.8913,4.8913,4.8913,4.8913,4.8913,4.8913,4.8913,4.8913,4.8913,4.8913,4.8913,4.8913,0.0,0.0,4.8913,4.8913,4.8913,4.8913,4.8913,4.8913,4.8913,4.8913,4.8913,4.8913,4.8913,4.8913,4.8913,4.8913,4.8913,4.8913,4.8913,4.8913,4.8913,4.8874,4.8737,4.8698,4.8698,4.8698,4.8698,4.8698,4.8698,4.8698,4.86,4.8183,4.8105,4.8008,4.7656,4.7871,4.8105,4.8105,4.8418,4.8698,4.8698,4.8698,4.8698,4.8698,4.8698,4.8698,4.8698,4.8698,4.8698,4.8698,4.8776,4.8776,4.8718,4.8698,4.8698,4.8698,4.8776,4.8835,4.8913,4.8913,4.8913,4.8913,4.8913,4.8913,4.8913,4.8913,4.8913,4.959,4.959,4.9145,4.7254,4.8191,4.8665,4.5095,4.4994,4.4992,4.2636,4.1821,4.1655,4.2214,4.2049,4.209,4.2969,0.0,4.4883,0.0,0.0,0.0,0.0,0.0,0.0,0.0,0.0,0.0,0.0,0.0,0.0,0.0,0.0,4.8913,4.8913,4.8913,4.8913,4.8913,4.8913,4.8913,4.8913,4.8913,4.8913,4.8913,4.8913,4.8913,4.8913,0.0,4.8913,4.8913,4.8913,4.8913,4.8913,4.8913,4.8913,4.8913,4.8913,4.8913,4.8913,4.8913,4.8913,4.8913,4.8913,4.8913,4.8913,4.8913,4.8913,4.8913,4.8913,4.8913,4.8913,4.8913,4.8913,4.8913,4.8913,4.8913,4.8855,4.8594,4.86,4.8496,4.8346,4.8464,4.86,4.86,4.8776,4.8913,4.8913,4.8913,4.8913,4.8913,4.8913,4.8913,4.8913,4.8913,4.8913,4.8913,4.8913,4.8913,4.8913,4.8913,4.8913,4.8913,4.8913,4.8913,4.8913,4.8913,4.8913,4.8913,4.8913,4.8913,4.8913,4.8913,4.8913,4.959,4.959,4.9242,4.7806,4.8542,4.891,4.6271,4.5508,4.504,4.3921,4.2435,4.172,4.3157,4.268,0.0,4.3672,4.4512,0.0,0.0,0.0,0.0,0.0,0.0,0.0,0.0,0.0,0.0,0.0,0.0,0.0,0.0,0.0,4.8913,4.8913,4.8913,4.8913,4.8913,4.8913,4.8913,4.8913,4.8913,4.8913,4.8913,4.8913,4.8913,4.8913,4.8913,4.8913,4.8913,4.8913,4.8913,4.8913,4.8913,4.8913,4.8913,4.8913,4.8913,4.8913,4.8913,4.8913,4.8913,4.8913,4.8913,4.8913,4.8913,4.8913,4.8913,4.8913,4.8913,4.8913,4.8913,4.8913,4.8913,4.8913,4.8913,4.8913,4.8913,4.8913,4.8913,4.8913,4.8913,4.8913,4.8913,4.8913,4.8913,4.8913,4.8913,4.8913,4.8913,4.8913,4.8913,4.8913,4.8913,4.8913,4.8913,4.8913,4.8913,4.8913,4.8913,4.8913,4.8913,4.8913,4.8913,4.8913,4.8913,4.8913,4.8913,4.8913,4.8913,4.8913,4.8913,4.8913,4.959,4.959,4.9558,4.9429,4.9493,4.8338,4.345,4.4915,4.6045,4.1704,4.2327,4.333,4.2171,4.2542,4.3281,4.4199,4.4726,0.0,0.0,0.0,0.0,0.0,0.0,0.0,0.0,0.0,0.0,0.0,0.0,0.0,0.0,0.0,0.0,4.8913,4.8913,4.8913,4.8913,4.8913,4.8913,4.8913,4.8913,4.8913,4.8913,4.8913,4.8913,4.8913,4.8913,4.8913,4.8913,4.8913,4.8913,4.8913,4.8913,4.8913,4.8913,4.8913,4.8913,4.8913,4.8913,4.8913,4.8913,4.8913,4.8913,4.8913,4.8913,4.8913,4.8913,4.8913,4.8913,4.8913,4.8913,4.8913,4.8913,4.8913,4.8913,4.8913,4.8913,4.8913,4.8913,4.8913,4.8913,4.8913,4.8913,4.8913,4.8913,4.8913,4.8913,4.8913,4.8913,4.8913,4.8913,4.8913,4.8913,4.8913,4.8913,4.8913,4.8913,4.8913,4.8913,4.8913,4.8913,4.8913,4.8913,4.8913,4.8913,4.8913,4.8913,4.8913,4.8913,4.8913,4.8913,4.8913,4.959,4.959,4.9407,4.8631,4.9257,4.8977,4.4683,4.5233,4.5953,4.3381,4.2699,0.0,0.0,0.0,4.4101,4.4687,4.5156,0.0,0.0,0.0,0.0,0.0,0.0,0.0,0.0,0.0,0.0,0.0,0.0,0.0,0.0,0.0,0.0,4.8913,4.8913,4.8913,4.8913,4.8913,4.8913,4.8913,4.8913,4.8913,4.8913,4.8913,4.8913,4.8913,4.8913,4.8913,4.8913,4.8913,4.8913,4.8913,4.8913,4.8913,4.8913,4.8913,4.8913,4.8913,4.8913,4.8913,4.8913,4.8913,4.8913,4.8913,4.8913,4.8913,4.8913,4.8913,4.8913,4.8913,4.8913,4.8913,4.8913,4.8913,4.8913,4.8913,4.8913,4.8913,4.8913,4.8913,4.8913,4.8913,4.8913,4.8913,4.8913,4.8913,4.8913,4.8913,4.8913,4.8913,4.8913,4.8913,4.8913,4.8913,4.8913,4.8913,4.8913,4.8913,4.8913,4.8913,4.8913,4.8913,4.8913,4.8913,4.8913,4.8913,4.8913,4.8913,4.8913,4.8913,4.8913,4.8913,4.959,4.959,4.9269,4.7983,4.9178,4.959,4.5425,4.5971,4.667,4.4054,4.2818,4.2461,4.334,0.0,0.0,0.0,0.0,0.0,0.0,0.0,0.0,0.0,0.0,0.0,0.0,0.0,0.0,0.0,0.0,0.0,0.0,0.0,0.0,0.0,4.8913,4.8913,4.8913,4.8913,4.8913,4.8913,4.8913,4.8913,4.8913,4.8913,4.8913,4.8913,4.8913,4.8913,4.8913,4.8913,4.8913,4.8913,4.8913,4.8913,4.8913,4.8913,4.8913,4.8913,4.8913,4.8913,4.8913,4.8913,4.8913,4.8913,4.8913,4.8913,4.8913,4.8913,4.8913,4.8913,4.8913,4.8913,4.8913,4.8913,4.8913,4.8913,4.8913,4.8913,4.8913,4.8913,4.8913,4.8913,4.8913,4.8913,4.8913,4.8913,4.8913,4.8913,4.8913,4.8913,4.8913,4.8913,4.8913,4.8913,4.8913,4.8913,4.8913,4.8913,4.8913,4.8913,4.8913,4.8913,4.8913,4.8913,4.8913,4.8913,4.8913,4.8913,4.8913,4.8913,4.8913,4.8913,4.959,4.959,4.9262,4.7873,4.9429,4.9986,4.5045,4.7088,4.8427,4.2952,4.254,4.34,4.4238,4.4394,0.0,0.0,0.0,0.0,0.0,0.0,0.0,0.0,0.0,0.0,0.0,0.0,0.0,0.0,0.0,0.0,0.0,0.0,0.0,0.0,4.8913,4.8913,4.8913,4.8913,4.8913,4.8913,4.8913,4.8913,4.8913,4.8913,4.8913,4.8913,4.8913,4.8913,4.8913,4.8913,4.8913,4.8913,4.8913,4.8913,4.8913,4.8913,4.8913,4.8913,4.8913,4.8913,4.8913,4.8913,4.8913,4.8913,4.8913,4.8913,4.8913,4.8913,4.8913,4.8913,4.8913,4.8913,4.8913,4.8913,4.8913,4.8913,4.8913,4.8913,4.8913,4.8913,4.8913,4.8913,4.8913,4.8913,4.8913,4.8913,4.8913,4.8913,4.8913,4.8913,4.8913,4.8913,4.8913,4.8913,4.8913,4.8913,4.8913,4.8913,4.8913,4.8913,4.8913,4.8913,4.8913,4.8913,4.8913,4.8913,4.8913,4.8913,4.8913,4.8913,4.8913,4.8913,4.959,4.8895,4.8433,4.9823,4.9966,4.9189,4.7047,4.7529,4.7305,4.35,4.4361,4.5495,4.457,0.0,0.0,0.0,0.0,0.0,0.0,0.0,0.0,0.0,0.0,0.0,0.0,0.0,0.0,0.0,0.0,0.0,0.0,0.0,0.0,0.0,4.8913,4.8913,4.8913,4.8913,4.8913,4.8913,4.8913,4.8913,4.8913,4.8913,4.8913,4.8913,4.8913,4.8913,4.8913,4.8913,4.8913,4.8913,4.8913,4.8913,4.8913,4.8913,4.8913,4.8913,4.8913,4.8913,4.8913,4.8913,4.8913,4.8913,4.8913,4.8913,4.8913,4.8913,4.8913,4.8913,4.8913,4.8913,4.8913,4.8913,4.8913,4.8913,4.8913,4.8913,4.8913,4.8913,4.8913,4.8913,4.8913,4.8913,4.8913,4.8913,4.8913,4.8913,4.8913,4.8913,4.8913,4.8913,4.8913,4.8913,4.8913,4.8913,4.8913,4.8913,4.8913,4.8913,4.8913,4.8913,4.8913,4.8913,4.8913,4.8913,4.8913,4.8913,4.8913,4.8913,4.8913,4.8913,4.9646,4.8778,4.7855,4.8971,4.9314,4.8953,4.7368,4.6433,4.5622,4.4744,4.5271,4.5655,4.4803,4.5,0.0,0.0,0.0,0.0,0.0,0.0,0.0,0.0,0.0,0.0,0.0,0.0,0.0,0.0,0.0,0.0,0.0,0.0,0.0,0.0,4.8913,4.8913,4.8913,4.8913,4.8913,4.8913,4.8913,4.8913,4.8913,4.8913,4.8913,4.8913,4.8913,4.8913,4.8913,4.8913,4.8913,4.8913,4.8913,4.8913,4.8913,4.8913,4.8913,4.8913,4.8913,4.8913,4.8913,4.8913,4.8913,4.8913,4.8913,4.8913,4.8913,4.8913,4.8913,4.8913,4.8913,4.8913,4.8913,4.8913,4.8913,4.8913,4.8913,4.8913,4.8913,4.8913,4.8913,4.8913,4.8913,4.8913,4.8913,4.8913,4.8913,4.8913,4.8913,4.8913,4.8913,4.8913,4.8913,4.8913,4.8913,4.8913,4.8913,4.8913,4.8913,4.8913,4.8913,4.8913,4.8913,4.8913,4.8913,4.8913,4.8913,4.8913,4.8913,4.8913,4.8913,4.8913,4.9817,4.898,4.7359,4.6706,4.8144,4.9097,4.6564,4.4683,4.4096,4.6183,0.0,4.4551,4.5,4.541,0.0,0.0,0.0,0.0,0.0,0.0,0.0,0.0,0.0,0.0,0.0,0.0,0.0,0.0,0.0,0.0,0.0,0.0,0.0,4.8913,4.8913,4.8913,4.8913,4.8913,4.8913,0.0,4.8913,4.8913,4.8913,4.8913,4.8913,4.8913,4.8913,4.8913,4.8913,4.8913,4.8913,4.8913,4.8913,4.8913,4.8913,4.8913,4.8913,4.8913,4.8913,4.8913,4.8913,4.8913,4.8913,4.8913,4.8913,4.8913,4.8913,4.8913,4.8913,4.8913,4.8913,4.8913,4.8913,4.8913,4.8913,4.8913,4.8913,4.8913,4.8913,4.8913,4.8913,4.8913,4.8913,4.8913,4.8913,4.8913,4.8913,4.8913,4.8913,4.8913,4.8913,4.8913,4.8913,4.8913,4.8913,4.8913,4.8913,4.8913,4.8913,4.8913,4.8913,4.8913,4.8913,4.8913,4.8913,4.8913,4.8913,4.8913,4.8913,4.8913,4.8913,4.8913,5.0137,4.8212,4.6383,4.8518,4.9167,4.8691,4.6484,4.628,4.6229,4.5136,4.4651,4.4629,4.5391,0.0,0.0,0.0,0.0,0.0,0.0,0.0,0.0,0.0,0.0,0.0,0.0,0.0,0.0,0.0,0.0,0.0,0.0,0.0,0.0,4.8913,4.8913,4.8913,4.8913,4.8913,4.8913,0.0,4.8913,4.8913,4.8913,4.8913,4.8913,4.8913,4.8913,4.8913,4.8913,4.8913,4.8913,4.8913,4.8913,4.8913,4.8913,4.8913,4.8913,4.8913,4.8913,4.8913,4.8913,4.8913,4.8913,4.8913,4.8913,4.8913,4.8913,4.8913,4.8913,4.8913,4.8913,4.8913,4.8913,4.8913,4.8913,4.8913,4.8913,4.8913,4.8913,4.8913,4.8913,4.8913,4.8913,4.8913,4.8913,4.8913,4.8913,4.8913,4.8913,4.8913,4.8913,4.8913,4.8913,4.8913,4.8913,4.8913,4.8913,4.8913,4.8913,4.8913,4.8913,4.8913,4.8913,4.8913,4.8913,4.8913,4.8913,4.8913,4.8913,4.8913,4.8913,4.8913,5.0439,4.9101,4.7793,5.0007,4.8372,4.6256,4.6367,4.6187,4.5771,4.4859,4.4863,4.5156,4.5629,0.0,0.0,0.0,0.0,0.0,0.0,0.0,0.0,0.0,0.0,0.0,0.0,0.0,0.0,0.0,0.0,0.0,0.0,4.8913,4.8913,4.8913,4.8913,4.8913,4.8913,4.8913,4.8913,4.8913,4.8913,4.8913,4.8913,4.8913,4.8913,4.8913,4.8913,4.8913,4.8913,4.8913,4.8913,4.8913,4.8913,4.8913,4.8913,4.8913,4.8913,4.8913,4.8913,4.8913,4.8913,4.8913,4.8913,4.8913,4.8913,4.8913,4.8913,4.8913,4.8913,4.8913,4.8913,4.8913,4.8913,4.8913,4.8913,4.8913,4.8913,4.8913,4.8913,4.8913,4.8913,4.8913,4.8913,4.8913,4.8913,4.8913,4.8913,4.8913,4.8913,4.8913,4.8913,4.8913,4.8913,4.8913,4.8913,4.8913,4.8913,4.8913,4.8913,4.8913,4.8913,4.8913,4.8913,4.8913,4.8913,4.8913,4.8913,4.8913,4.8913,4.8913,4.8913,4.8913,5.073,5.0509,4.9783,5.0297,4.732,4.4745,4.6526,4.5922,4.5072,4.5081,4.543,4.5703,4.5781,0.0,0.0,0.0,0.0,0.0,0.0,0.0,0.0,0.0,0.0,0.0,0.0,0.0,0.0,0.0,0.0,0.0,4.8913,4.8913,4.8913,4.8913,4.8913,4.8913,4.8913,4.8913,4.8913,4.8913,4.8913,4.8913,4.8913,4.8913,4.8913,4.8913,4.8913,4.8913,4.8913,4.8913,4.8913,4.8913,4.8913,4.8913,4.8913,4.8913,4.8913,4.8913,4.8913,4.8913,4.8913,4.8913,4.8913,4.8913,4.8913,4.8913,4.8913,4.8913,4.8913,4.8913,4.8913,4.8913,4.8913,4.8913,4.8913,4.8913,4.8913,4.8913,4.8913,4.8913,4.8913,4.8913,4.8913,4.8913,4.8913,4.8913,4.8913,4.8913,4.8913,4.8913,4.8913,4.8913,4.8913,4.8913,4.8913,4.8913,4.8913,4.8913,4.8913,4.8913,4.8913,4.8913,4.8913,4.8913,4.8913,4.8913,4.8913,4.8913,4.8913,4.8913,4.8913,4.8913,5.1088,5.1213,5.0343,4.7171,4.7735,4.8776,4.7673,4.7504,4.7235,4.5874,4.5688,4.5781,4.6152,0.0,0.0,0.0,0.0,0.0,0.0,0.0,0.0,0.0,0.0,0.0,0.0,0.0,0.0,0.0,0.0,0.0,4.8913,4.8913,4.8913,4.8913,4.8913,4.8913,4.8913,4.8913,4.8913,4.8913,4.8913,4.8913,4.8913,4.8913,4.8913,4.8913,4.8913,4.8913,4.8913,4.8913,4.8913,4.8913,4.8913,4.8913,4.8913,4.8913,4.8913,4.8913,4.8913,4.8913,4.8913,4.8913,4.8913,4.8913,4.8913,4.8913,4.8913,4.8913,4.8913,4.8913,4.8913,4.8913,4.8913,4.8913,4.8913,4.8913,4.8913,4.8913,4.8913,4.8913,4.8913,4.8913,4.8913,4.8913,4.8913,4.8913,4.8913,4.8913,4.8913,4.8913,4.8913,4.8913,4.8913,4.8913,4.8913,4.8913,4.8913,4.8913,4.8913,4.8913,4.8913,4.8913,4.8913,4.8913,4.8913,4.8913,4.8913,4.8913,4.8913,4.8913,4.8913,4.8913,5.0617,5.096,5.103,4.9373,4.8593,4.8389,4.9065,4.7752,4.6243,4.5781,4.5859,4.6094,4.6269,0.0,0.0,0.0,0.0,0.0,0.0,0.0,0.0,0.0,0.0,0.0,0.0,0.0,0.0,0.0,4.8913,4.8913,4.8913,4.8913,4.8913,4.8913,4.8913,4.8913,4.8913,4.8913,4.8913,4.8913,4.8913,4.8913,4.8913,4.8913,4.8913,4.8913,4.8913,4.8913,4.8913,4.8913,4.8913,4.8913,4.8913,4.8913,4.8913,4.8913,4.8913,4.8913,4.8913,4.8913,4.8913,4.8913,4.8913,4.8913,4.8913,4.8913,4.8913,4.8913,4.8913,4.8913,4.8913,4.8913,4.8913,4.8913,4.8913,4.8913,4.8913,4.8913,4.8913,4.8913,4.8913,4.8913,4.8913,4.8913,4.8913,4.8913,4.8913,4.8913,4.8913,4.8913,4.8913,4.8913,4.8913,4.8913,4.8913,4.8913,4.8913,4.8913,4.8913,4.8913,4.8913,4.8913,4.8913,4.8913,4.8913,4.8913,4.8913,4.8913,4.8913,4.8913,4.8913,4.8913,5.0444,5.1202,5.2163,5.1881,4.9682,4.8193,5.0295,4.7794,4.5176,0.0,4.6094,4.6308,4.6308,0.0,0.0,0.0,0.0,0.0,0.0,0.0,0.0,0.0,0.0,0.0,0.0,0.0,0.0,0.0,4.8913,4.8913,4.8913,4.8913,4.8913,4.8913,4.8913,4.8913,4.8913,4.8913,4.8913,4.8913,4.8913,4.8913,4.8913,4.8913,4.8913,4.8913,4.8913,4.8913,4.8913,4.8913,4.8913,4.8913,4.8913,4.8913,4.8913,4.8913,4.8913,4.8913,4.8913,4.8913,4.8913,4.8913,4.8913,4.8913,4.8913,4.8913,4.8913,4.8913,4.8913,4.8913,4.8913,4.8913,4.8913,4.8913,4.8913,4.8913,4.8913,4.8913,4.8913,4.8913,4.8913,4.8913,4.8913,4.8913,4.8913,4.8913,4.8913,4.8913,4.8913,4.8913,4.8913,4.8913,4.8913,4.8913,4.8913,4.8913,4.8913,4.8913,4.8913,4.8913,4.8913,4.8913,4.8913,4.8913,4.8913,4.8913,4.8913,4.8913,4.8913,4.8913,4.8913,4.8913,5.0997,5.2581,5.4127,5.2788,5.1124,5.0076,5.1036,4.8024,4.5211,4.6094,4.6289,4.6308,4.6308,0.0,0.0,0.0,0.0,0.0,0.0,0.0,0.0,0.0,0.0,0.0,0.0,0.0,0.0,0.0,4.8913,4.8913,4.8913,4.8913,4.8913,4.8913,4.8913,4.8913,4.8913,4.8913,4.8913,4.8913,4.8913,4.8913,4.8913,4.8913,4.8913,4.8913,4.8913,4.8913,4.8913,4.8913,4.8913,4.8913,4.8913,4.8913,4.8913,4.8913,4.8913,4.8913,4.8913,4.8913,4.8913,4.8913,4.8913,4.8913,4.8913,4.8913,4.8913,4.8913,4.8913,4.8913,4.8913,4.8913,4.8913,4.8913,4.8913,4.8913,4.8913,4.8913,4.8913,4.8913,4.8913,4.8913,4.8913,4.8913,4.8913,4.8913,4.8913,4.8913,4.8913,4.8913,4.8913,4.8913,4.8913,4.8913,4.8913,4.8913,4.8913,4.8913,4.8913,4.8913,4.8913,4.8913,4.8913,4.8913,4.8913,4.8913,4.8913,4.8913,4.8913,4.8913,4.8913,4.8913,5.1117,5.2677,5.4234,5.2849,5.1261,5.0216,5.1121,4.8045,4.5273,4.6133,4.6308,4.6308,4.6308,4.6308,0.0,0.0,0.0,0.0,0.0,0.0,0.0,0.0,0.0,0.0,0.0,0.0,0.0,0.0,0.0,4.8913,4.8913,4.8913,4.8913,4.8913,4.8913,4.8913,4.8913,4.8913,4.8913,4.8913,4.8913,4.8913,4.8913,4.8913,4.8913,4.8913,4.8913,4.8913,4.8913,4.8913,4.8913,4.8913,4.8913,4.8913,4.8913,4.8913,4.8913,4.8913,4.8913,4.8913,4.8913,4.8913,4.8913,4.8913,4.8913,4.8913,4.8913,4.8913,4.8913,4.8913,4.8913,4.8913,4.8913,4.8913,4.8913,4.8913,4.8913,4.8913,4.8913,4.8913,4.8913,4.8913,4.8913,4.8913,4.8913,4.8913,4.8913,4.8913,4.8913,4.8913,4.8913,4.8913,4.8913,4.8913,4.8913,4.8913,4.8913,4.8913,4.8913,4.8913,4.8913,4.8913,4.8913,4.8913,4.8913,4.8913,4.8913,4.8913,4.8913,4.8913,4.8913,4.8913,5.1465,5.2946,5.4508,5.3077,5.1339,5.0059,5.0198,4.7527,4.5273,4.6133,4.6308,4.6308,4.6308,4.6308,4.6484,0.0,0.0,0.0,0.0,0.0,0.0,0.0,0.0,0.0,0.0,0.0,0.0,0.0,0.0,0.0,4.8913,4.8913,4.8913,4.8913,4.8913,4.8913,4.8913,4.8913,4.8913,4.8913,4.8913,4.8913,4.8913,4.8913,4.8913,4.8913,4.8913,4.8913,4.8913,4.8913,4.8913,4.8913,4.8913,4.8913,4.8913,4.8913,4.8913,4.8913,4.8913,4.8913,4.8913,4.8913,4.8913,4.8913,4.8913,4.8913,4.8913,4.8913,4.8913,4.8913,4.8913,4.8913,4.8913,4.8913,4.8913,4.8913,4.8913,4.8913,4.8913,4.8913,4.8913,4.8913,4.8913,4.8913,4.8913,4.8913,4.8913,4.8913,4.8913,4.8913,4.8913,4.8913,4.8913,4.8913,4.8913,4.8913,4.8913,4.8913,4.8913,4.8913,4.8913,4.8913,4.8913,4.8913,4.8913,4.8913,4.8913,4.8913,4.8913,4.8913,4.8913,4.8913,0.0,0.0,0.0,5.3469,5.1516,4.9587,4.839,4.6503,4.5273,4.6133,4.6308,4.6308,4.6308,4.6308,4.6582,0.0,0.0,0.0,0.0,0.0,0.0,0.0,0.0,0.0,0.0,0.0,0.0,0.0,4.8913,4.8913,4.8913,4.8913,4.8913,4.8913,4.8913,4.8913,4.8913,4.8913,4.8913,4.8913,4.8913,4.8913,4.8913,4.8913,4.8913,4.8913,4.8913,4.8913,4.8913,4.8913,4.8913,4.8913,4.8913,4.8913,4.8913,4.8913,4.8913,4.8913,4.8913,4.8913,4.8913,4.8913,4.8913,4.8913,4.8913,4.8913,4.8913,4.8913,4.8913,4.8913,4.8913,4.8913,4.8913,4.8913,4.8913,4.8913,4.8913,4.8913,4.8913,4.8913,4.8913,4.8913,4.8913,4.8913,4.8913,4.8913,4.8913,4.8913,4.8913,4.8913,4.8913,4.8913,4.8913,4.8913,4.8913,4.8913,4.8913,4.8913,4.8913,4.8913,4.8913,4.8913,4.8913,4.8913,4.8913,4.8913,4.8913,4.8913,4.8913,4.8913,4.8913,4.8913,5.2535,0.0,0.0,0.0,0.0,0.0,4.8062,4.6503,4.5273,4.6133,4.6308,4.6308,4.6308,4.6308,4.6582,4.7441,0.0,0.0,0.0,0.0,0.0,0.0,0.0,0.0,0.0,0.0,0.0,0.0,4.8913,4.8913,4.8913,4.8913,4.8913,4.8913,4.8913,4.8913,4.8913,4.8913,4.8913,4.8913,4.8913,4.8913,4.8913,4.8913,4.8913,4.8913,4.8913,4.8913,4.8913,4.8913,4.8913,4.8913,4.8913,4.8913,4.8913,4.8913,4.8913,4.8913,4.8913,4.8913,4.8913,4.8913,4.8913,4.8913,4.8913,4.8913,4.8913,4.8913,4.8913,4.8913,4.8913,4.8913,4.8913,4.8913,4.8913,4.8913,4.8913,4.8913,4.8913,4.8913,4.8913,4.8913,4.8913,4.8913,4.8913,4.8913,4.8913,4.8913,4.8913,4.8913,4.8913,4.8913,4.8913,4.8913,4.8913,4.8913,4.8913,4.8913,4.8913,4.8913,4.8913,4.8913,4.8913,4.8913,4.8913,4.8913,4.8913,4.8913,4.8913,4.8913,4.8913,4.8913,0.0,0.0,0.0,0.0,0.0,0.0,4.6822,4.587,4.5273,4.6133,4.6308,4.6308,4.6308,4.6308,4.6523,4.7207,4.7305,0.0,0.0,0.0,0.0,0.0,0.0,0.0,0.0,4.8913,4.8913,4.8913,4.8913,4.8913,4.8913,4.8913,4.8913,4.8913,4.8913,4.8913,4.8913,4.8913,4.8913,4.8913,4.8913,4.8913,4.8913,4.8913,4.8913,4.8913,4.8913,4.8913,4.8913,4.8913,4.8913,4.8913,4.8913,4.8913,4.8913,4.8913,4.8913,4.8913,4.8913,4.8913,4.8913,4.8913,4.8913,4.8913,4.8913,4.8913,4.8913,4.8913,4.8913,4.8913,4.8913,4.8913,4.8913,4.8913,4.8913,4.8913,4.8913,4.8913,4.8913,4.8913,4.8913,4.8913,4.8913,4.8913,4.8913,4.8913,4.8913,4.8913,4.8913,4.8913,4.8913,4.8913,4.8913,4.8913,4.8913,4.8913,4.8913,4.8913,4.8913,4.8913,4.8913,4.8913,4.8913,4.8913,4.8913,4.8913,4.8913,4.8913,4.8913,4.8913,4.8913,4.8913,0.0,0.0,0.0,0.0,0.0,0.0,4.5247,4.5058,4.5332,4.6133,4.6308,4.6308,4.6308,4.6308,4.6445,4.6811,4.6889,0.0,0.0,0.0,0.0,0.0,0.0,0.0,4.8913,4.8913,4.8913,4.8913,4.8913,4.8913,4.8913,4.8913,4.8913,4.8913,4.8913,4.8913,4.8913,4.8913,4.8913,4.8913,4.8913,4.8913,4.8913,4.8913,4.8913,4.8913,4.8913,4.8913,4.8913,4.8913,4.8913,4.8913,4.8913,4.8913,4.8913,4.8913,4.8913,4.8913,4.8913,4.8913,4.8913,4.8913,4.8913,4.8913,4.8913,4.8913,4.8913,4.8913,4.8913,4.8913,4.8913,4.8913,4.8913,4.8913,4.8913,4.8913,4.8913,4.8913,4.8913,4.8913,4.8913,4.8913,4.8913,4.8913,4.8913,4.8913,4.8913,4.8913,4.8913,4.8913,4.8913,4.8913,4.8913,4.8913,4.8913,4.8913,4.8913,4.8913,4.8913,4.8913,4.8913,4.8913,4.8913,4.8913,4.8913,4.8913,4.8913,4.8913,4.8913,4.8913,4.8913,4.8913,0.0,0.0,0.0,0.0,0.0,0.0,4.4987,4.5293,4.5703,4.6191,4.6308,4.6308,4.6308,4.6308,4.6445,4.6811,4.6889,4.7266,0.0,0.0,0.0,0.0,0.0,0.0,4.8913,4.8913,4.8913,4.8913,4.8913,4.8913,4.8913,4.8913,4.8913,4.8913,4.8913,4.8913,4.8913,4.8913,4.8913,4.8913,4.8913,4.8913,4.8913,4.8913,4.8913,4.8913,4.8913,4.8913,4.8913,4.8913,4.8913,4.8913,4.8913,4.8913,4.8913,4.8913,4.8913,4.8913,4.8913,4.8913,4.8913,4.8913,4.8913,4.8913,4.8913,4.8913,4.8913,4.8913,4.8913,4.8913,4.8913,4.8913,4.8913,4.8913,4.8913,4.8913,4.8913,4.8913,4.8913,4.8913,4.8913,4.8913,4.8913,4.8913,4.8913,4.8913,4.8913,4.8913,4.8913,4.8913,4.8913,4.8913,4.8913,4.8913,4.8913,4.8913,4.8913,4.8913,4.8913,4.8913,4.8913,4.8913,4.8913,4.8913,4.8913,4.8913,4.8913,4.8913,4.8913,4.8913,4.8913,4.8913,0.0,0.0,0.0,4.5595,0.0,0.0,0.0,4.5508,4.5801,4.6211,4.6308,4.6308,4.6308,4.6308,4.6367,4.6582,4.6621,4.6836,4.748,0.0,0.0,0.0,0.0,0.0,4.8913,4.8913,4.8913,4.8913,4.8913,4.8913,4.8913,4.8913,4.8913,4.8913,4.8913,4.8913,4.8913,4.8913,4.8913,4.8913,4.8913,4.8913,4.8913,4.8913,4.8913,4.8913,4.8913,4.8913,4.8913,4.8913,4.8913,4.8913,4.8913,4.8913,4.8913,4.8913,4.8913,4.8913,4.8913,4.8913,4.8913,4.8913,4.8913,4.8913,4.8913,4.8913,4.8913,4.8913,4.8913,4.8913,4.8913,4.8913,4.8913,4.8913,4.8913,4.8913,4.8913,4.8913,4.8913,4.8913,4.8913,4.8913,4.8913,4.8913,4.8913,4.8913,4.8913,4.8913,4.8913,4.8913,4.8913,4.8913,4.8913,4.8913,4.8913,4.8913,4.8913,4.8913,4.8913,4.8913,4.8913,4.8913,4.8913,4.8913,4.8913,4.8913,4.8913,4.8913,4.8913,4.8913,4.8913,4.8913,0.0,0.0,0.0,0.0,0.0,4.4824,0.0,0.0,0.0,4.623,4.6308,4.6308,4.6308,0.0,0.0,0.0,0.0,0.0,0.0,4.7363,0.0,0.0,0.0,0.0,0.0,4.8855,4.8913,4.8913,4.8913,4.8913,4.8913,4.8913,4.8913,4.8913,4.8913,4.8913,4.8913,4.8913,4.8913,4.8913,4.8913,4.8913,4.8913,4.8913,4.8913,4.8913,4.8913,4.8913,4.8913,4.8913,4.8913,4.8913,4.8913,4.8913,4.8913,4.8913,4.8913,4.8913,4.8913,4.8913,4.8913,4.8913,4.8913,4.8913,4.8913,4.8913,4.8913,4.8913,4.8913,4.8913,4.8913,4.8913,4.8913,4.8913,4.8913,4.8913,4.8913,4.8913,4.8913,4.8913,4.8913,4.8913,4.8913,4.8913,4.8913,4.8913,4.8913,4.8913,4.8913,4.8913,4.8913,4.8913,4.8913,4.8913,4.8913,4.8913,4.8913,4.8913,4.8913,4.8913,4.8913,4.8913,4.8913,4.8913,4.8913,4.8913,4.8913,4.8913,4.8913,4.8913,4.8913,4.8913,0.0,0.0,0.0,0.0,4.5254,0.0,0.0,0.0,4.625,4.6289,0.0,0.0,0.0,0.0,0.0,0.0,0.0,0.0,4.5309,4.6265,4.7207,0.0,0.0,0.0,0.0,4.8679,4.8913,4.8913,4.8913,4.8913,4.8913,4.8913,4.8913,4.8913,4.8913,4.8913,4.8913,4.8913,4.8913,4.8913,4.8913,4.8913,4.8913,4.8913,4.8913,4.8913,4.8913,4.8913,4.8913,4.8913,4.8913,4.8913,4.8913,4.8913,4.8913,4.8913,4.8913,4.8913,4.8913,4.8913,4.8913,4.8913,4.8913,4.8913,4.8913,4.8913,4.8913,4.8913,4.8913,4.8913,4.8913,4.8913,4.8913,4.8913,4.8913,4.8913,4.8913,4.8913,4.8913,4.8913,4.8913,4.8913,4.8913,4.8913,4.8913,4.8913,4.8913,4.8913,4.8913,4.8913,4.8913,4.8913,4.8913,4.8913,4.8913,4.8913,4.8913,4.8913,4.8913,4.8913,4.8913,4.8913,4.8913,4.8913,4.8913,4.8913,4.8913,4.8913,4.8913,4.8913,4.8913,4.8913,0.0,0.0,0.0,0.0,0.0,0.0,0.0,0.0,4.6308,0.0,0.0,0.0,0.0,0.0,0.0,0.0,4.6074,0.0,0.0,0.0,4.6719,0.0,0.0,0.0,0.0,0.0,0.0,0.0,4.8913,4.8913,4.8913,4.8913,4.8913,4.8913,4.8913,4.8913,4.8913,4.8913,4.8913,4.8913,4.8913,4.8913,4.8913,4.8913,4.8913,4.8913,4.8913,4.8913,4.8913,4.8913,4.8913,4.8913,4.8913,4.8913,4.8913,4.8913,4.8913,4.8913,4.8913,4.8913,4.8913,4.8913,4.8913,4.8913,4.8913,4.8913,4.8913,4.8913,4.8913,4.8913,4.8913,4.8913,4.8913,4.8913,4.8913,4.8913,4.8913,4.8913,4.8913,4.8913,4.8913,4.8913,4.8913,4.8913,4.8913,4.8913,4.8913,4.8913,4.8913,4.8913,4.8913,4.8913,4.8913,4.8913,4.8913,4.8913,4.8913,4.8913,4.8913,4.8913,4.8913,4.8913,4.8913,4.8913,4.8913,4.8913,4.8913,4.8913,4.8913,4.8913,4.8913,4.8913,4.5371,0.0,0.0,0.0,0.0,0.0,0.0,0.0,0.0,0.0,0.0,0.0,0.0,0.0,0.0,0.0,0.0,4.623,0.0,0.0,0.0,0.0,0.0,0.0,0.0,0.0,0.0,4.8894,4.8913,4.8913,4.8913,4.8913,4.8913,4.8913,4.8913,4.8913,4.8913,4.8913,4.8913,4.8913,4.8913,4.8913,4.8913,4.8913,4.8913,4.8913,4.8913,4.8913,4.8913,4.8913,4.8913,4.8913,4.8913,4.8913,4.8913,4.8913,4.8913,4.8913,4.8913,4.8913,4.8913,4.8913,4.8913,4.8913,4.8913,4.8913,4.8913,4.8913,4.8913,4.8913,4.8913,4.8913,4.8913,4.8913,4.8913,4.8913,4.8913,4.8913,4.8913,4.8913,4.8913,4.8913,4.8913,4.8913,4.8913,4.8913,4.8913,4.8913,4.8913,4.8913,4.8913,4.8913,4.8913,4.8913,4.8913,4.8913,4.8913,4.8913,4.8913,4.8913,4.8913,4.8913,4.8913,4.8913,4.8913,4.8913,4.8913,4.8913,4.8913,4.8913,4.8913,4.8913,0.0,0.0,0.0,0.0,0.0,0.0,0.0,0.0,4.6308,0.0,0.0,0.0,0.0,0.0,0.0,0.0,0.0,0.0,0.0,0.0,0.0,0.0,0.0,0.0,0.0,0.0,0.0,4.8874,4.8913,4.8913,4.8913,4.8913,4.8913,4.8913,4.8913,4.8913,4.8913,4.8913,4.8913,4.8913,4.8913,4.8913,4.8913,4.8913,4.8913,4.8913,4.8913,4.8913,4.8913,4.8913,4.8913,4.8913,4.8913,4.8913,4.8913,4.8913,4.8913,4.8913,4.8913,4.8913,4.8913,4.8913,4.8913,4.8913,4.8913,4.8913,4.8913,4.8913,4.8913,4.8913,4.8913,4.8913,4.8913,4.8913,4.8913,4.8913,4.8913,4.8913,4.8913,4.8913,4.8913,4.8913,4.8913,4.8913,4.8913,4.8913,4.8913,4.8913,4.8913,4.8913,4.8913,4.8913,4.8913,4.8913,4.8913,4.8913,4.8913,4.8913,4.8913,4.8913,4.8913,4.8913,4.8913,4.8913,4.8913,4.8913,4.8913,4.8913,4.8913,4.8913,4.8913,4.8913,0.0,0.0,4.6308,4.6308,0.0,0.0,0.0,0.0,0.0,0.0,0.0,0.0,0.0,0.0,0.0,0.0,0.0,0.0,0.0,0.0,0.0,0.0,0.0,0.0,0.0,0.0,0.0,4.8418,4.8737,4.8913,4.8913,4.8913,4.8913,4.8913,4.8913,4.8913,4.8913,4.8913,4.8913,4.8913,4.8913,4.8913,4.8913,4.8913,4.8913,4.8913,4.8913,4.8913,4.8913,4.8913,4.8913,4.8913,4.8913,4.8913,4.8913,4.8913,4.8913,4.8913,4.8913,4.8913,4.8913,4.8913,4.8913,4.8913,4.8913,4.8913,4.8913,4.8913,4.8913,4.8913,4.8913,4.8913,4.8913,4.8913,4.8913,4.8913,4.8913,4.8913,4.8913,4.8913,4.8913,4.8913,4.8913,4.8913,4.8913,4.8913,4.8913,4.8913,4.8913,4.8913,4.8913,4.8913,4.8913,4.8913,4.8913,4.8913,4.8913,4.8913,4.8913,4.8913,4.8913,4.8913,4.8913,4.8913,4.8913,4.8913,4.8913,4.8913,4.8913,4.8913,4.8913,4.8913,4.6836,4.6758,0.0,0.0,4.6758,0.0,0.0,0.0,0.0,0.0,0.0,0.0,0.0,0.0,0.0,0.0,0.0,0.0,0.0,4.6308,0.0,0.0,0.0,0.0,0.0,0.0,4.8047,4.8203,4.8613,4.8913,0.0,0.0,4.8913,4.8913,4.8913,4.8913,4.8913,4.8913,4.8913,4.8913,4.8913,4.8913,4.8913,4.8913,4.8913,4.8913,4.8913,4.8913,4.8913,4.8913,4.8913,4.8913,4.8913,4.8913,4.8913,4.8913,4.8913,4.8913,4.8913,4.8913,4.8913,4.8913,4.8913,4.8913,4.8913,4.8913,4.8933,4.9043,4.9031,4.8933,4.9109,4.9031,4.8913,4.8913,4.8913,4.8913,4.8913,4.8913,4.8913,4.8913,4.8913,4.8913,4.8913,4.8913,4.8913,4.8913,4.8913,4.8913,4.8913,4.8913,4.8913,4.8913,4.8913,4.8913,4.8913,4.8913,4.8913,4.8913,4.8913,4.8913,4.8913,4.8913,4.905,4.9363,4.907,4.905,4.9382,4.905,4.8913,4.8913,4.8913,4.8913]},{"header":{"parameterUnit":"m.s-1","parameterCategory":1,"la1":30.6,"la2":29.2853,"lo1":-89.7004,"lo2":-87.6739,"dy":0.0162,"dx":0.0183,"nx":112,"ny":82,"refTime":"2023-11-09T06:00:00:Z","depth":0,"parameterNumber":3,"parameterNumberName":"V-component_of_WINDS"},"data":[0.0,0.0,0.0,0.0,0.0,0.0,0.0,0.0,0.0,0.0,0.0,0.0,0.0,0.0,0.0,0.0,0.0,0.0,0.0,0.0,0.0,0.0,0.0,0.0,0.0,0.0,0.0,0.0,0.0,0.0,0.0,0.0,0.0,0.0,0.0,0.0,0.0,0.0,0.0,0.0,0.0,0.0,0.0,0.0,0.0,0.0,0.0,0.0,0.0,0.0,0.0,0.0,0.0,0.0,0.0,0.0,0.0,0.0,0.0,0.0,0.0,0.0,0.0,0.0,0.0,0.0,0.0,0.0,0.0,0.0,0.0,0.0,0.0,0.0,0.0,0.0,0.0,0.0,0.0,0.0,0.0,0.0,0.0,0.0,0.0,0.0,0.0,0.0,0.0,0.0,0.0,4.2568,4.2133,4.293,4.5457,4.5531,4.5936,4.7222,0.0,0.0,0.0,0.0,0.0,0.0,0.0,0.0,0.0,0.0,0.0,0.0,0.0,0.0,0.0,0.0,0.0,0.0,0.0,0.0,0.0,0.0,0.0,0.0,0.0,0.0,0.0,0.0,0.0,0.0,0.0,0.0,0.0,0.0,0.0,0.0,0.0,0.0,0.0,0.0,0.0,0.0,0.0,0.0,0.0,0.0,0.0,0.0,0.0,0.0,0.0,0.0,0.0,0.0,0.0,0.0,0.0,0.0,0.0,0.0,0.0,0.0,0.0,0.0,0.0,0.0,0.0,0.0,0.0,0.0,0.0,0.0,0.0,0.0,0.0,0.0,0.0,0.0,0.0,0.0,0.0,0.0,0.0,0.0,0.0,0.0,0.0,0.0,0.0,0.0,0.0,0.0,0.0,0.0,0.0,0.0,0.0,0.0,0.0,0.0,0.0,0.0,0.0,0.0,4.5434,4.6344,4.4489,4.4233,4.677,4.6032,4.5936,4.7222,0.0,0.0,0.0,0.0,0.0,0.0,0.0,0.0,0.0,0.0,0.0,0.0,0.0,0.0,0.0,0.0,0.0,0.0,0.0,0.0,0.0,0.0,0.0,0.0,0.0,0.0,0.0,0.0,0.0,0.0,0.0,0.0,0.0,0.0,0.0,0.0,0.0,0.0,0.0,0.0,0.0,0.0,0.0,0.0,0.0,0.0,0.0,0.0,0.0,0.0,0.0,0.0,0.0,0.0,0.0,0.0,0.0,0.0,0.0,0.0,0.0,0.0,0.0,0.0,0.0,0.0,0.0,0.0,0.0,0.0,0.0,0.0,0.0,0.0,0.0,0.0,0.0,0.0,0.0,0.0,0.0,0.0,0.0,0.0,0.0,0.0,0.0,0.0,0.0,0.0,0.0,0.0,0.0,0.0,0.0,0.0,0.0,0.0,0.0,0.0,0.0,0.0,0.0,4.5824,4.5891,4.7149,4.5644,4.5275,4.7127,4.677,4.6682,4.7266,4.7309,0.0,0.0,0.0,0.0,0.0,0.0,0.0,0.0,0.0,0.0,0.0,0.0,0.0,0.0,0.0,0.0,0.0,0.0,0.0,0.0,0.0,0.0,0.0,0.0,0.0,0.0,0.0,0.0,0.0,0.0,0.0,0.0,0.0,0.0,0.0,0.0,0.0,0.0,0.0,0.0,0.0,0.0,0.0,0.0,0.0,0.0,0.0,0.0,0.0,0.0,0.0,0.0,0.0,0.0,0.0,0.0,0.0,0.0,0.0,0.0,0.0,0.0,0.0,0.0,0.0,0.0,0.0,0.0,0.0,0.0,0.0,0.0,0.0,0.0,0.0,0.0,0.0,0.0,0.0,0.0,0.0,0.0,0.0,0.0,0.0,0.0,0.0,0.0,0.0,0.0,0.0,0.0,0.0,0.0,0.0,0.0,0.0,0.0,0.0,0.0,0.0,0.0,4.6432,4.6211,4.7222,4.641,4.6233,4.7222,4.7309,4.7309,4.7309,4.7309,0.0,0.0,0.0,0.0,0.0,0.0,0.0,0.0,0.0,0.0,0.0,0.0,0.0,0.0,0.0,0.0,0.0,0.0,0.0,0.0,0.0,0.0,0.0,0.0,0.0,0.0,0.0,0.0,0.0,0.0,0.0,0.0,0.0,0.0,0.0,0.0,0.0,0.0,0.0,0.0,0.0,0.0,0.0,0.0,0.0,0.0,0.0,0.0,0.0,0.0,0.0,0.0,0.0,0.0,0.0,0.0,0.0,0.0,0.0,0.0,0.0,0.0,0.0,0.0,0.0,0.0,0.0,0.0,0.0,0.0,0.0,0.0,0.0,0.0,0.0,0.0,0.0,0.0,0.0,0.0,0.0,0.0,0.0,0.0,0.0,0.0,0.0,0.0,0.0,0.0,0.0,0.0,0.0,0.0,0.0,0.0,0.0,0.0,0.0,0.0,0.0,0.0,4.7222,4.7222,4.7287,4.7222,4.7222,4.7287,4.7309,4.7309,4.7309,4.7309,0.0,0.0,0.0,0.0,0.0,0.0,0.0,0.0,0.0,0.0,0.0,0.0,0.0,0.0,0.0,0.0,0.0,0.0,0.0,0.0,0.0,0.0,0.0,0.0,0.0,0.0,0.0,0.0,0.0,0.0,0.0,0.0,0.0,0.0,0.0,0.0,0.0,0.0,0.0,0.0,0.0,0.0,0.0,0.0,0.0,0.0,0.0,0.0,0.0,0.0,0.0,0.0,0.0,0.0,0.0,0.0,0.0,0.0,0.0,0.0,0.0,0.0,0.0,0.0,0.0,0.0,0.0,0.0,0.0,0.0,0.0,0.0,0.0,0.0,0.0,0.0,0.0,0.0,0.0,0.0,0.0,0.0,0.0,0.0,0.0,0.0,0.0,0.0,0.0,0.0,0.0,0.0,0.0,0.0,0.0,0.0,0.0,0.0,0.0,0.0,0.0,0.0,4.7309,4.7309,0.0,4.7309,4.7309,4.7309,4.7309,4.7309,4.7309,0.0,0.0,0.0,0.0,0.0,0.0,0.0,0.0,0.0,0.0,0.0,0.0,0.0,0.0,0.0,0.0,0.0,0.0,0.0,0.0,0.0,0.0,0.0,0.0,0.0,0.0,0.0,0.0,0.0,0.0,0.0,0.0,0.0,0.0,0.0,0.0,0.0,0.0,0.0,0.0,0.0,0.0,0.0,0.0,0.0,0.0,0.0,0.0,0.0,0.0,0.0,0.0,0.0,0.0,0.0,0.0,0.0,0.0,0.0,0.0,0.0,0.0,0.0,0.0,0.0,0.0,0.0,0.0,0.0,0.0,0.0,0.0,0.0,0.0,0.0,0.0,0.0,0.0,0.0,0.0,0.0,0.0,0.0,0.0,0.0,0.0,0.0,0.0,0.0,0.0,0.0,0.0,0.0,0.0,0.0,0.0,0.0,0.0,0.0,0.0,0.0,0.0,4.7309,4.7309,4.7309,0.0,4.7309,4.7309,4.7309,4.7309,4.7309,4.7309,0.0,0.0,0.0,0.0,0.0,0.0,0.0,0.0,0.0,0.0,0.0,0.0,0.0,0.0,0.0,0.0,0.0,0.0,0.0,0.0,0.0,0.0,0.0,0.0,0.0,0.0,0.0,0.0,0.0,0.0,0.0,0.0,0.0,0.0,0.0,0.0,0.0,0.0,0.0,0.0,0.0,0.0,0.0,0.0,0.0,0.0,0.0,0.0,0.0,0.0,0.0,0.0,0.0,0.0,0.0,0.0,0.0,0.0,0.0,0.0,0.0,0.0,0.0,0.0,0.0,0.0,0.0,0.0,0.0,0.0,0.0,0.0,0.0,0.0,0.0,0.0,0.0,0.0,0.0,0.0,0.0,0.0,0.0,0.0,0.0,0.0,0.0,0.0,0.0,0.0,0.0,0.0,0.0,0.0,0.0,0.0,0.0,0.0,0.0,0.0,0.0,0.0,4.7309,4.7309,4.7309,4.7309,4.7309,4.7309,4.7309,4.7309,4.7309,0.0,0.0,0.0,0.0,0.0,0.0,0.0,0.0,0.0,0.0,0.0,0.0,0.0,0.0,0.0,0.0,0.0,0.0,0.0,0.0,0.0,0.0,0.0,0.0,0.0,0.0,0.0,0.0,0.0,0.0,0.0,0.0,0.0,0.0,0.0,0.0,0.0,0.0,0.0,0.0,0.0,0.0,0.0,0.0,0.0,0.0,0.0,0.0,0.0,0.0,0.0,0.0,0.0,0.0,0.0,0.0,0.0,0.0,0.0,0.0,0.0,0.0,0.0,0.0,0.0,0.0,0.0,0.0,0.0,0.0,0.0,0.0,0.0,0.0,0.0,0.0,0.0,0.0,0.0,0.0,0.0,0.0,0.0,0.0,0.0,0.0,0.0,0.0,0.0,0.0,0.0,0.0,0.0,0.0,0.0,0.0,0.0,0.0,0.0,0.0,0.0,0.0,0.0,4.7309,4.7309,4.7309,4.7309,4.7309,4.7309,4.7309,4.7309,4.7309,4.7309,0.0,0.0,0.0,0.0,0.0,0.0,0.0,0.0,0.0,0.0,0.0,0.0,0.0,0.0,0.0,0.0,0.0,0.0,0.0,0.0,0.0,0.0,0.0,0.0,0.0,0.0,0.0,0.0,0.0,0.0,0.0,0.0,0.0,0.0,0.0,0.0,0.0,0.0,0.0,0.0,0.0,0.0,0.0,0.0,0.0,0.0,0.0,0.0,0.0,0.0,0.0,0.0,0.0,0.0,0.0,0.0,0.0,0.0,0.0,0.0,0.0,0.0,0.0,0.0,0.0,0.0,0.0,0.0,0.0,0.0,0.0,0.0,0.0,0.0,0.0,0.0,0.0,0.0,0.0,0.0,0.0,0.0,0.0,0.0,0.0,0.0,0.0,0.0,0.0,0.0,0.0,0.0,0.0,0.0,0.0,0.0,0.0,0.0,0.0,0.0,0.0,0.0,4.7309,4.7309,4.7309,4.7309,4.7309,4.7309,4.7309,4.7309,4.7309,4.7309,0.0,0.0,0.0,0.0,0.0,0.0,0.0,0.0,0.0,0.0,0.0,0.0,0.0,0.0,0.0,0.0,0.0,0.0,0.0,0.0,0.0,0.0,0.0,0.0,0.0,0.0,0.0,0.0,0.0,0.0,0.0,0.0,0.0,0.0,0.0,0.0,0.0,0.0,0.0,0.0,0.0,0.0,0.0,0.0,0.0,0.0,0.0,0.0,0.0,0.0,0.0,0.0,0.0,0.0,0.0,0.0,0.0,0.0,0.0,0.0,0.0,0.0,0.0,0.0,0.0,0.0,0.0,0.0,0.0,0.0,0.0,0.0,0.0,0.0,0.0,0.0,0.0,0.0,0.0,0.0,0.0,0.0,0.0,0.0,0.0,0.0,0.0,0.0,0.0,0.0,0.0,0.0,0.0,0.0,0.0,0.0,0.0,0.0,0.0,0.0,0.0,0.0,4.7309,4.7309,4.7309,4.7309,4.7309,4.7309,4.7309,4.7309,4.7309,4.7309,0.0,0.0,0.0,0.0,0.0,0.0,0.0,0.0,0.0,0.0,0.0,0.0,0.0,0.0,0.0,0.0,0.0,0.0,0.0,0.0,0.0,0.0,0.0,0.0,0.0,0.0,0.0,0.0,0.0,0.0,0.0,0.0,0.0,0.0,0.0,0.0,0.0,0.0,0.0,0.0,0.0,0.0,0.0,0.0,0.0,0.0,0.0,0.0,0.0,0.0,0.0,0.0,0.0,0.0,0.0,0.0,0.0,0.0,0.0,0.0,4.7309,0.0,0.0,0.0,0.0,0.0,0.0,0.0,0.0,0.0,0.0,0.0,0.0,0.0,0.0,0.0,0.0,0.0,0.0,0.0,0.0,0.0,0.0,0.0,0.0,0.0,0.0,0.0,0.0,0.0,0.0,0.0,0.0,0.0,0.0,0.0,0.0,0.0,0.0,0.0,0.0,0.0,4.7309,4.7309,4.7309,4.7309,4.7309,4.7309,4.7309,4.7309,4.7309,4.7309,0.0,0.0,0.0,0.0,0.0,0.0,0.0,0.0,0.0,0.0,0.0,0.0,0.0,0.0,0.0,0.0,0.0,0.0,0.0,0.0,0.0,0.0,0.0,0.0,0.0,0.0,0.0,0.0,0.0,0.0,0.0,0.0,0.0,0.0,0.0,0.0,0.0,0.0,0.0,0.0,0.0,0.0,0.0,0.0,0.0,0.0,0.0,0.0,0.0,0.0,0.0,0.0,0.0,0.0,0.0,0.0,0.0,0.0,0.0,0.0,0.0,4.7309,0.0,0.0,0.0,0.0,0.0,0.0,0.0,0.0,0.0,0.0,0.0,0.0,0.0,0.0,0.0,0.0,0.0,0.0,0.0,0.0,0.0,0.0,0.0,0.0,0.0,0.0,0.0,0.0,0.0,0.0,0.0,0.0,0.0,0.0,0.0,0.0,0.0,0.0,0.0,0.0,4.7309,4.7309,4.7309,4.7309,4.7309,4.7309,4.7309,4.7309,4.7309,4.7309,4.7309,0.0,0.0,0.0,0.0,0.0,0.0,0.0,0.0,0.0,0.0,0.0,0.0,0.0,0.0,0.0,0.0,0.0,0.0,0.0,0.0,0.0,0.0,0.0,0.0,0.0,0.0,0.0,0.0,0.0,0.0,0.0,0.0,0.0,0.0,0.0,0.0,0.0,0.0,0.0,0.0,0.0,0.0,0.0,0.0,0.0,0.0,0.0,0.0,0.0,0.0,0.0,0.0,0.0,4.7309,4.7309,4.7309,4.7309,4.7309,4.7309,4.7309,4.7309,4.7309,0.0,0.0,0.0,0.0,0.0,0.0,0.0,0.0,0.0,0.0,0.0,0.0,0.0,0.0,0.0,0.0,0.0,0.0,0.0,0.0,0.0,0.0,0.0,0.0,0.0,4.7549,4.7638,0.0,0.0,0.0,0.0,0.0,0.0,0.0,0.0,0.0,0.0,0.0,0.0,4.7638,4.7638,4.7638,4.7638,4.7638,4.7638,4.7638,4.7638,4.7638,4.7638,4.7549,4.7489,0.0,0.0,0.0,0.0,0.0,0.0,0.0,0.0,0.0,0.0,0.0,0.0,0.0,0.0,0.0,0.0,0.0,0.0,0.0,0.0,0.0,0.0,0.0,0.0,0.0,0.0,0.0,0.0,0.0,0.0,0.0,0.0,4.7309,4.7309,0.0,0.0,0.0,0.0,0.0,0.0,0.0,0.0,0.0,0.0,0.0,0.0,0.0,0.0,4.7309,4.7309,4.7309,4.7309,4.7309,4.7309,4.7309,4.7309,4.7309,4.7309,4.7309,0.0,4.7309,4.7309,0.0,0.0,0.0,0.0,0.0,0.0,0.0,0.0,0.0,0.0,0.0,0.0,0.0,0.0,0.0,0.0,0.0,0.0,0.0,0.0,0.0,0.0,4.8169,4.8169,4.8618,4.9037,0.0,4.8117,4.7489,4.8079,0.0,0.0,0.0,0.0,0.0,0.0,0.0,0.0,4.9037,4.9037,4.9037,4.9037,4.9037,4.9037,4.9037,4.9037,4.9037,4.9037,4.8498,4.8169,4.8169,4.7608,0.0,0.0,0.0,0.0,0.0,0.0,0.0,0.0,0.0,0.0,0.0,0.0,0.0,0.0,0.0,0.0,0.0,0.0,0.0,0.0,0.0,0.0,0.0,0.0,0.0,0.0,0.0,0.0,0.0,4.7309,4.7309,4.7309,4.7309,4.7309,0.0,0.0,0.0,0.0,0.0,0.0,0.0,0.0,0.0,4.7309,4.7309,4.7489,4.7848,4.7848,4.8027,4.8438,4.8438,4.8438,4.8438,4.8438,4.8438,4.8438,4.8438,4.8438,4.8379,4.7608,4.7309,4.7309,0.0,0.0,0.0,0.0,0.0,4.7309,4.7309,4.7309,0.0,0.0,0.0,0.0,0.0,0.0,0.0,0.0,0.0,0.0,0.0,0.0,0.0,4.8858,4.9097,4.9277,4.9277,4.8828,4.8528,0.0,4.8858,4.8947,4.9247,0.0,0.0,0.0,0.0,0.0,4.9277,4.9277,4.9277,4.9277,4.9277,4.9277,4.9277,4.9277,4.9277,4.9277,4.9007,4.8858,4.8858,4.8588,4.8438,0.0,0.0,0.0,0.0,0.0,0.0,0.0,0.0,0.0,0.0,0.0,0.0,0.0,0.0,0.0,0.0,0.0,0.0,0.0,0.0,0.0,0.0,0.0,0.0,0.0,0.0,0.0,0.0,4.7309,4.7309,4.7309,4.7309,4.7309,0.0,0.0,0.0,0.0,0.0,0.0,4.7549,4.7728,4.7818,4.7818,4.7818,4.8027,4.8558,4.8558,4.8798,4.9277,4.9277,4.9277,4.9277,4.9277,4.9277,4.9277,4.9277,4.9277,4.9217,4.8207,4.7818,4.7818,4.7818,4.7818,4.7818,4.7818,4.7818,4.7818,4.7818,4.7818,4.7818,4.7818,0.0,4.8558,4.8558,0.0,0.0,0.0,0.0,4.9337,4.9486,0.0,4.9845,4.9995,5.0175,5.0295,5.0295,5.0295,5.0145,0.0,4.9546,4.9576,4.9756,0.0,0.0,0.0,0.0,4.9786,4.9786,4.9786,4.9786,4.9786,4.9786,4.9786,4.9786,4.9786,4.9786,4.9786,4.9636,4.9546,4.9546,4.9366,4.9277,4.9277,0.0,0.0,0.0,0.0,0.0,0.0,0.0,0.0,0.0,0.0,0.0,0.0,0.0,0.0,0.0,0.0,0.0,0.0,0.0,0.0,0.0,0.0,0.0,0.0,0.0,0.0,0.0,0.0,0.0,4.7309,4.7309,0.0,0.0,0.0,0.0,4.7309,4.7878,4.8259,4.8259,4.8858,4.9187,4.9187,4.9187,4.9239,4.9247,4.9247,4.9269,4.9277,4.9277,4.9277,4.9277,4.9277,4.9277,4.9277,4.9277,4.9277,4.9277,4.9239,4.9187,4.9187,4.9187,4.9187,4.9187,4.9187,4.9187,4.9187,4.9187,4.9187,4.9187,4.9187,4.9217,4.9247,4.9247,4.9247,0.0,0.0,4.9277,4.9426,5.0009,5.0637,5.1236,5.1887,5.254,5.2989,5.2989,5.2989,5.2426,0.0,5.0159,5.0368,5.0996,0.0,5.1086,5.1086,5.1086,5.1086,5.1086,5.1086,5.1086,5.1086,5.1086,5.1086,5.1086,5.1086,5.1086,5.1086,5.0518,5.0159,5.0159,4.9583,4.9277,4.9277,4.9277,0.0,0.0,0.0,0.0,0.0,0.0,0.0,0.0,0.0,0.0,0.0,0.0,0.0,0.0,0.0,0.0,0.0,0.0,0.0,0.0,0.0,0.0,0.0,0.0,0.0,0.0,0.0,0.0,4.7309,4.7668,0.0,0.0,4.8349,4.8588,4.8588,4.8798,4.9127,4.9501,4.974,5.0092,5.0511,5.0511,5.072,5.1139,5.1193,5.1372,5.1821,5.1821,5.1821,5.1821,5.1821,5.1821,5.1821,5.1821,5.1821,5.1821,5.1821,5.0803,4.9277,4.9277,4.9277,4.9277,4.9277,4.9277,4.9277,4.9277,4.9277,4.9426,5.0242,5.0511,5.069,5.1552,5.1821,5.1821,5.1821,5.1821,5.1851,5.2067,5.2306,5.2546,5.2809,5.3049,5.3198,5.3198,5.3198,5.2989,5.2276,5.2127,5.2217,5.2456,5.2486,5.2486,5.2486,5.2486,5.2486,5.2486,5.2486,5.2486,5.2486,5.2486,5.2486,5.2486,5.2486,5.2486,5.2486,5.1858,5.1475,5.1475,5.087,5.0511,5.0511,5.0511,5.0301,0.0,0.0,0.0,0.0,0.0,0.0,0.0,0.0,0.0,0.0,0.0,0.0,0.0,0.0,0.0,0.0,0.0,0.0,0.0,0.0,0.0,0.0,0.0,0.0,0.0,0.0,4.7967,4.7967,4.8379,4.8738,4.8925,4.9344,4.9726,4.9935,5.0145,5.0451,5.0847,5.1086,5.1505,5.2193,5.2193,5.2546,5.3204,5.3204,5.3443,5.3887,5.3887,5.3887,5.3887,5.3887,5.3887,5.3887,5.3887,5.3887,5.3887,5.3887,5.2869,5.1253,5.0774,5.0624,5.0624,5.0624,5.0624,5.0624,5.0624,5.0624,5.0744,5.1588,5.1887,5.2037,5.2929,5.3198,5.3258,5.3473,5.3558,5.3623,5.4097,5.4216,5.4276,5.4486,5.4516,5.4516,5.4516,5.4516,5.4516,5.4516,5.3797,5.3198,5.3198,5.3198,5.3198,5.3198,5.3198,5.3198,5.3198,5.3198,5.3198,5.3198,5.3198,5.3198,5.3198,5.3198,5.3198,5.3198,5.2785,5.2546,5.2546,5.2127,5.1768,5.1558,5.1558,5.1415,5.1206,0.0,0.0,0.0,0.0,0.0,0.0,0.0,0.0,0.0,0.0,0.0,0.0,0.0,0.0,0.0,0.0,0.0,0.0,0.0,0.0,0.0,0.0,0.0,4.8438,4.8887,4.9307,4.9307,4.9359,4.9606,5.0219,5.0285,5.0578,5.1236,5.1917,5.2276,5.2306,5.2935,5.3618,5.4281,5.4311,5.461,5.5239,5.5239,5.5239,5.5239,5.5239,5.5239,5.5239,5.5239,5.5239,5.5239,5.5239,5.5239,5.5239,5.5239,5.5239,5.5119,5.3797,5.3258,5.3258,5.3258,5.3258,5.3258,5.3258,5.3258,5.3288,5.3288,5.3288,5.3288,5.3318,5.3318,5.3468,5.4102,5.4311,5.4581,5.5893,5.6222,5.6372,5.6944,5.7094,5.7094,5.7094,5.7094,5.7094,5.7094,5.5029,5.3318,5.3318,5.3318,5.3318,5.3318,5.3318,0.0,5.3318,5.3318,5.3318,5.3318,5.3318,5.3318,5.3318,5.3318,5.3288,5.3288,5.3258,5.3228,5.3228,5.3228,5.2875,5.2247,5.2217,5.2546,5.3198,0.0,0.0,0.0,0.0,0.0,0.0,0.0,0.0,0.0,0.0,0.0,0.0,0.0,0.0,0.0,0.0,0.0,0.0,0.0,0.0,0.0,0.0,4.9733,4.9097,4.9187,4.9456,4.989,5.0368,5.093,5.1588,5.2097,5.2665,5.3299,5.3563,5.4072,5.5055,5.5264,5.5683,5.6286,5.6286,5.6376,5.6585,5.6585,5.6585,5.6585,5.6585,5.6585,5.6585,5.6585,5.6585,5.6585,5.6585,5.6585,5.6585,5.6585,5.6585,5.6436,5.5149,5.4665,5.4665,5.4665,5.4665,5.4665,5.4665,5.4665,5.473,5.5234,5.5384,5.5474,5.5923,5.6017,5.6047,5.6256,5.6286,5.6376,5.6761,5.6825,5.6885,5.7064,5.7094,5.7094,5.7094,5.7094,5.7094,5.7094,5.6526,5.6017,5.6017,5.6017,5.6017,5.6017,5.6017,0.0,5.6017,5.6017,5.6017,5.6017,5.6017,5.6017,5.6017,5.5623,5.5384,0.0,5.4461,5.3922,5.3922,5.3468,5.3109,5.2929,5.2929,5.3019,0.0,0.0,0.0,0.0,0.0,0.0,0.0,0.0,0.0,0.0,0.0,0.0,0.0,0.0,0.0,0.0,0.0,0.0,0.0,0.0,0.0,0.0,5.081,5.1109,5.1319,5.0863,5.084,5.1774,5.2223,5.2845,5.3773,5.4246,5.4725,5.5359,5.5418,5.5748,5.6551,5.6581,5.6881,5.7513,5.7513,5.7663,5.7932,5.7932,5.7932,5.7932,5.7932,5.7932,5.7932,5.7932,5.7932,0.0,5.7932,5.7932,5.7932,5.7932,5.7932,0.0,0.0,0.0,0.0,0.0,5.5987,5.5987,5.5987,5.5987,5.6047,5.6462,5.6581,5.6641,5.6974,5.7094,5.7154,5.7453,5.7513,5.7573,5.7872,5.7932,5.7932,5.7932,5.7932,5.7932,5.7932,5.7932,5.7932,5.7932,0.0,0.0,5.7932,5.7483,5.7094,5.7094,5.7094,5.7094,5.7094,5.7094,5.7094,5.7094,5.7094,5.7094,5.7094,5.6791,0.0,0.0,0.0,5.5418,5.5418,5.4815,0.0,0.0,0.0,5.4576,5.4845,0.0,0.0,0.0,5.3528,5.2989,0.0,0.0,0.0,0.0,0.0,0.0,0.0,0.0,0.0,0.0,0.0,0.0,0.0,0.0,0.0,0.0,5.2366,5.2875,5.4132,5.3354,5.3084,5.4281,5.4431,5.491,5.6192,5.6312,5.6551,5.7154,5.7214,5.7244,5.7304,0.0,0.0,0.0,0.0,5.8504,5.9099,5.9099,5.9099,5.9099,5.9099,5.9099,5.9099,5.9099,5.9099,5.9099,5.9099,5.9099,5.9099,5.9099,5.9099,5.8979,5.7782,5.7334,5.7334,5.7334,5.7334,0.0,5.7334,0.0,0.0,5.7334,5.7334,5.7334,5.7334,5.7334,5.7453,5.8025,5.8205,5.8354,5.8949,5.9099,5.9099,5.9099,5.9099,5.9099,5.9099,5.9099,5.9099,5.9099,5.9099,5.9099,5.9099,5.8112,5.7334,5.7334,5.7334,5.7334,5.7334,5.7334,5.7334,5.7334,0.0,0.0,5.7334,5.7244,5.7214,5.7214,5.7124,5.7094,5.7094,5.6581,5.6551,5.7094,5.6581,5.6551,5.7094,5.7094,5.7094,5.7034,5.4725,5.3648,0.0,0.0,0.0,0.0,0.0,0.0,0.0,0.0,0.0,0.0,0.0,0.0,0.0,0.0,0.0,5.2899,5.3443,5.4102,5.488,5.5264,5.5534,5.5773,5.5803,5.6102,5.6825,5.6915,5.7184,5.7846,5.7905,5.8141,5.868,5.871,0.0,5.8919,5.8919,5.8979,5.9099,5.9099,5.9099,5.9099,0.0,0.0,5.9099,5.9099,5.9099,5.9099,5.9099,5.9099,5.9099,5.9099,5.9099,5.9069,5.883,5.871,5.871,5.871,5.871,5.871,5.871,5.871,5.871,5.871,5.871,5.871,5.871,5.871,0.0,5.889,5.8919,5.8949,5.9069,5.9099,5.9099,5.9099,5.9099,5.9099,5.9099,5.9099,5.9099,5.9099,5.9099,5.9099,5.9099,5.889,5.871,5.871,5.871,5.871,5.871,5.871,5.871,5.871,5.871,5.871,5.871,5.8231,5.7905,5.7905,5.7393,5.7094,5.7094,5.6974,5.6974,5.7094,5.6974,5.6974,5.7094,5.7094,5.7094,5.7094,5.6585,5.6346,0.0,0.0,0.0,0.0,0.0,0.0,0.0,0.0,0.0,0.0,0.0,5.1798,0.0,0.0,5.3414,5.4097,5.476,5.5538,5.6526,5.6944,5.7154,5.7154,5.7154,5.7393,5.8052,5.8112,5.8231,5.859,5.8593,5.877,5.9099,5.9099,5.9249,5.9578,5.9608,5.9757,6.0116,6.0116,6.0116,6.0116,6.0116,6.0116,6.0086,5.9757,5.9608,5.9578,5.9249,5.9099,5.9099,5.9099,5.9099,5.9099,5.9099,5.9099,5.9099,5.9099,5.9099,5.9099,5.9099,5.9099,5.9099,5.9099,5.9099,5.9099,5.9099,5.9099,5.9099,5.9099,5.9099,5.9099,5.9099,5.9099,5.9099,5.9099,5.9099,5.9099,5.9099,5.9099,5.9099,5.9099,5.9099,5.9099,5.9099,5.9099,5.9099,5.9099,5.9099,5.9099,5.9099,5.9099,5.9099,5.9099,5.9099,5.9099,5.9099,5.88,5.8593,5.8593,5.8291,5.8112,5.8112,5.8112,5.8112,5.8112,5.8112,5.8112,5.8112,5.8112,5.8422,5.9065,5.9065,5.8343,0.0,0.0,0.0,0.0,0.0,0.0,0.0,0.0,5.1385,5.1385,5.2037,5.2636,5.2755,5.3773,5.479,5.5448,5.6132,5.6915,5.7965,5.8205,5.8294,5.8294,5.8294,5.8504,5.9069,5.9099,5.9159,5.9279,5.9308,5.9368,5.9488,5.9488,5.9727,6.0266,6.0266,6.0565,6.1076,6.1076,6.1076,6.1076,6.1076,6.1076,6.1104,6.0535,6.0266,6.0266,5.9727,5.9488,5.9488,5.9488,5.9488,5.9488,5.9488,5.9488,5.9458,5.9189,5.9099,5.9099,5.9099,5.9099,5.9099,5.9099,5.9099,5.9099,5.9099,5.9189,5.9308,5.9308,5.9398,5.9488,5.9488,5.9488,5.9488,5.9488,5.9488,5.9488,5.9488,5.9488,5.9488,5.9488,5.9488,5.9488,5.9488,5.9488,5.9398,5.9129,5.9099,5.9099,5.9099,5.9099,5.9099,5.9099,5.9099,5.9099,5.9099,5.9099,5.9099,5.9099,5.9339,5.9365,5.9099,5.9606,5.9736,5.9469,5.9736,5.9868,5.9868,5.9868,6.0385,6.1395,6.1395,6.0254,4.9299,4.9673,5.0278,5.0907,5.1086,5.1116,0.0,0.0,5.2097,5.2097,5.3114,5.4162,5.473,5.5474,5.6192,5.6765,5.7453,5.7935,5.8085,5.8593,5.9009,5.9009,5.9009,5.9009,5.9099,5.9099,5.9338,5.9937,5.9967,6.0236,6.0837,6.0894,6.0896,6.1014,6.1014,6.1044,6.1076,6.1076,6.1076,6.1076,6.1076,6.1076,6.1076,6.1044,6.1014,6.0956,6.0896,6.0894,6.0894,6.0894,6.0894,6.0894,6.0894,6.0894,6.0717,5.9548,5.9099,5.9099,5.9099,5.9099,5.9099,5.9099,5.9099,5.9099,5.9099,5.9518,5.9967,5.9967,6.0416,6.0894,6.0894,6.0894,6.0894,6.0894,6.0894,6.0894,6.0894,6.0894,6.0894,6.0894,6.0894,6.0894,6.0894,6.0894,6.0448,5.9279,5.9099,5.9099,5.9099,5.9099,5.9099,5.9099,5.9099,5.9099,5.9099,5.9099,5.9099,5.9099,6.0176,6.0276,5.9153,6.1331,6.1995,6.0815,6.1946,6.2568,6.2568,6.2568,6.2641,6.2755,6.2755,6.2619,5.0301,5.0601,0.0,0.0,5.1798,5.1887,5.2276,5.2576,5.2875,5.3294,5.4132,5.497,5.5683,5.6615,5.7393,0.0,5.8234,5.8683,5.8683,5.9249,5.9668,5.9668,6.0027,6.0116,5.9727,6.0027,6.0386,6.0655,6.0685,6.0805,6.1076,6.1076,6.1283,6.1672,6.1672,6.1882,6.2241,6.2241,6.2241,6.2241,6.2241,6.2241,6.2241,6.1852,6.1493,6.1076,6.1076,6.1076,6.1076,6.1076,6.1076,6.1076,6.1076,6.1076,6.1016,6.0448,6.0266,6.0266,6.0266,6.0266,6.0266,6.0266,6.0266,6.0266,6.0266,6.0989,6.1844,6.1844,6.2058,6.2272,6.2272,6.1679,6.1076,6.1076,6.1709,6.2059,6.1271,6.1706,6.2032,6.1271,6.1734,6.2272,6.2272,6.2937,6.3011,6.1641,6.0754,6.0116,5.9727,5.9668,5.9518,5.9129,5.9099,5.9099,5.9099,6.0206,6.0892,6.0892,6.2496,6.3192,6.2663,6.3701,6.4016,6.3469,6.3991,6.4294,6.4294,6.4294,6.4683,6.5399,6.5399,6.5806,5.1832,0.0,0.0,5.2432,5.2486,5.2636,5.3324,5.3618,5.3947,5.461,5.5418,5.6137,5.6615,5.7633,5.8384,5.8384,5.8773,5.9159,5.9338,5.9787,6.0174,6.0356,6.0984,6.1194,6.0685,6.0924,6.1194,6.1373,6.1373,6.1463,6.1642,6.1642,6.1882,6.2361,6.2361,6.26,6.3108,6.3108,6.3108,6.3108,6.3108,6.3108,6.3078,6.26,6.2121,6.1642,6.1642,6.1642,6.1642,6.1642,6.1642,6.1671,6.2061,6.2198,6.2254,6.2637,6.2284,6.1654,6.1654,6.1898,6.2222,6.2222,6.2222,6.2222,6.2222,6.3035,6.397,6.397,6.4095,6.4225,6.4225,6.3521,6.2771,6.2771,6.3521,6.3936,6.2989,6.3547,6.3936,6.2989,6.3574,6.4225,6.4225,6.5104,6.5408,6.4382,6.3387,6.2196,6.0586,6.0386,6.0176,5.9697,5.9668,5.9801,6.0173,6.1581,6.2612,6.2993,6.4722,6.5577,6.5208,6.5869,6.6087,6.5748,6.6095,6.6287,6.6287,6.6287,6.6738,6.7663,6.7663,6.8283,5.3847,5.4342,5.4615,5.3453,5.3169,5.3348,5.4012,5.467,5.5354,5.6013,5.7124,5.8025,5.8025,5.862,5.9069,5.9069,5.9099,5.9338,5.9994,6.0114,6.0326,6.1014,6.1672,6.2061,0.0,6.1463,6.1373,6.2032,6.2061,6.2331,6.3018,6.3048,6.3048,6.3078,6.3078,6.3078,6.3108,6.3108,6.3108,6.3108,6.3108,6.3108,6.3108,6.3078,6.3078,6.3048,6.3048,6.3048,6.3048,6.3048,6.3048,6.3162,6.4479,6.4998,6.513,6.6537,6.5313,6.3034,6.3034,6.3946,6.5084,6.5084,6.5084,6.5084,6.5084,6.5564,6.6133,6.6133,6.6563,6.7074,6.7074,6.7049,6.6997,6.6997,6.7049,6.7049,6.6997,6.7049,6.7049,6.6997,6.7049,6.7074,6.7074,6.71,6.7126,6.7074,6.7023,6.556,6.1586,6.1074,6.1046,6.1016,6.1016,6.1566,6.2871,6.303,6.3657,6.5027,6.635,6.6493,6.5258,6.765,6.8361,6.7089,6.8317,6.897,6.897,6.897,6.8992,6.9035,6.9035,6.9463,5.3873,5.4189,5.4939,5.4597,5.4546,5.504,5.6989,5.6945,5.6899,5.8481,5.8408,5.8234,5.8683,5.8949,5.9249,5.9668,5.9757,5.9997,6.0685,6.1134,6.1493,6.1732,6.272,0.0,0.0,0.0,0.0,6.3318,6.3348,6.3647,6.4336,6.4366,6.4366,6.4366,6.4366,6.4366,6.4366,6.4366,6.4366,6.4366,6.4366,6.4366,6.4366,6.4366,6.4366,6.4366,6.4366,6.4366,6.4366,6.4366,6.4949,6.5888,6.6335,6.7074,6.8017,6.8461,6.8673,6.8406,6.6472,6.6128,6.6511,6.6511,6.6511,6.6511,6.6511,6.7332,6.8193,6.8193,6.8356,6.8528,6.8528,6.7849,6.719,6.719,6.7874,6.8306,6.7394,6.7874,6.8281,6.7368,6.7899,6.8528,6.8528,6.9322,6.9585,6.8675,6.7386,6.602,6.4648,6.4105,6.3823,6.3823,6.3823,6.3997,6.4425,6.5724,6.6672,6.7164,6.8905,6.9689,6.9274,7.0074,7.0355,6.9905,7.0333,7.0567,7.0567,7.1041,7.1278,7.1312,7.1785,7.2124,5.5874,5.641,5.7326,5.6978,5.7095,5.777,5.9687,5.9477,5.9288,6.082,6.0451,5.9967,6.0397,6.0284,6.0274,6.0698,6.0998,6.1258,6.1427,6.2451,6.3271,6.3512,6.4026,6.4745,0.0,0.0,0.0,6.4365,6.4366,6.4575,6.4964,6.4994,6.4994,6.4994,6.4994,6.4994,6.4994,6.4994,6.4994,6.4994,6.4994,6.4994,6.4994,6.4994,6.4994,6.5024,6.5555,6.5788,6.5817,6.6365,6.7128,6.8037,6.8554,6.9329,7.0189,7.0707,7.1441,7.189,6.9562,6.9029,6.946,6.946,6.946,6.946,6.946,7.0048,7.0738,7.0738,7.0738,7.0738,7.0738,7.0105,6.946,6.946,7.0096,7.049,6.9633,7.012,7.0466,6.9633,7.0153,7.0738,7.0738,7.1495,7.1782,7.0856,6.9628,6.825,6.6733,6.6184,6.5895,6.5895,6.5895,6.6217,6.6946,6.8207,6.9282,7.0029,7.1341,7.209,7.209,7.209,7.209,7.209,7.209,7.209,7.209,7.2563,7.28,7.28,7.3297,7.35,5.9535,6.0598,6.1425,6.0296,6.0527,6.1224,6.1962,6.2107,6.2275,6.294,6.3052,6.3004,0.0,0.0,6.2125,6.2156,6.2767,6.3056,6.2513,6.4064,6.5557,0.0,0.0,0.0,0.0,0.0,0.0,6.5203,0.0,6.5173,6.5203,6.5143,6.5084,6.5084,6.5084,6.5084,6.5084,6.5084,6.5084,6.5084,6.5173,6.5203,6.5203,6.5292,6.5351,6.541,6.6827,6.7414,6.7526,6.8918,6.9557,6.9741,7.1065,7.1656,7.1878,7.3124,7.3635,7.3439,7.2147,7.2476,7.35,7.35,7.35,7.35,7.35,7.35,7.35,7.35,7.35,7.35,7.35,7.35,7.35,7.35,7.35,7.35,7.35,7.35,7.35,7.35,7.35,7.35,7.35,7.35,7.35,7.35,7.35,7.2051,6.8039,6.7522,6.7522,6.7522,6.7522,6.8313,7.0296,7.0451,7.1322,7.3397,7.35,7.35,7.35,7.35,7.35,7.35,7.35,7.35,7.35,7.3534,7.3567,7.3567,7.3601,7.3635,5.99,6.0739,6.1666,6.152,6.1603,6.2181,6.3773,6.3426,6.3067,6.4165,6.3671,6.3004,0.0,0.0,0.0,6.4209,6.4926,0.0,6.6606,6.7161,0.0,6.85,0.0,6.8906,6.8548,6.8621,0.0,0.0,6.7055,6.7604,6.8096,6.7094,6.649,6.649,6.649,6.649,6.649,6.649,6.649,6.649,6.7599,6.8126,6.8155,6.9274,6.9776,6.9804,7.0192,7.0326,7.0353,7.0708,7.154,7.2564,7.2937,7.37,7.4671,7.5016,7.5134,7.5087,7.4743,7.4131,7.35,7.35,7.35,7.35,7.35,7.35,7.35,7.35,7.35,7.35,7.35,7.35,7.35,7.35,7.35,7.35,7.35,7.35,7.35,7.35,7.35,7.35,7.35,7.35,7.35,7.35,7.35,7.3099,7.2028,7.189,7.189,7.189,7.189,7.2109,7.264,7.2697,7.2915,7.3477,7.35,7.35,7.35,7.35,7.35,7.35,7.35,7.35,7.35,7.4052,7.4322,7.4322,7.4864,7.5134,6.1391,6.2435,6.3472,6.3617,6.3866,6.4407,6.5481,6.5171,6.4879,6.5581,6.5148,0.0,6.4675,6.5055,0.0,0.0,0.0,0.0,6.8248,6.9053,6.9685,0.0,7.0444,0.0,7.0563,7.1201,7.1533,0.0,6.9073,6.7839,6.8206,6.7457,6.6999,6.6999,6.6999,6.6999,6.6999,6.7971,6.8454,6.8484,7.0264,7.1108,7.1137,7.1983,7.2371,7.2398,0.0,7.3323,7.3376,7.4019,7.4754,7.5531,7.5539,7.6021,7.669,7.669,7.669,7.669,7.669,7.6149,7.5361,7.4684,7.4458,7.4458,7.4458,7.4458,7.4458,7.4458,7.4458,7.4458,7.4458,7.4458,7.4458,7.4458,7.4458,7.4458,7.4458,7.4458,7.4458,7.4458,7.4458,7.4458,7.4458,7.4458,7.4458,7.4458,7.4458,7.4458,7.4458,7.3883,7.35,7.35,7.35,7.3635,7.395,7.3984,7.4119,7.4424,7.4458,7.4458,7.4458,7.4458,7.4458,7.4458,7.4458,7.4458,7.4458,7.4864,7.527,7.5642,7.6048,7.6386,6.3397,6.4715,6.5717,6.5797,6.6339,6.6791,6.6791,6.6791,6.6791,6.6791,0.0,6.6791,6.6791,6.7057,6.7285,6.7285,0.0,6.9491,6.9057,7.0589,7.1587,7.1134,7.1719,7.2544,7.3646,7.4408,7.5315,7.6373,7.1136,6.785,6.785,6.785,6.788,6.788,6.788,6.788,6.788,6.9804,7.0756,7.0756,7.2871,7.389,7.3918,7.4112,7.4194,7.4249,0.0,0.0,7.6184,7.7463,7.8,7.8,7.8,7.8,7.8,7.8,7.8,7.8,7.8,7.8,7.7773,7.642,7.6014,7.6014,7.6014,7.6014,7.598,7.5879,7.5845,7.5845,7.5743,7.5709,7.5709,7.5709,7.5709,7.5709,7.5709,7.5709,7.5709,7.5709,7.5709,7.5709,7.5709,7.5709,7.5709,7.5709,7.5709,7.5709,7.5709,7.4559,7.3804,7.3804,7.3804,7.4052,7.4671,7.4762,7.5033,7.5676,7.5709,7.5743,7.5845,7.5845,7.5912,7.598,7.6014,7.6014,7.6014,7.6014,7.6352,7.7063,7.7063,7.7401,6.4664,6.5514,6.5852,6.6474,6.669,6.6791,6.6791,6.6791,0.0,0.0,6.6791,6.6791,6.6791,6.7858,6.8739,6.8739,7.049,7.2003,7.2522,7.3413,7.42,0.0,0.0,0.0,0.0,0.0,0.0,0.0,0.0,7.2439,7.2382,7.2411,7.2439,7.2439,7.2439,7.2439,7.2439,7.285,7.3026,7.3055,7.4648,7.5417,7.547,7.6689,7.7263,7.7263,0.0,0.0,7.7646,7.7902,7.8,7.8,7.8,7.8,7.8,7.8,7.8,7.8,7.8,7.8,7.7967,7.7696,7.7594,7.7594,7.7594,7.7594,7.7468,7.686,7.669,7.6555,7.5879,7.5709,7.5709,7.5709,7.5709,7.5709,7.5709,7.5709,7.5709,7.5709,7.5709,7.5709,7.5709,7.5709,7.5709,7.5709,7.5709,7.5709,7.5709,7.5473,7.5303,7.5303,7.5303,7.5371,7.5506,7.5506,7.5574,7.5676,7.5709,7.598,7.6657,7.669,7.6961,7.757,7.7594,7.7594,7.7594,7.7594,7.7671,7.7807,7.7807,7.7899,6.4909,6.5967,6.6373,6.669,6.6791,6.6791,6.6791,0.0,0.0,0.0,6.6791,6.6791,6.6791,6.8064,6.9113,6.9113,7.0973,7.2665,7.3398,7.4119,7.4603,7.4587,7.5965,0.0,0.0,0.0,0.0,0.0,0.0,7.6016,7.37,7.3584,7.3612,7.3612,7.3612,7.3612,7.3612,7.4743,7.5321,7.5353,7.7198,7.808,7.8106,7.8817,7.9126,7.9126,7.9126,0.0,7.9126,7.9126,7.9126,7.9126,7.9126,7.9126,7.9126,7.9126,7.9126,7.9126,7.9126,7.9126,7.9126,7.9126,7.8619,7.8,7.8,7.8,7.7933,7.757,7.7468,7.7367,7.6995,7.6893,7.6893,7.6893,7.6893,7.6893,7.6893,7.6893,7.6893,7.6893,7.6893,7.6893,7.6893,7.6893,7.6893,7.6893,7.6893,7.6893,7.6893,7.6893,7.6758,7.6352,7.6657,7.6893,7.6893,7.6893,7.6893,7.6893,7.6893,7.7063,7.7435,7.7468,7.7638,7.7976,7.8,7.8,7.8,7.8,7.8179,7.8585,7.8585,7.8788,6.5127,6.6373,6.6791,6.6791,6.6791,6.6791,6.6791,6.6791,0.0,6.6791,6.6791,6.6791,6.6791,6.8064,6.9113,6.9113,7.1075,7.2834,7.3432,7.4255,7.4686,0.0,7.5979,0.0,0.0,0.0,0.0,0.0,0.0,0.0,7.5206,7.4702,7.4674,7.5005,7.5005,7.5005,7.5005,7.6735,7.7622,7.7622,7.9355,8.0209,8.0209,8.0209,8.0209,8.0209,8.0209,0.0,0.0,8.0209,8.0209,8.0209,8.0209,8.0209,8.0209,8.0209,8.0209,8.0209,8.0209,8.0209,8.0209,8.0209,7.9431,7.845,7.845,7.845,7.8416,7.828,7.8247,7.8179,7.8044,7.8,7.8,7.8,7.8,7.8,7.8,7.8,7.8,7.8,7.8,7.8,7.8,7.8,7.8,7.8,7.8,7.8,7.8,7.8145,7.801,7.7435,7.7739,7.8,7.8,7.8,7.8,7.8,7.8,7.8044,7.8213,7.8247,7.8314,7.845,7.845,7.845,7.845,7.845,7.8754,7.9363,7.9363,7.9667,6.5935,6.6757,6.6791,6.6791,6.6791,6.6791,6.6791,0.0,6.6791,6.6791,6.6791,6.6791,6.6791,6.8064,6.9113,6.9113,7.1515,7.3432,7.35,7.4695,7.5831,7.6545,0.0,0.0,0.0,0.0,0.0,0.0,0.0,0.0,7.9642,7.8252,7.8146,7.9558,7.9583,7.9583,7.9583,7.9812,7.9896,7.9896,8.009,8.0209,8.0209,8.0209,8.0209,8.0209,0.0,0.0,0.0,8.0209,8.0209,8.0209,8.0209,8.0209,8.0209,8.0209,8.0209,8.0209,8.0209,8.0209,8.0209,8.0209,8.0107,8.0006,8.0006,8.0006,7.987,7.9194,7.9,7.8855,7.8145,7.8,7.8,7.8,7.8,7.8,7.8,7.8,7.8,7.8,7.8,7.8,7.8,7.8,7.8,7.8,7.8,7.8,7.8,7.8585,7.8991,7.8923,7.8348,7.8,7.8,7.8,7.8,7.8,7.8,7.828,7.8991,7.9,7.9329,7.9972,8.0006,8.0006,8.0006,8.0006,8.004,8.0107,8.0107,8.0141,6.5682,6.6235,6.5855,6.661,6.6791,6.6791,6.6791,0.0,6.6791,6.6791,6.6791,6.6791,6.6791,6.8064,6.9113,6.9113,7.1582,7.35,7.35,7.4762,7.598,7.6792,7.7536,0.0,0.0,0.0,0.0,0.0,0.0,0.0,8.0209,7.9632,7.958,8.0183,8.0209,8.0209,8.0209,8.0209,8.0209,8.0209,8.0209,8.0209,8.0209,8.0209,8.0209,8.0209,0.0,0.0,0.0,8.0209,8.0209,8.0209,8.0209,8.0209,8.0209,8.0209,8.0209,8.0209,8.0209,8.0209,8.0209,8.0209,8.0209,8.0209,8.0209,8.0209,8.0141,7.9837,7.9769,7.9701,7.9397,7.9329,7.9329,7.9329,7.9329,7.9329,7.9329,7.9329,7.9329,7.9329,7.9329,7.9329,7.9329,7.9329,7.9329,7.9329,7.9329,7.9329,7.9329,7.9566,7.9769,7.9769,7.9498,7.9329,7.9329,7.9329,7.9329,7.9329,7.9329,7.9464,7.9769,7.9769,7.9904,8.0175,8.0209,8.0209,8.0209,8.0209,8.0209,8.0209,8.0209,8.0209,6.494,6.5581,6.5215,6.6482,6.6791,6.6791,0.0,0.0,6.632,6.6728,6.6503,6.6235,6.6235,6.7793,6.897,6.8573,7.1311,7.35,7.35,7.4762,7.6082,7.7096,0.0,0.0,0.0,0.0,0.0,0.0,0.0,0.0,0.0,8.0209,8.0209,8.0209,8.0209,8.0209,8.0209,8.0209,8.0209,8.0209,8.0209,8.0209,8.0209,8.0209,8.0209,8.0209,0.0,0.0,0.0,8.0209,8.0209,8.0209,8.0209,8.0209,8.0209,8.0209,8.0209,8.0209,8.0209,8.0209,8.0209,8.0209,8.0209,8.0209,8.0209,8.0209,8.0209,8.0209,8.0209,8.0209,8.0209,8.0209,8.0209,8.0209,8.0209,8.0209,8.0209,8.0209,8.0209,8.0209,8.0209,8.0209,8.0209,8.0209,8.0209,8.0209,8.0209,8.0209,8.0209,8.0209,8.0209,8.0209,8.0209,8.0209,8.0209,8.0209,8.0209,8.0209,8.0209,8.0209,8.0209,8.0209,8.0209,8.0209,8.0209,8.0209,8.0209,8.0209,8.0209,8.0209,8.0209,8.031,6.3884,6.4891,6.5215,6.6482,6.6791,6.6791,6.6791,6.5833,6.5282,6.6546,6.5811,6.4914,6.4914,6.7201,6.8672,6.7354,7.0716,7.35,7.35,7.4762,7.6251,0.0,0.0,0.0,0.0,0.0,0.0,0.0,0.0,0.0,0.0,8.0209,8.0209,8.0209,8.0209,8.0209,8.0209,8.0209,8.0209,8.0209,8.0209,8.0209,8.0209,8.0209,8.0209,0.0,0.0,0.0,0.0,8.0209,8.0209,8.0209,8.0209,8.0209,8.0209,8.0209,8.0209,8.0209,8.0209,8.0209,8.0209,8.0209,8.0209,8.0209,8.0209,8.0209,8.0209,8.0209,8.0209,8.0209,8.0209,8.0209,8.0209,8.0209,8.0209,8.0209,8.0209,8.0209,8.0209,8.0209,8.0209,8.0209,8.0209,8.0209,8.0209,8.0209,8.0209,8.0209,8.0209,8.0209,8.0209,8.0209,8.0209,8.0209,8.0209,8.0209,8.0209,8.0209,8.0209,8.0209,8.0209,8.0209,8.0209,8.0209,8.0209,8.0209,8.0209,8.0209,8.0209,8.0209,8.0209,8.0581,6.2644,6.2916,6.2771,6.4936,6.5514,6.5712,6.6588,6.6503,6.6299,6.6728,6.6482,6.6347,6.6851,6.813,6.9139,6.9222,7.1626,7.35,7.35,7.4762,0.0,7.7831,7.8889,0.0,0.0,0.0,0.0,0.0,0.0,0.0,0.0,8.0209,8.0209,8.0209,8.0209,8.0209,8.0209,8.0209,8.0209,8.0209,8.0209,8.0209,8.0209,8.0209,0.0,0.0,0.0,0.0,0.0,8.0209,8.0209,8.0209,8.0209,8.0209,8.0209,8.0209,8.0513,8.0953,8.0953,8.1291,8.1697,8.1697,8.1697,8.1629,8.1088,8.0581,8.0209,8.0209,8.0209,8.0209,8.0209,8.0209,8.0209,8.0209,8.0209,8.0209,8.0209,8.0209,8.0209,8.0209,8.0209,8.0209,8.0209,8.0209,8.0209,8.0209,8.0209,8.0209,8.0209,8.0209,8.0209,8.0209,8.0209,8.0209,8.0209,8.0209,8.0209,8.0209,8.0209,8.0209,8.0209,8.0209,8.0209,8.0209,8.0209,8.0445,8.0953,8.0953,8.119,8.1697,8.1697,8.1832,6.1552,6.1646,6.1615,6.4243,6.4891,0.0,6.5898,6.6072,6.6072,6.6072,6.6072,6.6306,6.7043,6.8222,6.9184,6.9412,7.1715,7.35,7.35,0.0,0.0,7.7831,0.0,0.0,0.0,0.0,0.0,0.0,0.0,0.0,0.0,8.0615,8.075,8.1021,8.075,8.075,8.1021,8.1021,8.1021,8.1021,8.1021,8.1021,8.1021,8.1021,0.0,0.0,0.0,0.0,0.0,8.1021,8.1021,8.1021,8.1021,8.1021,8.1021,8.1021,8.1325,8.1697,8.1697,8.2035,8.2408,8.2408,8.2408,8.2306,8.1832,8.1021,8.0209,8.0209,8.0209,8.0209,8.0209,8.0209,8.0209,8.0209,8.0209,8.0209,8.0209,8.0209,8.0209,8.0209,8.0209,8.0209,8.0209,8.0209,8.0209,8.0209,8.0209,8.0209,8.0209,8.0209,8.0209,8.0209,8.0209,8.0209,8.0209,8.0209,8.0209,8.0209,8.0209,8.0209,8.0209,8.0479,8.0615,8.0615,8.0885,8.1257,8.1697,8.1697,8.1934,8.2408,8.2408,8.2543,0.0,6.0866,6.1496,6.4105,6.4688,6.4688,6.4959,6.4992,0.0,6.5036,6.5092,6.5356,6.6083,6.7848,6.9031,6.8572,7.1299,7.3534,0.0,7.4897,0.0,0.0,0.0,0.0,0.0,0.0,0.0,0.0,0.0,0.0,0.0,8.1384,8.1697,8.2475,8.1799,8.1765,8.2382,8.2408,8.2408,8.2408,8.2408,8.2408,8.2408,8.2408,0.0,0.0,0.0,0.0,0.0,8.2408,8.2408,8.2408,8.2408,8.2408,8.2408,8.2408,8.2441,8.2475,8.2475,8.2509,8.2577,8.2577,8.2543,8.2475,8.2475,8.1494,8.0344,8.0344,8.0344,8.0344,8.0344,8.0344,8.0344,8.0344,8.0344,8.0344,8.0276,8.0276,8.0242,8.0209,8.0242,8.0276,8.0276,8.031,8.0344,8.0344,8.0344,8.0344,8.0344,8.0344,8.0344,8.0344,8.0344,8.0344,8.0344,8.031,8.0276,8.0276,8.031,8.0344,8.0344,8.0987,8.1384,8.1384,8.2103,8.2475,8.2475,8.2517,8.2577,8.2577,8.2577,8.2915,5.9473,0.0,6.015,6.2779,6.2682,6.2699,0.0,6.5603,6.5171,6.617,6.6779,6.744,6.8247,6.9242,7.0242,7.1253,7.2605,7.368,7.4255,0.0,0.0,7.872,0.0,0.0,0.0,0.0,0.0,0.0,0.0,0.0,0.0,8.2137,8.2475,8.3219,8.305,8.2813,8.2408,8.2408,8.2408,8.2408,8.2408,8.2408,8.2408,8.2408,0.0,0.0,0.0,0.0,8.2408,8.2408,8.2408,8.2408,8.2408,8.2408,8.2408,8.2408,8.278,8.3253,8.3253,8.3625,8.4072,8.4072,8.3727,8.3253,8.3253,8.2611,8.19,8.19,8.19,8.19,8.19,8.19,8.19,8.19,8.19,8.1731,8.1156,8.1021,8.0851,8.031,8.0648,8.1021,8.1021,8.1494,8.19,8.19,8.19,8.19,8.19,8.19,8.19,8.19,8.19,8.19,8.19,8.1359,8.1021,8.1021,8.1562,8.19,8.19,8.2069,8.2137,8.2137,8.2881,8.3253,8.3253,8.3802,8.4072,8.4072,8.4072,8.4174,5.9099,5.9099,5.9576,6.1571,6.1546,6.154,6.3653,6.4518,6.4756,6.4243,6.6146,6.7981,6.816,6.9267,7.0669,7.2157,7.3003,0.0,0.0,0.0,7.8653,7.9034,0.0,0.0,0.0,0.0,0.0,0.0,0.0,0.0,0.0,8.2915,8.3253,8.3998,8.3998,8.3802,8.3396,8.3396,8.3396,8.3396,8.3396,8.3396,8.3396,8.3396,0.0,0.0,0.0,0.0,8.3396,8.3396,8.3396,8.3396,8.3396,8.3396,8.3396,8.3396,8.3659,8.3998,8.3998,8.4275,8.4614,8.4614,8.4309,8.3998,8.3998,8.3727,8.3261,8.2611,8.2408,8.2408,8.2408,8.2408,8.2408,8.2408,8.2408,8.2306,8.19,8.1799,8.1697,8.1291,8.1528,8.1799,8.1799,8.2137,8.2408,8.2408,8.2408,8.2408,8.2408,8.2408,8.2408,8.2408,8.2408,8.2408,8.2408,8.234,8.2171,8.1832,8.2171,8.2408,8.2408,8.2746,8.3084,8.3396,8.3828,8.3998,8.4031,8.4411,8.4614,8.4614,8.4614,8.4614,5.9099,5.9099,5.9419,6.0686,6.0866,6.0866,6.1471,6.3012,6.3882,6.2362,6.5101,6.7734,6.7594,6.9177,7.0973,0.0,0.0,0.0,7.6792,7.8247,7.916,7.9261,0.0,0.0,0.0,0.0,0.0,0.0,0.0,0.0,0.0,8.3659,8.3964,8.458,8.4614,8.4614,8.4614,8.4614,8.4614,8.4614,8.4614,8.4614,8.4614,8.4614,8.4614,0.0,0.0,0.0,8.4614,8.4614,8.4614,8.4614,8.4614,8.4614,8.4614,8.4614,8.4614,8.4614,8.4614,8.4614,8.4614,8.4614,8.4614,8.4614,8.4614,8.4614,8.4343,8.3092,8.2746,8.2746,8.2746,8.2746,8.2746,8.2746,8.2746,8.2712,8.2611,8.2577,8.2543,8.2441,8.2509,8.2577,8.2577,8.2678,8.2746,8.2746,8.2746,8.2746,8.2746,8.2746,8.2746,8.2746,8.2746,8.2746,8.2746,8.3321,8.3389,8.278,8.2746,8.2746,8.2746,8.3355,8.3964,8.458,8.4614,8.4614,8.4614,8.4614,8.4614,8.4614,8.4614,8.4614,5.9099,5.9099,5.9419,6.0686,6.0202,6.0255,6.3535,6.2892,6.259,6.6145,6.7022,6.7742,6.9424,7.0996,7.2326,0.0,0.0,7.6724,0.0,0.0,0.0,0.0,0.0,0.0,0.0,0.0,0.0,0.0,0.0,0.0,0.0,8.4411,8.4478,8.4614,8.4614,8.4614,8.4614,8.4614,8.4614,8.4614,8.4614,8.4614,8.4614,8.4614,8.4614,0.0,0.0,8.4614,8.4614,8.4614,8.4614,8.4614,8.4614,8.4614,8.4614,8.4614,8.4614,8.4614,8.4614,8.4614,8.4614,8.4614,8.4614,8.4614,8.4614,8.4614,8.4546,8.4309,8.4242,8.4242,8.4242,8.4242,8.4242,8.4242,8.4242,8.4072,8.3456,8.3321,8.3152,8.2543,8.2915,8.3321,8.3321,8.3862,8.4242,8.4242,8.4242,8.4242,8.4242,8.4242,8.4242,8.4242,8.4242,8.4242,8.4242,8.4377,8.4377,8.4275,8.4242,8.4242,8.4242,8.4377,8.4478,8.4614,8.4614,8.4614,8.4614,8.4614,8.4614,8.4614,8.4614,8.4614,5.9099,5.9099,5.9419,6.0686,6.0045,5.9762,6.2211,6.2717,6.3295,6.5419,6.7418,6.8985,6.9651,7.1207,7.2902,7.4424,0.0,7.7739,0.0,0.0,0.0,0.0,0.0,0.0,0.0,0.0,0.0,0.0,0.0,0.0,0.0,0.0,8.4614,8.4614,8.4614,8.4614,8.4614,8.4614,8.4614,8.4614,8.4614,8.4614,8.4614,8.4614,8.4614,8.4614,0.0,8.4614,8.4614,8.4614,8.4614,8.4614,8.4614,8.4614,8.4614,8.4614,8.4614,8.4614,8.4614,8.4614,8.4614,8.4614,8.4614,8.4614,8.4614,8.4614,8.4614,8.4614,8.4614,8.4614,8.4614,8.4614,8.4614,8.4614,8.4614,8.4512,8.4167,8.4072,8.3998,8.3633,8.3836,8.4072,8.4072,8.4377,8.4614,8.4614,8.4614,8.4614,8.4614,8.4614,8.4614,8.4614,8.4614,8.4614,8.4614,8.4614,8.4614,8.4614,8.4614,8.4614,8.4614,8.4614,8.4614,8.4614,8.4614,8.4614,8.4614,8.4614,8.4614,8.4614,8.4614,8.4614,5.9099,5.9099,5.9339,6.0302,5.9811,5.9663,6.1683,6.2925,6.4026,6.527,6.791,7.0039,7.0082,7.165,0.0,7.5642,7.7096,0.0,0.0,0.0,0.0,0.0,0.0,0.0,0.0,0.0,0.0,0.0,0.0,0.0,0.0,0.0,8.4614,8.4614,8.4614,8.4614,8.4614,8.4614,8.4614,8.4614,8.4614,8.4614,8.4614,8.4614,8.4614,8.4614,8.4614,8.4614,8.4614,8.4614,8.4614,8.4614,8.4614,8.4614,8.4614,8.4614,8.4614,8.4614,8.4614,8.4614,8.4614,8.4614,8.4614,8.4614,8.4614,8.4614,8.4614,8.4614,8.4614,8.4614,8.4614,8.4614,8.4614,8.4614,8.4614,8.4614,8.4614,8.4614,8.4614,8.4614,8.4614,8.4614,8.4614,8.4614,8.4614,8.4614,8.4614,8.4614,8.4614,8.4614,8.4614,8.4614,8.4614,8.4614,8.4614,8.4614,8.4614,8.4614,8.4614,8.4614,8.4614,8.4614,8.4614,8.4614,8.4614,8.4614,8.4614,8.4614,8.4614,8.4614,8.4614,8.4614,5.9099,5.9099,5.9126,5.9234,5.918,6.0228,6.4645,6.3923,6.3741,6.8727,6.9582,7.0021,7.186,7.3407,7.4965,7.6555,7.7468,0.0,0.0,0.0,0.0,0.0,0.0,0.0,0.0,0.0,0.0,0.0,0.0,0.0,0.0,0.0,0.0,8.4614,8.4614,8.4614,8.4614,8.4614,8.4614,8.4614,8.4614,8.4614,8.4614,8.4614,8.4614,8.4614,8.4614,8.4614,8.4614,8.4614,8.4614,8.4614,8.4614,8.4614,8.4614,8.4614,8.4614,8.4614,8.4614,8.4614,8.4614,8.4614,8.4614,8.4614,8.4614,8.4614,8.4614,8.4614,8.4614,8.4614,8.4614,8.4614,8.4614,8.4614,8.4614,8.4614,8.4614,8.4614,8.4614,8.4614,8.4614,8.4614,8.4614,8.4614,8.4614,8.4614,8.4614,8.4614,8.4614,8.4614,8.4614,8.4614,8.4614,8.4614,8.4614,8.4614,8.4614,8.4614,8.4614,8.4614,8.4614,8.4614,8.4614,8.4614,8.4614,8.4614,8.4614,8.4614,8.4614,8.4614,8.4614,8.4614,5.9099,5.9099,5.9405,6.0593,6.0288,6.0616,6.4037,6.4749,6.5628,6.8838,7.0453,0.0,0.0,0.0,7.6386,7.7401,7.8213,0.0,0.0,0.0,0.0,0.0,0.0,0.0,0.0,0.0,0.0,0.0,0.0,0.0,0.0,0.0,0.0,8.4614,8.4614,8.4614,8.4614,8.4614,8.4614,8.4614,8.4614,8.4614,8.4614,8.4614,8.4614,8.4614,8.4614,8.4614,8.4614,8.4614,8.4614,8.4614,8.4614,8.4614,8.4614,8.4614,8.4614,8.4614,8.4614,8.4614,8.4614,8.4614,8.4614,8.4614,8.4614,8.4614,8.4614,8.4614,8.4614,8.4614,8.4614,8.4614,8.4614,8.4614,8.4614,8.4614,8.4614,8.4614,8.4614,8.4614,8.4614,8.4614,8.4614,8.4614,8.4614,8.4614,8.4614,8.4614,8.4614,8.4614,8.4614,8.4614,8.4614,8.4614,8.4614,8.4614,8.4614,8.4614,8.4614,8.4614,8.4614,8.4614,8.4614,8.4614,8.4614,8.4614,8.4614,8.4614,8.4614,8.4614,8.4614,8.4614,5.9099,5.9099,5.957,6.1554,6.1206,6.1376,6.4949,6.5806,6.6652,6.9568,7.1704,7.3544,7.5067,0.0,0.0,0.0,0.0,0.0,0.0,0.0,0.0,0.0,0.0,0.0,0.0,0.0,0.0,0.0,0.0,0.0,0.0,0.0,0.0,0.0,8.4614,8.4614,8.4614,8.4614,8.4614,8.4614,8.4614,8.4614,8.4614,8.4614,8.4614,8.4614,8.4614,8.4614,8.4614,8.4614,8.4614,8.4614,8.4614,8.4614,8.4614,8.4614,8.4614,8.4614,8.4614,8.4614,8.4614,8.4614,8.4614,8.4614,8.4614,8.4614,8.4614,8.4614,8.4614,8.4614,8.4614,8.4614,8.4614,8.4614,8.4614,8.4614,8.4614,8.4614,8.4614,8.4614,8.4614,8.4614,8.4614,8.4614,8.4614,8.4614,8.4614,8.4614,8.4614,8.4614,8.4614,8.4614,8.4614,8.4614,8.4614,8.4614,8.4614,8.4614,8.4614,8.4614,8.4614,8.4614,8.4614,8.4614,8.4614,8.4614,8.4614,8.4614,8.4614,8.4614,8.4614,8.4614,5.9099,5.9099,5.9627,6.1689,6.1656,6.2561,6.8136,6.717,6.6501,7.1396,7.3589,7.5077,7.6623,7.6893,0.0,0.0,0.0,0.0,0.0,0.0,0.0,0.0,0.0,0.0,0.0,0.0,0.0,0.0,0.0,0.0,0.0,0.0,0.0,0.0,8.4614,8.4614,8.4614,8.4614,8.4614,8.4614,8.4614,8.4614,8.4614,8.4614,8.4614,8.4614,8.4614,8.4614,8.4614,8.4614,8.4614,8.4614,8.4614,8.4614,8.4614,8.4614,8.4614,8.4614,8.4614,8.4614,8.4614,8.4614,8.4614,8.4614,8.4614,8.4614,8.4614,8.4614,8.4614,8.4614,8.4614,8.4614,8.4614,8.4614,8.4614,8.4614,8.4614,8.4614,8.4614,8.4614,8.4614,8.4614,8.4614,8.4614,8.4614,8.4614,8.4614,8.4614,8.4614,8.4614,8.4614,8.4614,8.4614,8.4614,8.4614,8.4614,8.4614,8.4614,8.4614,8.4614,8.4614,8.4614,8.4614,8.4614,8.4614,8.4614,8.4614,8.4614,8.4614,8.4614,8.4614,8.4614,5.9099,6.0179,6.13,6.1389,6.2326,6.4177,6.7818,6.7958,6.8589,7.3026,7.3921,7.4514,7.6521,0.0,0.0,0.0,0.0,0.0,0.0,0.0,0.0,0.0,0.0,0.0,0.0,0.0,0.0,0.0,0.0,0.0,0.0,0.0,0.0,0.0,8.4614,8.4614,8.4614,8.4614,8.4614,8.4614,8.4614,8.4614,8.4614,8.4614,8.4614,8.4614,8.4614,8.4614,8.4614,8.4614,8.4614,8.4614,8.4614,8.4614,8.4614,8.4614,8.4614,8.4614,8.4614,8.4614,8.4614,8.4614,8.4614,8.4614,8.4614,8.4614,8.4614,8.4614,8.4614,8.4614,8.4614,8.4614,8.4614,8.4614,8.4614,8.4614,8.4614,8.4614,8.4614,8.4614,8.4614,8.4614,8.4614,8.4614,8.4614,8.4614,8.4614,8.4614,8.4614,8.4614,8.4614,8.4614,8.4614,8.4614,8.4614,8.4614,8.4614,8.4614,8.4614,8.4614,8.4614,8.4614,8.4614,8.4614,8.4614,8.4614,8.4614,8.4614,8.4614,8.4614,8.4614,8.4614,5.9561,6.0776,6.2295,6.2963,6.3834,6.5482,6.9162,7.0402,7.1441,7.3736,7.4604,7.5422,7.7018,7.7942,0.0,0.0,0.0,0.0,0.0,0.0,0.0,0.0,0.0,0.0,0.0,0.0,0.0,0.0,0.0,0.0,0.0,0.0,0.0,0.0,8.4614,8.4614,8.4614,8.4614,8.4614,8.4614,8.4614,8.4614,8.4614,8.4614,8.4614,8.4614,8.4614,8.4614,8.4614,8.4614,8.4614,8.4614,8.4614,8.4614,8.4614,8.4614,8.4614,8.4614,8.4614,8.4614,8.4614,8.4614,8.4614,8.4614,8.4614,8.4614,8.4614,8.4614,8.4614,8.4614,8.4614,8.4614,8.4614,8.4614,8.4614,8.4614,8.4614,8.4614,8.4614,8.4614,8.4614,8.4614,8.4614,8.4614,8.4614,8.4614,8.4614,8.4614,8.4614,8.4614,8.4614,8.4614,8.4614,8.4614,8.4614,8.4614,8.4614,8.4614,8.4614,8.4614,8.4614,8.4614,8.4614,8.4614,8.4614,8.4614,8.4614,8.4614,8.4614,8.4614,8.4614,8.4614,6.0232,6.1165,6.2918,6.5479,6.5886,6.6883,7.1531,7.3636,7.4489,7.3997,0.0,7.7164,7.7942,7.8653,0.0,0.0,0.0,0.0,0.0,0.0,0.0,0.0,0.0,0.0,0.0,0.0,0.0,0.0,0.0,0.0,0.0,0.0,0.0,8.4614,8.4614,8.4614,8.4614,8.4614,8.4614,0.0,8.4614,8.4614,8.4614,8.4614,8.4614,8.4614,8.4614,8.4614,8.4614,8.4614,8.4614,8.4614,8.4614,8.4614,8.4614,8.4614,8.4614,8.4614,8.4614,8.4614,8.4614,8.4614,8.4614,8.4614,8.4614,8.4614,8.4614,8.4614,8.4614,8.4614,8.4614,8.4614,8.4614,8.4614,8.4614,8.4614,8.4614,8.4614,8.4614,8.4614,8.4614,8.4614,8.4614,8.4614,8.4614,8.4614,8.4614,8.4614,8.4614,8.4614,8.4614,8.4614,8.4614,8.4614,8.4614,8.4614,8.4614,8.4614,8.4614,8.4614,8.4614,8.4614,8.4614,8.4614,8.4614,8.4614,8.4614,8.4614,8.4614,8.4614,8.4614,8.4614,6.0016,6.2267,6.4653,6.527,6.7363,6.9862,7.2095,7.3706,7.498,7.5961,7.6564,7.7299,7.8619,0.0,0.0,0.0,0.0,0.0,0.0,0.0,0.0,0.0,0.0,0.0,0.0,0.0,0.0,0.0,0.0,0.0,0.0,0.0,0.0,8.4614,8.4614,8.4614,8.4614,8.4614,8.4614,0.0,8.4614,8.4614,8.4614,8.4614,8.4614,8.4614,8.4614,8.4614,8.4614,8.4614,8.4614,8.4614,8.4614,8.4614,8.4614,8.4614,8.4614,8.4614,8.4614,8.4614,8.4614,8.4614,8.4614,8.4614,8.4614,8.4614,8.4614,8.4614,8.4614,8.4614,8.4614,8.4614,8.4614,8.4614,8.4614,8.4614,8.4614,8.4614,8.4614,8.4614,8.4614,8.4614,8.4614,8.4614,8.4614,8.4614,8.4614,8.4614,8.4614,8.4614,8.4614,8.4614,8.4614,8.4614,8.4614,8.4614,8.4614,8.4614,8.4614,8.4614,8.4614,8.4614,8.4614,8.4614,8.4614,8.4614,8.4614,8.4614,8.4614,8.4614,8.4614,8.4614,6.0579,6.2564,6.4884,6.5911,6.9323,7.2519,7.2958,7.4455,7.6082,7.7211,7.7705,7.8213,7.8932,0.0,0.0,0.0,0.0,0.0,0.0,0.0,0.0,0.0,0.0,0.0,0.0,0.0,0.0,0.0,0.0,0.0,0.0,8.4614,8.4614,8.4614,8.4614,8.4614,8.4614,8.4614,8.4614,8.4614,8.4614,8.4614,8.4614,8.4614,8.4614,8.4614,8.4614,8.4614,8.4614,8.4614,8.4614,8.4614,8.4614,8.4614,8.4614,8.4614,8.4614,8.4614,8.4614,8.4614,8.4614,8.4614,8.4614,8.4614,8.4614,8.4614,8.4614,8.4614,8.4614,8.4614,8.4614,8.4614,8.4614,8.4614,8.4614,8.4614,8.4614,8.4614,8.4614,8.4614,8.4614,8.4614,8.4614,8.4614,8.4614,8.4614,8.4614,8.4614,8.4614,8.4614,8.4614,8.4614,8.4614,8.4614,8.4614,8.4614,8.4614,8.4614,8.4614,8.4614,8.4614,8.4614,8.4614,8.4614,8.4614,8.4614,8.4614,8.4614,8.4614,8.4614,8.4614,8.4614,6.12,6.2793,6.5099,6.7355,7.0986,7.401,7.3828,7.5306,7.6996,7.7985,7.8686,7.916,7.9295,0.0,0.0,0.0,0.0,0.0,0.0,0.0,0.0,0.0,0.0,0.0,0.0,0.0,0.0,0.0,0.0,0.0,8.4614,8.4614,8.4614,8.4614,8.4614,8.4614,8.4614,8.4614,8.4614,8.4614,8.4614,8.4614,8.4614,8.4614,8.4614,8.4614,8.4614,8.4614,8.4614,8.4614,8.4614,8.4614,8.4614,8.4614,8.4614,8.4614,8.4614,8.4614,8.4614,8.4614,8.4614,8.4614,8.4614,8.4614,8.4614,8.4614,8.4614,8.4614,8.4614,8.4614,8.4614,8.4614,8.4614,8.4614,8.4614,8.4614,8.4614,8.4614,8.4614,8.4614,8.4614,8.4614,8.4614,8.4614,8.4614,8.4614,8.4614,8.4614,8.4614,8.4614,8.4614,8.4614,8.4614,8.4614,8.4614,8.4614,8.4614,8.4614,8.4614,8.4614,8.4614,8.4614,8.4614,8.4614,8.4614,8.4614,8.4614,8.4614,8.4614,8.4614,8.4614,8.4614,6.0952,6.3881,6.7418,7.0099,7.1272,7.2314,7.4116,7.5289,7.6517,7.8564,7.9034,7.9295,7.9938,0.0,0.0,0.0,0.0,0.0,0.0,0.0,0.0,0.0,0.0,0.0,0.0,0.0,0.0,0.0,0.0,0.0,8.4614,8.4614,8.4614,8.4614,8.4614,8.4614,8.4614,8.4614,8.4614,8.4614,8.4614,8.4614,8.4614,8.4614,8.4614,8.4614,8.4614,8.4614,8.4614,8.4614,8.4614,8.4614,8.4614,8.4614,8.4614,8.4614,8.4614,8.4614,8.4614,8.4614,8.4614,8.4614,8.4614,8.4614,8.4614,8.4614,8.4614,8.4614,8.4614,8.4614,8.4614,8.4614,8.4614,8.4614,8.4614,8.4614,8.4614,8.4614,8.4614,8.4614,8.4614,8.4614,8.4614,8.4614,8.4614,8.4614,8.4614,8.4614,8.4614,8.4614,8.4614,8.4614,8.4614,8.4614,8.4614,8.4614,8.4614,8.4614,8.4614,8.4614,8.4614,8.4614,8.4614,8.4614,8.4614,8.4614,8.4614,8.4614,8.4614,8.4614,8.4614,8.4614,6.2856,6.5226,6.7488,6.8662,7.0785,7.2762,7.3344,7.5318,7.7439,7.8799,7.9431,7.9837,8.0141,0.0,0.0,0.0,0.0,0.0,0.0,0.0,0.0,0.0,0.0,0.0,0.0,0.0,0.0,0.0,8.4614,8.4614,8.4614,8.4614,8.4614,8.4614,8.4614,8.4614,8.4614,8.4614,8.4614,8.4614,8.4614,8.4614,8.4614,8.4614,8.4614,8.4614,8.4614,8.4614,8.4614,8.4614,8.4614,8.4614,8.4614,8.4614,8.4614,8.4614,8.4614,8.4614,8.4614,8.4614,8.4614,8.4614,8.4614,8.4614,8.4614,8.4614,8.4614,8.4614,8.4614,8.4614,8.4614,8.4614,8.4614,8.4614,8.4614,8.4614,8.4614,8.4614,8.4614,8.4614,8.4614,8.4614,8.4614,8.4614,8.4614,8.4614,8.4614,8.4614,8.4614,8.4614,8.4614,8.4614,8.4614,8.4614,8.4614,8.4614,8.4614,8.4614,8.4614,8.4614,8.4614,8.4614,8.4614,8.4614,8.4614,8.4614,8.4614,8.4614,8.4614,8.4614,8.4614,8.4614,6.4638,6.5979,6.6765,6.7232,7.0217,7.2985,7.2838,7.5476,7.8247,0.0,7.9837,8.0209,8.0209,0.0,0.0,0.0,0.0,0.0,0.0,0.0,0.0,0.0,0.0,0.0,0.0,0.0,0.0,0.0,8.4614,8.4614,8.4614,8.4614,8.4614,8.4614,8.4614,8.4614,8.4614,8.4614,8.4614,8.4614,8.4614,8.4614,8.4614,8.4614,8.4614,8.4614,8.4614,8.4614,8.4614,8.4614,8.4614,8.4614,8.4614,8.4614,8.4614,8.4614,8.4614,8.4614,8.4614,8.4614,8.4614,8.4614,8.4614,8.4614,8.4614,8.4614,8.4614,8.4614,8.4614,8.4614,8.4614,8.4614,8.4614,8.4614,8.4614,8.4614,8.4614,8.4614,8.4614,8.4614,8.4614,8.4614,8.4614,8.4614,8.4614,8.4614,8.4614,8.4614,8.4614,8.4614,8.4614,8.4614,8.4614,8.4614,8.4614,8.4614,8.4614,8.4614,8.4614,8.4614,8.4614,8.4614,8.4614,8.4614,8.4614,8.4614,8.4614,8.4614,8.4614,8.4614,8.4614,8.4614,6.5346,6.5588,6.5589,6.7566,6.9804,7.1849,7.3227,7.5839,7.8407,7.9837,8.0175,8.0209,8.0209,0.0,0.0,0.0,0.0,0.0,0.0,0.0,0.0,0.0,0.0,0.0,0.0,0.0,0.0,0.0,8.4614,8.4614,8.4614,8.4614,8.4614,8.4614,8.4614,8.4614,8.4614,8.4614,8.4614,8.4614,8.4614,8.4614,8.4614,8.4614,8.4614,8.4614,8.4614,8.4614,8.4614,8.4614,8.4614,8.4614,8.4614,8.4614,8.4614,8.4614,8.4614,8.4614,8.4614,8.4614,8.4614,8.4614,8.4614,8.4614,8.4614,8.4614,8.4614,8.4614,8.4614,8.4614,8.4614,8.4614,8.4614,8.4614,8.4614,8.4614,8.4614,8.4614,8.4614,8.4614,8.4614,8.4614,8.4614,8.4614,8.4614,8.4614,8.4614,8.4614,8.4614,8.4614,8.4614,8.4614,8.4614,8.4614,8.4614,8.4614,8.4614,8.4614,8.4614,8.4614,8.4614,8.4614,8.4614,8.4614,8.4614,8.4614,8.4614,8.4614,8.4614,8.4614,8.4614,8.4614,6.55,6.5561,6.55,6.7568,6.9752,7.1799,7.3263,7.5872,7.8416,7.9904,8.0209,8.0209,8.0209,8.0209,0.0,0.0,0.0,0.0,0.0,0.0,0.0,0.0,0.0,0.0,0.0,0.0,0.0,0.0,0.0,8.4614,8.4614,8.4614,8.4614,8.4614,8.4614,8.4614,8.4614,8.4614,8.4614,8.4614,8.4614,8.4614,8.4614,8.4614,8.4614,8.4614,8.4614,8.4614,8.4614,8.4614,8.4614,8.4614,8.4614,8.4614,8.4614,8.4614,8.4614,8.4614,8.4614,8.4614,8.4614,8.4614,8.4614,8.4614,8.4614,8.4614,8.4614,8.4614,8.4614,8.4614,8.4614,8.4614,8.4614,8.4614,8.4614,8.4614,8.4614,8.4614,8.4614,8.4614,8.4614,8.4614,8.4614,8.4614,8.4614,8.4614,8.4614,8.4614,8.4614,8.4614,8.4614,8.4614,8.4614,8.4614,8.4614,8.4614,8.4614,8.4614,8.4614,8.4614,8.4614,8.4614,8.4614,8.4614,8.4614,8.4614,8.4614,8.4614,8.4614,8.4614,8.4614,8.4614,6.5873,6.5896,6.5831,6.7935,6.9937,7.1908,7.3899,7.6244,7.8416,7.9904,8.0209,8.0209,8.0209,8.0209,8.0513,0.0,0.0,0.0,0.0,0.0,0.0,0.0,0.0,0.0,0.0,0.0,0.0,0.0,0.0,0.0,8.4614,8.4614,8.4614,8.4614,8.4614,8.4614,8.4614,8.4614,8.4614,8.4614,8.4614,8.4614,8.4614,8.4614,8.4614,8.4614,8.4614,8.4614,8.4614,8.4614,8.4614,8.4614,8.4614,8.4614,8.4614,8.4614,8.4614,8.4614,8.4614,8.4614,8.4614,8.4614,8.4614,8.4614,8.4614,8.4614,8.4614,8.4614,8.4614,8.4614,8.4614,8.4614,8.4614,8.4614,8.4614,8.4614,8.4614,8.4614,8.4614,8.4614,8.4614,8.4614,8.4614,8.4614,8.4614,8.4614,8.4614,8.4614,8.4614,8.4614,8.4614,8.4614,8.4614,8.4614,8.4614,8.4614,8.4614,8.4614,8.4614,8.4614,8.4614,8.4614,8.4614,8.4614,8.4614,8.4614,8.4614,8.4614,8.4614,8.4614,8.4614,8.4614,0.0,0.0,0.0,6.8669,7.034,7.2235,7.5141,7.6918,7.8416,7.9904,8.0209,8.0209,8.0209,8.0209,8.0682,0.0,0.0,0.0,0.0,0.0,0.0,0.0,0.0,0.0,0.0,0.0,0.0,0.0,8.4614,8.4614,8.4614,8.4614,8.4614,8.4614,8.4614,8.4614,8.4614,8.4614,8.4614,8.4614,8.4614,8.4614,8.4614,8.4614,8.4614,8.4614,8.4614,8.4614,8.4614,8.4614,8.4614,8.4614,8.4614,8.4614,8.4614,8.4614,8.4614,8.4614,8.4614,8.4614,8.4614,8.4614,8.4614,8.4614,8.4614,8.4614,8.4614,8.4614,8.4614,8.4614,8.4614,8.4614,8.4614,8.4614,8.4614,8.4614,8.4614,8.4614,8.4614,8.4614,8.4614,8.4614,8.4614,8.4614,8.4614,8.4614,8.4614,8.4614,8.4614,8.4614,8.4614,8.4614,8.4614,8.4614,8.4614,8.4614,8.4614,8.4614,8.4614,8.4614,8.4614,8.4614,8.4614,8.4614,8.4614,8.4614,8.4614,8.4614,8.4614,8.4614,8.4614,8.4614,6.7317,0.0,0.0,0.0,0.0,0.0,7.5352,7.6918,7.8416,7.9904,8.0209,8.0209,8.0209,8.0209,8.0682,8.2171,0.0,0.0,0.0,0.0,0.0,0.0,0.0,0.0,0.0,0.0,0.0,0.0,8.4614,8.4614,8.4614,8.4614,8.4614,8.4614,8.4614,8.4614,8.4614,8.4614,8.4614,8.4614,8.4614,8.4614,8.4614,8.4614,8.4614,8.4614,8.4614,8.4614,8.4614,8.4614,8.4614,8.4614,8.4614,8.4614,8.4614,8.4614,8.4614,8.4614,8.4614,8.4614,8.4614,8.4614,8.4614,8.4614,8.4614,8.4614,8.4614,8.4614,8.4614,8.4614,8.4614,8.4614,8.4614,8.4614,8.4614,8.4614,8.4614,8.4614,8.4614,8.4614,8.4614,8.4614,8.4614,8.4614,8.4614,8.4614,8.4614,8.4614,8.4614,8.4614,8.4614,8.4614,8.4614,8.4614,8.4614,8.4614,8.4614,8.4614,8.4614,8.4614,8.4614,8.4614,8.4614,8.4614,8.4614,8.4614,8.4614,8.4614,8.4614,8.4614,8.4614,8.4614,0.0,0.0,0.0,0.0,0.0,0.0,7.622,7.7388,7.8416,7.9904,8.0209,8.0209,8.0209,8.0209,8.0581,8.1765,8.1934,0.0,0.0,0.0,0.0,0.0,0.0,0.0,0.0,8.4614,8.4614,8.4614,8.4614,8.4614,8.4614,8.4614,8.4614,8.4614,8.4614,8.4614,8.4614,8.4614,8.4614,8.4614,8.4614,8.4614,8.4614,8.4614,8.4614,8.4614,8.4614,8.4614,8.4614,8.4614,8.4614,8.4614,8.4614,8.4614,8.4614,8.4614,8.4614,8.4614,8.4614,8.4614,8.4614,8.4614,8.4614,8.4614,8.4614,8.4614,8.4614,8.4614,8.4614,8.4614,8.4614,8.4614,8.4614,8.4614,8.4614,8.4614,8.4614,8.4614,8.4614,8.4614,8.4614,8.4614,8.4614,8.4614,8.4614,8.4614,8.4614,8.4614,8.4614,8.4614,8.4614,8.4614,8.4614,8.4614,8.4614,8.4614,8.4614,8.4614,8.4614,8.4614,8.4614,8.4614,8.4614,8.4614,8.4614,8.4614,8.4614,8.4614,8.4614,8.4614,8.4614,8.4614,0.0,0.0,0.0,0.0,0.0,0.0,7.7392,7.8044,7.8517,7.9904,8.0209,8.0209,8.0209,8.0209,8.0445,8.1181,8.1317,0.0,0.0,0.0,0.0,0.0,0.0,0.0,8.4614,8.4614,8.4614,8.4614,8.4614,8.4614,8.4614,8.4614,8.4614,8.4614,8.4614,8.4614,8.4614,8.4614,8.4614,8.4614,8.4614,8.4614,8.4614,8.4614,8.4614,8.4614,8.4614,8.4614,8.4614,8.4614,8.4614,8.4614,8.4614,8.4614,8.4614,8.4614,8.4614,8.4614,8.4614,8.4614,8.4614,8.4614,8.4614,8.4614,8.4614,8.4614,8.4614,8.4614,8.4614,8.4614,8.4614,8.4614,8.4614,8.4614,8.4614,8.4614,8.4614,8.4614,8.4614,8.4614,8.4614,8.4614,8.4614,8.4614,8.4614,8.4614,8.4614,8.4614,8.4614,8.4614,8.4614,8.4614,8.4614,8.4614,8.4614,8.4614,8.4614,8.4614,8.4614,8.4614,8.4614,8.4614,8.4614,8.4614,8.4614,8.4614,8.4614,8.4614,8.4614,8.4614,8.4614,8.4614,0.0,0.0,0.0,0.0,0.0,0.0,7.7724,7.845,7.916,8.0006,8.0209,8.0209,8.0209,8.0209,8.0445,8.1181,8.1317,8.1866,0.0,0.0,0.0,0.0,0.0,0.0,8.4614,8.4614,8.4614,8.4614,8.4614,8.4614,8.4614,8.4614,8.4614,8.4614,8.4614,8.4614,8.4614,8.4614,8.4614,8.4614,8.4614,8.4614,8.4614,8.4614,8.4614,8.4614,8.4614,8.4614,8.4614,8.4614,8.4614,8.4614,8.4614,8.4614,8.4614,8.4614,8.4614,8.4614,8.4614,8.4614,8.4614,8.4614,8.4614,8.4614,8.4614,8.4614,8.4614,8.4614,8.4614,8.4614,8.4614,8.4614,8.4614,8.4614,8.4614,8.4614,8.4614,8.4614,8.4614,8.4614,8.4614,8.4614,8.4614,8.4614,8.4614,8.4614,8.4614,8.4614,8.4614,8.4614,8.4614,8.4614,8.4614,8.4614,8.4614,8.4614,8.4614,8.4614,8.4614,8.4614,8.4614,8.4614,8.4614,8.4614,8.4614,8.4614,8.4614,8.4614,8.4614,8.4614,8.4614,8.4614,0.0,0.0,0.0,7.5139,0.0,0.0,0.0,7.8822,7.9329,8.004,8.0209,8.0209,8.0209,8.0209,8.031,8.0682,8.075,8.1122,8.2238,0.0,0.0,0.0,0.0,0.0,8.4614,8.4614,8.4614,8.4614,8.4614,8.4614,8.4614,8.4614,8.4614,8.4614,8.4614,8.4614,8.4614,8.4614,8.4614,8.4614,8.4614,8.4614,8.4614,8.4614,8.4614,8.4614,8.4614,8.4614,8.4614,8.4614,8.4614,8.4614,8.4614,8.4614,8.4614,8.4614,8.4614,8.4614,8.4614,8.4614,8.4614,8.4614,8.4614,8.4614,8.4614,8.4614,8.4614,8.4614,8.4614,8.4614,8.4614,8.4614,8.4614,8.4614,8.4614,8.4614,8.4614,8.4614,8.4614,8.4614,8.4614,8.4614,8.4614,8.4614,8.4614,8.4614,8.4614,8.4614,8.4614,8.4614,8.4614,8.4614,8.4614,8.4614,8.4614,8.4614,8.4614,8.4614,8.4614,8.4614,8.4614,8.4614,8.4614,8.4614,8.4614,8.4614,8.4614,8.4614,8.4614,8.4614,8.4614,8.4614,0.0,0.0,0.0,0.0,0.0,7.7638,0.0,0.0,0.0,8.0073,8.0209,8.0209,8.0209,0.0,0.0,0.0,0.0,0.0,0.0,8.2035,0.0,0.0,0.0,0.0,0.0,8.4512,8.4614,8.4614,8.4614,8.4614,8.4614,8.4614,8.4614,8.4614,8.4614,8.4614,8.4614,8.4614,8.4614,8.4614,8.4614,8.4614,8.4614,8.4614,8.4614,8.4614,8.4614,8.4614,8.4614,8.4614,8.4614,8.4614,8.4614,8.4614,8.4614,8.4614,8.4614,8.4614,8.4614,8.4614,8.4614,8.4614,8.4614,8.4614,8.4614,8.4614,8.4614,8.4614,8.4614,8.4614,8.4614,8.4614,8.4614,8.4614,8.4614,8.4614,8.4614,8.4614,8.4614,8.4614,8.4614,8.4614,8.4614,8.4614,8.4614,8.4614,8.4614,8.4614,8.4614,8.4614,8.4614,8.4614,8.4614,8.4614,8.4614,8.4614,8.4614,8.4614,8.4614,8.4614,8.4614,8.4614,8.4614,8.4614,8.4614,8.4614,8.4614,8.4614,8.4614,8.4614,8.4614,8.4614,0.0,0.0,0.0,0.0,7.8382,0.0,0.0,0.0,8.0107,8.0175,0.0,0.0,0.0,0.0,0.0,0.0,0.0,0.0,7.8576,8.0234,8.1765,0.0,0.0,0.0,0.0,8.4208,8.4614,8.4614,8.4614,8.4614,8.4614,8.4614,8.4614,8.4614,8.4614,8.4614,8.4614,8.4614,8.4614,8.4614,8.4614,8.4614,8.4614,8.4614,8.4614,8.4614,8.4614,8.4614,8.4614,8.4614,8.4614,8.4614,8.4614,8.4614,8.4614,8.4614,8.4614,8.4614,8.4614,8.4614,8.4614,8.4614,8.4614,8.4614,8.4614,8.4614,8.4614,8.4614,8.4614,8.4614,8.4614,8.4614,8.4614,8.4614,8.4614,8.4614,8.4614,8.4614,8.4614,8.4614,8.4614,8.4614,8.4614,8.4614,8.4614,8.4614,8.4614,8.4614,8.4614,8.4614,8.4614,8.4614,8.4614,8.4614,8.4614,8.4614,8.4614,8.4614,8.4614,8.4614,8.4614,8.4614,8.4614,8.4614,8.4614,8.4614,8.4614,8.4614,8.4614,8.4614,8.4614,8.4614,0.0,0.0,0.0,0.0,0.0,0.0,0.0,0.0,8.0209,0.0,0.0,0.0,0.0,0.0,0.0,0.0,7.9803,0.0,0.0,0.0,8.0919,0.0,0.0,0.0,0.0,0.0,0.0,0.0,8.4614,8.4614,8.4614,8.4614,8.4614,8.4614,8.4614,8.4614,8.4614,8.4614,8.4614,8.4614,8.4614,8.4614,8.4614,8.4614,8.4614,8.4614,8.4614,8.4614,8.4614,8.4614,8.4614,8.4614,8.4614,8.4614,8.4614,8.4614,8.4614,8.4614,8.4614,8.4614,8.4614,8.4614,8.4614,8.4614,8.4614,8.4614,8.4614,8.4614,8.4614,8.4614,8.4614,8.4614,8.4614,8.4614,8.4614,8.4614,8.4614,8.4614,8.4614,8.4614,8.4614,8.4614,8.4614,8.4614,8.4614,8.4614,8.4614,8.4614,8.4614,8.4614,8.4614,8.4614,8.4614,8.4614,8.4614,8.4614,8.4614,8.4614,8.4614,8.4614,8.4614,8.4614,8.4614,8.4614,8.4614,8.4614,8.4614,8.4614,8.4614,8.4614,8.4614,8.4614,7.8585,0.0,0.0,0.0,0.0,0.0,0.0,0.0,0.0,0.0,0.0,0.0,0.0,0.0,0.0,0.0,0.0,8.0073,0.0,0.0,0.0,0.0,0.0,0.0,0.0,0.0,0.0,8.458,8.4614,8.4614,8.4614,8.4614,8.4614,8.4614,8.4614,8.4614,8.4614,8.4614,8.4614,8.4614,8.4614,8.4614,8.4614,8.4614,8.4614,8.4614,8.4614,8.4614,8.4614,8.4614,8.4614,8.4614,8.4614,8.4614,8.4614,8.4614,8.4614,8.4614,8.4614,8.4614,8.4614,8.4614,8.4614,8.4614,8.4614,8.4614,8.4614,8.4614,8.4614,8.4614,8.4614,8.4614,8.4614,8.4614,8.4614,8.4614,8.4614,8.4614,8.4614,8.4614,8.4614,8.4614,8.4614,8.4614,8.4614,8.4614,8.4614,8.4614,8.4614,8.4614,8.4614,8.4614,8.4614,8.4614,8.4614,8.4614,8.4614,8.4614,8.4614,8.4614,8.4614,8.4614,8.4614,8.4614,8.4614,8.4614,8.4614,8.4614,8.4614,8.4614,8.4614,8.4614,0.0,0.0,0.0,0.0,0.0,0.0,0.0,0.0,8.0209,0.0,0.0,0.0,0.0,0.0,0.0,0.0,0.0,0.0,0.0,0.0,0.0,0.0,0.0,0.0,0.0,0.0,0.0,8.4546,8.4614,8.4614,8.4614,8.4614,8.4614,8.4614,8.4614,8.4614,8.4614,8.4614,8.4614,8.4614,8.4614,8.4614,8.4614,8.4614,8.4614,8.4614,8.4614,8.4614,8.4614,8.4614,8.4614,8.4614,8.4614,8.4614,8.4614,8.4614,8.4614,8.4614,8.4614,8.4614,8.4614,8.4614,8.4614,8.4614,8.4614,8.4614,8.4614,8.4614,8.4614,8.4614,8.4614,8.4614,8.4614,8.4614,8.4614,8.4614,8.4614,8.4614,8.4614,8.4614,8.4614,8.4614,8.4614,8.4614,8.4614,8.4614,8.4614,8.4614,8.4614,8.4614,8.4614,8.4614,8.4614,8.4614,8.4614,8.4614,8.4614,8.4614,8.4614,8.4614,8.4614,8.4614,8.4614,8.4614,8.4614,8.4614,8.4614,8.4614,8.4614,8.4614,8.4614,8.4614,0.0,0.0,8.0209,8.0209,0.0,0.0,0.0,0.0,0.0,0.0,0.0,0.0,0.0,0.0,0.0,0.0,0.0,0.0,0.0,0.0,0.0,0.0,0.0,0.0,0.0,0.0,0.0,8.3862,8.4309,8.4614,8.4614,8.4614,8.4614,8.4614,8.4614,8.4614,8.4614,8.4614,8.4614,8.4614,8.4614,8.4614,8.4614,8.4614,8.4614,8.4614,8.4614,8.4614,8.4614,8.4614,8.4614,8.4614,8.4614,8.4614,8.4614,8.4614,8.4614,8.4614,8.4614,8.4614,8.4614,8.4614,8.4614,8.4614,8.4614,8.4614,8.4614,8.4614,8.4614,8.4614,8.4614,8.4614,8.4614,8.4614,8.4614,8.4614,8.4614,8.4614,8.4614,8.4614,8.4614,8.4614,8.4614,8.4614,8.4614,8.4614,8.4614,8.4614,8.4614,8.4614,8.4614,8.4614,8.4614,8.4614,8.4614,8.4614,8.4614,8.4614,8.4614,8.4614,8.4614,8.4614,8.4614,8.4614,8.4614,8.4614,8.4614,8.4614,8.4614,8.4614,8.4614,8.4614,8.1122,8.0987,0.0,0.0,8.0987,0.0,0.0,0.0,0.0,0.0,0.0,0.0,0.0,0.0,0.0,0.0,0.0,0.0,0.0,8.0209,0.0,0.0,0.0,0.0,0.0,0.0,8.3219,8.349,8.42,8.4614,0.0,0.0,8.4614,8.4614,8.4614,8.4614,8.4614,8.4614,8.4614,8.4614,8.4614,8.4614,8.4614,8.4614,8.4614,8.4614,8.4614,8.4614,8.4614,8.4614,8.4614,8.4614,8.4614,8.4614,8.4614,8.4614,8.4614,8.4614,8.4614,8.4614,8.4614,8.4614,8.4614,8.4614,8.4614,8.4614,8.4647,8.4945,8.4817,8.4647,8.4952,8.4817,8.4614,8.4614,8.4614,8.4614,8.4614,8.4614,8.4614,8.4614,8.4614,8.4614,8.4614,8.4614,8.4614,8.4614,8.4614,8.4614,8.4614,8.4614,8.4614,8.4614,8.4614,8.4614,8.4614,8.4614,8.4614,8.4614,8.4614,8.4614,8.4614,8.4614,8.485,8.5391,8.4884,8.485,8.5425,8.485,8.4614,8.4614,8.4614,8.4614]}]]